<?xml version="1.0" encoding="UTF-8"?>
<gpx version="1.1" creator="https://www.youtrack.es" xsi:schemaLocation="http://www.topografix.com/GPX/1/1 http://www.topografix.com/GPX/1/1/gpx.xsd http://www.garmin.com/xmlschemas/GpxExtensions/v3 http://www.garmin.com/xmlschemas/GpxExtensionsv3.xsd http://www.garmin.com/xmlschemas/TrackPointExtension/v1 http://www.garmin.com/xmlschemas/TrackPointExtensionv1.xsd" xmlns:gpxtpx="http://www.garmin.com/xmlschemas/TrackPointExtension/v1" xmlns:gpxx="http://www.garmin.com/xmlschemas/GpxExtensions/v3" xmlns:xsi="http://www.w3.org/2001/XMLSchema-instance">
  <metadata>
    <link href="https://www.youtrack.es">
      <text>YouTrack.es</text>
    </link>
    <time>2026-05-08T04:14:42Z</time>
  </metadata>
  <trk>
    <src>https://www.youtrack.es</src>
    <link href="https://www.youtrack.es/ruta/6616-travessia-prados-tiradentes">
      <text>YouTrack.es</text>
    </link>
    <trkseg>
      <trkpt lat="-21.065527" lon="-44.107435">
        <ele>1139.887361288707</ele>
        <time>2019-06-21T15:12:38Z</time>
      </trkpt>
      <trkpt lat="-21.065506" lon="-44.107526">
        <ele>1139.8873023543501</ele>
        <time>2019-06-21T15:13:31Z</time>
      </trkpt>
      <trkpt lat="-21.065523" lon="-44.107609">
        <ele>1136.887186265066</ele>
        <time>2019-06-21T15:13:37Z</time>
      </trkpt>
      <trkpt lat="-21.065515" lon="-44.107703">
        <ele>1138.8871006806567</ele>
        <time>2019-06-21T15:13:45Z</time>
      </trkpt>
      <trkpt lat="-21.065500" lon="-44.107779">
        <ele>1139.8870475098627</ele>
        <time>2019-06-21T15:13:52Z</time>
      </trkpt>
      <trkpt lat="-21.065471" lon="-44.107867">
        <ele>1144.8870049843597</ele>
        <time>2019-06-21T15:14:01Z</time>
      </trkpt>
      <trkpt lat="-21.065449" lon="-44.107932">
        <ele>1150.886975158304</ele>
        <time>2019-06-21T15:14:07Z</time>
      </trkpt>
      <trkpt lat="-21.065422" lon="-44.107997">
        <ele>1148.8869545788832</ele>
        <time>2019-06-21T15:14:12Z</time>
      </trkpt>
      <trkpt lat="-21.065381" lon="-44.108078">
        <ele>1148.8869398315678</ele>
        <time>2019-06-21T15:14:19Z</time>
      </trkpt>
      <trkpt lat="-21.065341" lon="-44.108148">
        <ele>1153.886936201168</ele>
        <time>2019-06-21T15:14:25Z</time>
      </trkpt>
      <trkpt lat="-21.065303" lon="-44.108222">
        <ele>1156.886924982168</ele>
        <time>2019-06-21T15:14:32Z</time>
      </trkpt>
      <trkpt lat="-21.065248" lon="-44.108288">
        <ele>1156.886951035341</ele>
        <time>2019-06-21T15:14:41Z</time>
      </trkpt>
      <trkpt lat="-21.065185" lon="-44.108337">
        <ele>1158.8870086353518</ele>
        <time>2019-06-21T15:14:48Z</time>
      </trkpt>
      <trkpt lat="-21.065122" lon="-44.108395">
        <ele>1156.887057578002</ele>
        <time>2019-06-21T15:14:56Z</time>
      </trkpt>
      <trkpt lat="-21.065060" lon="-44.108433">
        <ele>1158.887125202635</ele>
        <time>2019-06-21T15:15:08Z</time>
      </trkpt>
      <trkpt lat="-21.064989" lon="-44.108492">
        <ele>1160.8871877265392</ele>
        <time>2019-06-21T15:15:30Z</time>
      </trkpt>
      <trkpt lat="-21.064928" lon="-44.108553">
        <ele>1161.887231009248</ele>
        <time>2019-06-21T15:15:35Z</time>
      </trkpt>
      <trkpt lat="-21.064878" lon="-44.108600">
        <ele>1161.887268856</ele>
        <time>2019-06-21T15:15:40Z</time>
      </trkpt>
      <trkpt lat="-21.064817" lon="-44.108651">
        <ele>1165.887320705885</ele>
        <time>2019-06-21T15:15:48Z</time>
      </trkpt>
      <trkpt lat="-21.064750" lon="-44.108714">
        <ele>1166.8873710118849</ele>
        <time>2019-06-21T15:15:56Z</time>
      </trkpt>
      <trkpt lat="-21.064688" lon="-44.108776">
        <ele>1169.8874166659584</ele>
        <time>2019-06-21T15:16:07Z</time>
      </trkpt>
      <trkpt lat="-21.064632" lon="-44.108847">
        <ele>1173.8874397989055</ele>
        <time>2019-06-21T15:16:18Z</time>
      </trkpt>
      <trkpt lat="-21.064560" lon="-44.108893">
        <ele>1173.887517118873</ele>
        <time>2019-06-21T15:16:29Z</time>
      </trkpt>
      <trkpt lat="-21.064475" lon="-44.108886">
        <ele>1175.887673440823</ele>
        <time>2019-06-21T15:16:38Z</time>
      </trkpt>
      <trkpt lat="-21.064390" lon="-44.108914">
        <ele>1175.887792789165</ele>
        <time>2019-06-21T15:16:48Z</time>
      </trkpt>
      <trkpt lat="-21.064313" lon="-44.108953">
        <ele>1178.8878866342247</ele>
        <time>2019-06-21T15:17:01Z</time>
      </trkpt>
      <trkpt lat="-21.064244" lon="-44.108978">
        <ele>1179.8879809126672</ele>
        <time>2019-06-21T15:17:11Z</time>
      </trkpt>
      <trkpt lat="-21.064165" lon="-44.109002">
        <ele>1184.8880935917718</ele>
        <time>2019-06-21T15:17:22Z</time>
      </trkpt>
      <trkpt lat="-21.064123" lon="-44.109086">
        <ele>1188.888082014213</ele>
        <time>2019-06-21T15:17:37Z</time>
      </trkpt>
      <trkpt lat="-21.064072" lon="-44.109161">
        <ele>1190.8880935875584</ele>
        <time>2019-06-21T15:17:46Z</time>
      </trkpt>
      <trkpt lat="-21.064022" lon="-44.109234">
        <ele>1188.8881056263265</ele>
        <time>2019-06-21T15:17:58Z</time>
      </trkpt>
      <trkpt lat="-21.063979" lon="-44.109312">
        <ele>1190.8881021749933</ele>
        <time>2019-06-21T15:18:10Z</time>
      </trkpt>
      <trkpt lat="-21.063904" lon="-44.109348">
        <ele>1198.888196540382</ele>
        <time>2019-06-21T15:18:21Z</time>
      </trkpt>
      <trkpt lat="-21.063837" lon="-44.109391">
        <ele>1198.8882686013103</ele>
        <time>2019-06-21T15:18:31Z</time>
      </trkpt>
      <trkpt lat="-21.063753" lon="-44.109388">
        <ele>1201.8884194704108</ele>
        <time>2019-06-21T15:19:11Z</time>
      </trkpt>
      <trkpt lat="-21.063671" lon="-44.109380">
        <ele>1203.8885702619107</ele>
        <time>2019-06-21T15:19:20Z</time>
      </trkpt>
      <trkpt lat="-21.063588" lon="-44.109359">
        <ele>1209.88873835688</ele>
        <time>2019-06-21T15:19:30Z</time>
      </trkpt>
      <trkpt lat="-21.063499" lon="-44.109369">
        <ele>1207.8888824225317</ele>
        <time>2019-06-21T15:19:38Z</time>
      </trkpt>
      <trkpt lat="-21.063412" lon="-44.109374">
        <ele>1208.8890297381342</ele>
        <time>2019-06-21T15:19:49Z</time>
      </trkpt>
      <trkpt lat="-21.063330" lon="-44.109365">
        <ele>1204.8891825038004</ele>
        <time>2019-06-21T15:19:55Z</time>
      </trkpt>
      <trkpt lat="-21.063267" lon="-44.109298">
        <ele>1211.8893603912625</ele>
        <time>2019-06-21T15:20:37Z</time>
      </trkpt>
      <trkpt lat="-21.063232" lon="-44.109224">
        <ele>1211.8894964649985</ele>
        <time>2019-06-21T15:20:55Z</time>
      </trkpt>
      <trkpt lat="-21.063187" lon="-44.109164">
        <ele>1211.8896354717622</ele>
        <time>2019-06-21T15:21:01Z</time>
      </trkpt>
      <trkpt lat="-21.063139" lon="-44.109088">
        <ele>1213.889796188171</ele>
        <time>2019-06-21T15:21:08Z</time>
      </trkpt>
      <trkpt lat="-21.063081" lon="-44.109025">
        <ele>1216.8899623297073</ele>
        <time>2019-06-21T15:21:14Z</time>
      </trkpt>
      <trkpt lat="-21.062995" lon="-44.108996">
        <ele>1209.8901405308766</ele>
        <time>2019-06-21T15:21:21Z</time>
      </trkpt>
      <trkpt lat="-21.062907" lon="-44.108989">
        <ele>1221.8903018136984</ele>
        <time>2019-06-21T15:21:34Z</time>
      </trkpt>
      <trkpt lat="-21.062868" lon="-44.108912">
        <ele>1225.89044570042</ele>
        <time>2019-06-21T15:21:46Z</time>
      </trkpt>
      <trkpt lat="-21.062793" lon="-44.108895">
        <ele>1224.8905949021153</ele>
        <time>2019-06-21T15:21:52Z</time>
      </trkpt>
      <trkpt lat="-21.062722" lon="-44.108912">
        <ele>1226.890700473992</ele>
        <time>2019-06-21T15:21:58Z</time>
      </trkpt>
      <trkpt lat="-21.062647" lon="-44.108923">
        <ele>1227.890821388321</ele>
        <time>2019-06-21T15:22:04Z</time>
      </trkpt>
      <trkpt lat="-21.062559" lon="-44.108927">
        <ele>1225.8909697984398</ele>
        <time>2019-06-21T15:22:14Z</time>
      </trkpt>
      <trkpt lat="-21.062476" lon="-44.108961">
        <ele>1226.8910809897766</ele>
        <time>2019-06-21T15:22:23Z</time>
      </trkpt>
      <trkpt lat="-21.062412" lon="-44.109007">
        <ele>1231.891145833455</ele>
        <time>2019-06-21T15:22:35Z</time>
      </trkpt>
      <trkpt lat="-21.062355" lon="-44.109054">
        <ele>1232.8911993292043</ele>
        <time>2019-06-21T15:22:46Z</time>
      </trkpt>
      <trkpt lat="-21.062300" lon="-44.109128">
        <ele>1233.8912208102226</ele>
        <time>2019-06-21T15:22:57Z</time>
      </trkpt>
      <trkpt lat="-21.062338" lon="-44.109210">
        <ele>1236.8910722736346</ele>
        <time>2019-06-21T15:23:08Z</time>
      </trkpt>
      <trkpt lat="-21.062332" lon="-44.109298">
        <ele>1239.8909960430467</ele>
        <time>2019-06-21T15:23:18Z</time>
      </trkpt>
      <trkpt lat="-21.062311" lon="-44.109392">
        <ele>1242.8909395502515</ele>
        <time>2019-06-21T15:23:29Z</time>
      </trkpt>
      <trkpt lat="-21.062327" lon="-44.109478">
        <ele>1241.8908250619847</ele>
        <time>2019-06-21T15:23:40Z</time>
      </trkpt>
      <trkpt lat="-21.062322" lon="-44.109564">
        <ele>1237.8907478356416</ele>
        <time>2019-06-21T15:26:06Z</time>
      </trkpt>
      <trkpt lat="-21.062348" lon="-44.109649">
        <ele>1236.8906173911726</ele>
        <time>2019-06-21T15:26:15Z</time>
      </trkpt>
      <trkpt lat="-21.062375" lon="-44.109732">
        <ele>1239.8904867376855</ele>
        <time>2019-06-21T15:26:24Z</time>
      </trkpt>
      <trkpt lat="-21.062396" lon="-44.109824">
        <ele>1245.890359246304</ele>
        <time>2019-06-21T15:27:01Z</time>
      </trkpt>
      <trkpt lat="-21.062422" lon="-44.109908">
        <ele>1248.890229545076</ele>
        <time>2019-06-21T15:27:14Z</time>
      </trkpt>
      <trkpt lat="-21.062432" lon="-44.110000">
        <ele>1250.8901195515666</ele>
        <time>2019-06-21T15:27:25Z</time>
      </trkpt>
      <trkpt lat="-21.062403" lon="-44.110081">
        <ele>1250.8900902450912</ele>
        <time>2019-06-21T15:27:35Z</time>
      </trkpt>
      <trkpt lat="-21.062362" lon="-44.110165">
        <ele>1249.89007716344</ele>
        <time>2019-06-21T15:27:42Z</time>
      </trkpt>
      <trkpt lat="-21.062303" lon="-44.110234">
        <ele>1249.8901129821388</ele>
        <time>2019-06-21T15:27:49Z</time>
      </trkpt>
      <trkpt lat="-21.062264" lon="-44.110307">
        <ele>1248.8901097725923</ele>
        <time>2019-06-21T15:27:56Z</time>
      </trkpt>
      <trkpt lat="-21.062238" lon="-44.110384">
        <ele>1249.8900787522755</ele>
        <time>2019-06-21T15:28:02Z</time>
      </trkpt>
      <trkpt lat="-21.062286" lon="-44.110454">
        <ele>1249.889923918112</ele>
        <time>2019-06-21T15:28:11Z</time>
      </trkpt>
      <trkpt lat="-21.062341" lon="-44.110521">
        <ele>1252.8897609180724</ele>
        <time>2019-06-21T15:28:29Z</time>
      </trkpt>
      <trkpt lat="-21.062391" lon="-44.110598">
        <ele>1256.8895948375246</ele>
        <time>2019-06-21T15:28:43Z</time>
      </trkpt>
      <trkpt lat="-21.062365" lon="-44.110677">
        <ele>1256.8895610546333</ele>
        <time>2019-06-21T15:29:13Z</time>
      </trkpt>
      <trkpt lat="-21.062318" lon="-44.110752">
        <ele>1263.8895702329119</ele>
        <time>2019-06-21T15:29:26Z</time>
      </trkpt>
      <trkpt lat="-21.062308" lon="-44.110842">
        <ele>1262.889497476116</ele>
        <time>2019-06-21T15:29:48Z</time>
      </trkpt>
      <trkpt lat="-21.062370" lon="-44.110913">
        <ele>1253.8893188080488</ele>
        <time>2019-06-21T15:30:21Z</time>
      </trkpt>
      <trkpt lat="-21.062390" lon="-44.110989">
        <ele>1260.8892062628818</ele>
        <time>2019-06-21T15:30:37Z</time>
      </trkpt>
      <trkpt lat="-21.062423" lon="-44.111074">
        <ele>1265.8890621322944</ele>
        <time>2019-06-21T15:30:49Z</time>
      </trkpt>
      <trkpt lat="-21.062479" lon="-44.111139">
        <ele>1270.8888990539936</ele>
        <time>2019-06-21T15:31:09Z</time>
      </trkpt>
      <trkpt lat="-21.062526" lon="-44.111220">
        <ele>1269.8887338661716</ele>
        <time>2019-06-21T15:31:30Z</time>
      </trkpt>
      <trkpt lat="-21.062584" lon="-44.111287">
        <ele>1270.8885647211023</ele>
        <time>2019-06-21T15:31:43Z</time>
      </trkpt>
      <trkpt lat="-21.062653" lon="-44.111317">
        <ele>1273.8884107519539</ele>
        <time>2019-06-21T15:31:52Z</time>
      </trkpt>
      <trkpt lat="-21.062737" lon="-44.111345">
        <ele>1274.888232824974</ele>
        <time>2019-06-21T15:32:03Z</time>
      </trkpt>
      <trkpt lat="-21.062797" lon="-44.111408">
        <ele>1282.8880635258413</ele>
        <time>2019-06-21T15:32:23Z</time>
      </trkpt>
      <trkpt lat="-21.062867" lon="-44.111443">
        <ele>1276.8879027072912</ele>
        <time>2019-06-21T15:32:32Z</time>
      </trkpt>
      <trkpt lat="-21.062926" lon="-44.111508">
        <ele>1277.8877323182976</ele>
        <time>2019-06-21T15:32:40Z</time>
      </trkpt>
      <trkpt lat="-21.062900" lon="-44.111597">
        <ele>1283.8876900745329</ele>
        <time>2019-06-21T15:33:06Z</time>
      </trkpt>
      <trkpt lat="-21.062820" lon="-44.111640">
        <ele>1286.8877881464643</ele>
        <time>2019-06-21T15:33:29Z</time>
      </trkpt>
      <trkpt lat="-21.062748" lon="-44.111698">
        <ele>1292.887858368661</ele>
        <time>2019-06-21T15:34:00Z</time>
      </trkpt>
      <trkpt lat="-21.062701" lon="-44.111774">
        <ele>1291.8878660550124</ele>
        <time>2019-06-21T15:34:22Z</time>
      </trkpt>
      <trkpt lat="-21.062615" lon="-44.111795">
        <ele>1299.8879987820812</ele>
        <time>2019-06-21T15:35:07Z</time>
      </trkpt>
      <trkpt lat="-21.062538" lon="-44.111781">
        <ele>1300.8881509008484</ele>
        <time>2019-06-21T15:35:14Z</time>
      </trkpt>
      <trkpt lat="-21.062453" lon="-44.111757">
        <ele>1299.8883269203013</ele>
        <time>2019-06-21T15:35:24Z</time>
      </trkpt>
      <trkpt lat="-21.062376" lon="-44.111803">
        <ele>1299.8884190958381</ele>
        <time>2019-06-21T15:35:33Z</time>
      </trkpt>
      <trkpt lat="-21.062404" lon="-44.111887">
        <ele>1309.8882841216807</ele>
        <time>2019-06-21T15:36:40Z</time>
      </trkpt>
      <trkpt lat="-21.062363" lon="-44.111969">
        <ele>1310.8882759575547</ele>
        <time>2019-06-21T15:37:01Z</time>
      </trkpt>
      <trkpt lat="-21.062326" lon="-44.112055">
        <ele>1316.8882560243676</ele>
        <time>2019-06-21T15:37:39Z</time>
      </trkpt>
      <trkpt lat="-21.062398" lon="-44.112111">
        <ele>1318.8880721242342</ele>
        <time>2019-06-21T15:38:03Z</time>
      </trkpt>
      <trkpt lat="-21.062402" lon="-44.112207">
        <ele>1319.887967843232</ele>
        <time>2019-06-21T15:38:21Z</time>
      </trkpt>
      <trkpt lat="-21.062405" lon="-44.112298">
        <ele>1325.8878730723325</ele>
        <time>2019-06-21T15:39:19Z</time>
      </trkpt>
      <trkpt lat="-21.062366" lon="-44.112384">
        <ele>1329.8878568119985</ele>
        <time>2019-06-21T15:39:32Z</time>
      </trkpt>
      <trkpt lat="-21.062383" lon="-44.112477">
        <ele>1336.8877340363451</ele>
        <time>2019-06-21T15:39:49Z</time>
      </trkpt>
      <trkpt lat="-21.062393" lon="-44.112566">
        <ele>1336.8876272924122</ele>
        <time>2019-06-21T15:40:08Z</time>
      </trkpt>
      <trkpt lat="-21.062429" lon="-44.112646">
        <ele>1337.8874811059552</ele>
        <time>2019-06-21T15:40:18Z</time>
      </trkpt>
      <trkpt lat="-21.062451" lon="-44.112729">
        <ele>1339.8873592186471</ele>
        <time>2019-06-21T15:40:28Z</time>
      </trkpt>
      <trkpt lat="-21.062495" lon="-44.112811">
        <ele>1339.88719802488</ele>
        <time>2019-06-21T15:40:39Z</time>
      </trkpt>
      <trkpt lat="-21.062548" lon="-44.112886">
        <ele>1340.8870275842462</ele>
        <time>2019-06-21T15:40:52Z</time>
      </trkpt>
      <trkpt lat="-21.062543" lon="-44.112977">
        <ele>1340.8869454913367</ele>
        <time>2019-06-21T15:41:46Z</time>
      </trkpt>
      <trkpt lat="-21.062562" lon="-44.113070">
        <ele>1342.8868166104128</ele>
        <time>2019-06-21T15:42:06Z</time>
      </trkpt>
      <trkpt lat="-21.062524" lon="-44.113149">
        <ele>1347.8868065265133</ele>
        <time>2019-06-21T15:42:25Z</time>
      </trkpt>
      <trkpt lat="-21.062475" lon="-44.113216">
        <ele>1343.886829505095</ele>
        <time>2019-06-21T15:42:37Z</time>
      </trkpt>
      <trkpt lat="-21.062517" lon="-44.113297">
        <ele>1347.886671439335</ele>
        <time>2019-06-21T15:42:48Z</time>
      </trkpt>
      <trkpt lat="-21.062594" lon="-44.113347">
        <ele>1349.8864836331873</ele>
        <time>2019-06-21T15:43:06Z</time>
      </trkpt>
      <trkpt lat="-21.062633" lon="-44.113433">
        <ele>1350.8863261779866</ele>
        <time>2019-06-21T15:43:25Z</time>
      </trkpt>
      <trkpt lat="-21.062646" lon="-44.113528">
        <ele>1355.8862070804703</ele>
        <time>2019-06-21T15:43:39Z</time>
      </trkpt>
      <trkpt lat="-21.062674" lon="-44.113618">
        <ele>1358.886066533688</ele>
        <time>2019-06-21T15:43:53Z</time>
      </trkpt>
      <trkpt lat="-21.062641" lon="-44.113699">
        <ele>1364.8860448218297</ele>
        <time>2019-06-21T15:44:15Z</time>
      </trkpt>
      <trkpt lat="-21.062614" lon="-44.113788">
        <ele>1366.8860043688098</ele>
        <time>2019-06-21T15:44:39Z</time>
      </trkpt>
      <trkpt lat="-21.062644" lon="-44.113876">
        <ele>1368.885861183322</ele>
        <time>2019-06-21T15:45:01Z</time>
      </trkpt>
      <trkpt lat="-21.062654" lon="-44.113969">
        <ele>1368.885750827681</ele>
        <time>2019-06-21T15:45:17Z</time>
      </trkpt>
      <trkpt lat="-21.062608" lon="-44.114051">
        <ele>1364.8857522848352</ele>
        <time>2019-06-21T15:46:08Z</time>
      </trkpt>
      <trkpt lat="-21.062560" lon="-44.114120">
        <ele>1364.8857712103668</ele>
        <time>2019-06-21T15:46:22Z</time>
      </trkpt>
      <trkpt lat="-21.062570" lon="-44.114204">
        <ele>1360.8856679564144</ele>
        <time>2019-06-21T15:46:30Z</time>
      </trkpt>
      <trkpt lat="-21.062576" lon="-44.114291">
        <ele>1362.8855695083055</ele>
        <time>2019-06-21T15:46:39Z</time>
      </trkpt>
      <trkpt lat="-21.062526" lon="-44.114363">
        <ele>1364.885588841844</ele>
        <time>2019-06-21T15:46:49Z</time>
      </trkpt>
      <trkpt lat="-21.062482" lon="-44.114441">
        <ele>1372.885591343396</ele>
        <time>2019-06-21T15:47:08Z</time>
      </trkpt>
      <trkpt lat="-21.062543" lon="-44.114505">
        <ele>1373.8854153707282</ele>
        <time>2019-06-21T15:47:27Z</time>
      </trkpt>
      <trkpt lat="-21.062577" lon="-44.114594">
        <ele>1376.8852642701409</ele>
        <time>2019-06-21T15:47:39Z</time>
      </trkpt>
      <trkpt lat="-21.062587" lon="-44.114686">
        <ele>1371.8851544572271</ele>
        <time>2019-06-21T15:47:53Z</time>
      </trkpt>
      <trkpt lat="-21.062623" lon="-44.114771">
        <ele>1371.8850035646178</ele>
        <time>2019-06-21T15:48:15Z</time>
      </trkpt>
      <trkpt lat="-21.062709" lon="-44.114788">
        <ele>1368.8848286999105</ele>
        <time>2019-06-21T15:50:50Z</time>
      </trkpt>
      <trkpt lat="-21.062630" lon="-44.114745">
        <ele>1366.8850171817985</ele>
        <time>2019-06-21T15:52:30Z</time>
      </trkpt>
      <trkpt lat="-21.062610" lon="-44.114835">
        <ele>1370.8849618715433</ele>
        <time>2019-06-21T15:53:00Z</time>
      </trkpt>
      <trkpt lat="-21.062624" lon="-44.114930">
        <ele>1373.884843399308</ele>
        <time>2019-06-21T15:53:18Z</time>
      </trkpt>
      <trkpt lat="-21.062633" lon="-44.115016">
        <ele>1371.8847399984534</ele>
        <time>2019-06-21T15:53:27Z</time>
      </trkpt>
      <trkpt lat="-21.062611" lon="-44.115082">
        <ele>1372.8847127614401</ele>
        <time>2019-06-21T15:53:34Z</time>
      </trkpt>
      <trkpt lat="-21.062611" lon="-44.115162">
        <ele>1374.8846338086169</ele>
        <time>2019-06-21T15:53:41Z</time>
      </trkpt>
      <trkpt lat="-21.062613" lon="-44.115250">
        <ele>1373.884542128904</ele>
        <time>2019-06-21T15:53:49Z</time>
      </trkpt>
      <trkpt lat="-21.062592" lon="-44.115313">
        <ele>1372.884516737352</ele>
        <time>2019-06-21T15:53:57Z</time>
      </trkpt>
      <trkpt lat="-21.062586" lon="-44.115398">
        <ele>1374.8844427742195</ele>
        <time>2019-06-21T15:54:04Z</time>
      </trkpt>
      <trkpt lat="-21.062576" lon="-44.115487">
        <ele>1372.8843730912208</ele>
        <time>2019-06-21T15:54:15Z</time>
      </trkpt>
      <trkpt lat="-21.062557" lon="-44.115563">
        <ele>1372.8843312214606</ele>
        <time>2019-06-21T15:54:24Z</time>
      </trkpt>
      <trkpt lat="-21.062512" lon="-44.115644">
        <ele>1372.88433307124</ele>
        <time>2019-06-21T15:54:35Z</time>
      </trkpt>
      <trkpt lat="-21.062478" lon="-44.115724">
        <ele>1370.8843167905015</ele>
        <time>2019-06-21T15:54:48Z</time>
      </trkpt>
      <trkpt lat="-21.062422" lon="-44.115784">
        <ele>1369.8843604839362</ele>
        <time>2019-06-21T15:55:01Z</time>
      </trkpt>
      <trkpt lat="-21.062374" lon="-44.115862">
        <ele>1366.8843723477428</ele>
        <time>2019-06-21T15:55:13Z</time>
      </trkpt>
      <trkpt lat="-21.062302" lon="-44.115917">
        <ele>1368.8844507814576</ele>
        <time>2019-06-21T15:55:21Z</time>
      </trkpt>
      <trkpt lat="-21.062243" lon="-44.115988">
        <ele>1368.8844896125831</ele>
        <time>2019-06-21T15:55:35Z</time>
      </trkpt>
      <trkpt lat="-21.062193" lon="-44.116061">
        <ele>1365.884508833067</ele>
        <time>2019-06-21T15:55:50Z</time>
      </trkpt>
      <trkpt lat="-21.062143" lon="-44.116108">
        <ele>1362.8845551958116</ele>
        <time>2019-06-21T15:56:05Z</time>
      </trkpt>
      <trkpt lat="-21.062132" lon="-44.116194">
        <ele>1360.88448922072</ele>
        <time>2019-06-21T15:56:13Z</time>
      </trkpt>
      <trkpt lat="-21.062109" lon="-44.116262">
        <ele>1357.8844646903704</ele>
        <time>2019-06-21T15:56:20Z</time>
      </trkpt>
      <trkpt lat="-21.062107" lon="-44.116358">
        <ele>1356.8843733119002</ele>
        <time>2019-06-21T15:56:29Z</time>
      </trkpt>
      <trkpt lat="-21.062106" lon="-44.116452">
        <ele>1354.884282175532</ele>
        <time>2019-06-21T15:56:39Z</time>
      </trkpt>
      <trkpt lat="-21.062076" lon="-44.116537">
        <ele>1354.884252456067</ele>
        <time>2019-06-21T15:56:50Z</time>
      </trkpt>
      <trkpt lat="-21.062034" lon="-44.116606">
        <ele>1353.8842636643456</ele>
        <time>2019-06-21T15:57:00Z</time>
      </trkpt>
      <trkpt lat="-21.062002" lon="-44.116692">
        <ele>1352.8842371425308</ele>
        <time>2019-06-21T15:57:09Z</time>
      </trkpt>
      <trkpt lat="-21.061972" lon="-44.116769">
        <ele>1352.884216332048</ele>
        <time>2019-06-21T15:57:15Z</time>
      </trkpt>
      <trkpt lat="-21.061927" lon="-44.116846">
        <ele>1351.8842260143667</ele>
        <time>2019-06-21T15:57:23Z</time>
      </trkpt>
      <trkpt lat="-21.061881" lon="-44.116922">
        <ele>1351.8842354233177</ele>
        <time>2019-06-21T15:57:31Z</time>
      </trkpt>
      <trkpt lat="-21.061853" lon="-44.117005">
        <ele>1354.884206214318</ele>
        <time>2019-06-21T15:57:39Z</time>
      </trkpt>
      <trkpt lat="-21.061835" lon="-44.117082">
        <ele>1355.884163455672</ele>
        <time>2019-06-21T15:57:46Z</time>
      </trkpt>
      <trkpt lat="-21.061783" lon="-44.117159">
        <ele>1357.884184881098</ele>
        <time>2019-06-21T15:57:53Z</time>
      </trkpt>
      <trkpt lat="-21.061764" lon="-44.117243">
        <ele>1355.8841369132704</ele>
        <time>2019-06-21T15:58:02Z</time>
      </trkpt>
      <trkpt lat="-21.061752" lon="-44.117318">
        <ele>1355.8840856074003</ele>
        <time>2019-06-21T15:58:12Z</time>
      </trkpt>
      <trkpt lat="-21.061726" lon="-44.117406">
        <ele>1354.8840482231694</ele>
        <time>2019-06-21T15:58:19Z</time>
      </trkpt>
      <trkpt lat="-21.061717" lon="-44.117502">
        <ele>1356.883970173295</ele>
        <time>2019-06-21T15:58:28Z</time>
      </trkpt>
      <trkpt lat="-21.061669" lon="-44.117572">
        <ele>1357.8839900901671</ele>
        <time>2019-06-21T15:58:43Z</time>
      </trkpt>
      <trkpt lat="-21.061611" lon="-44.117619">
        <ele>1354.884054380073</ele>
        <time>2019-06-21T15:58:51Z</time>
      </trkpt>
      <trkpt lat="-21.061542" lon="-44.117668">
        <ele>1354.8841362610488</ele>
        <time>2019-06-21T15:58:58Z</time>
      </trkpt>
      <trkpt lat="-21.061543" lon="-44.117761">
        <ele>1356.8840429186214</ele>
        <time>2019-06-21T15:59:09Z</time>
      </trkpt>
      <trkpt lat="-21.061510" lon="-44.117850">
        <ele>1353.8840166538562</ele>
        <time>2019-06-21T15:59:27Z</time>
      </trkpt>
      <trkpt lat="-21.061466" lon="-44.117917">
        <ele>1352.8840342865044</ele>
        <time>2019-06-21T15:59:35Z</time>
      </trkpt>
      <trkpt lat="-21.061451" lon="-44.117998">
        <ele>1356.8839819120417</ele>
        <time>2019-06-21T15:59:57Z</time>
      </trkpt>
      <trkpt lat="-21.061448" lon="-44.118090">
        <ele>1357.883897312992</ele>
        <time>2019-06-21T16:00:06Z</time>
      </trkpt>
      <trkpt lat="-21.061460" lon="-44.118164">
        <ele>1357.8838016969953</ele>
        <time>2019-06-21T16:00:11Z</time>
      </trkpt>
      <trkpt lat="-21.061475" lon="-44.118253">
        <ele>1356.8836863642316</ele>
        <time>2019-06-21T16:00:18Z</time>
      </trkpt>
      <trkpt lat="-21.061496" lon="-44.118340">
        <ele>1357.883561680185</ele>
        <time>2019-06-21T16:00:26Z</time>
      </trkpt>
      <trkpt lat="-21.061494" lon="-44.118429">
        <ele>1355.883476748526</ele>
        <time>2019-06-21T16:00:36Z</time>
      </trkpt>
      <trkpt lat="-21.061478" lon="-44.118523">
        <ele>1358.8834154673696</ele>
        <time>2019-06-21T16:00:44Z</time>
      </trkpt>
      <trkpt lat="-21.061471" lon="-44.118617">
        <ele>1360.883335544556</ele>
        <time>2019-06-21T16:00:51Z</time>
      </trkpt>
      <trkpt lat="-21.061457" lon="-44.118705">
        <ele>1362.883276138968</ele>
        <time>2019-06-21T16:00:58Z</time>
      </trkpt>
      <trkpt lat="-21.061461" lon="-44.118791">
        <ele>1361.883183768366</ele>
        <time>2019-06-21T16:01:06Z</time>
      </trkpt>
      <trkpt lat="-21.061443" lon="-44.118882">
        <ele>1365.883127660416</ele>
        <time>2019-06-21T16:01:23Z</time>
      </trkpt>
      <trkpt lat="-21.061492" lon="-44.118962">
        <ele>1365.8829573804928</ele>
        <time>2019-06-21T16:01:36Z</time>
      </trkpt>
      <trkpt lat="-21.061524" lon="-44.119044">
        <ele>1363.8828163372063</ele>
        <time>2019-06-21T16:01:44Z</time>
      </trkpt>
      <trkpt lat="-21.061562" lon="-44.119129">
        <ele>1363.8826592692449</ele>
        <time>2019-06-21T16:01:51Z</time>
      </trkpt>
      <trkpt lat="-21.061608" lon="-44.119207">
        <ele>1361.882494802339</ele>
        <time>2019-06-21T16:01:58Z</time>
      </trkpt>
      <trkpt lat="-21.061668" lon="-44.119276">
        <ele>1361.882311894285</ele>
        <time>2019-06-21T16:02:06Z</time>
      </trkpt>
      <trkpt lat="-21.061747" lon="-44.119289">
        <ele>1365.8821489640486</ele>
        <time>2019-06-21T16:02:13Z</time>
      </trkpt>
      <trkpt lat="-21.061800" lon="-44.119355">
        <ele>1365.8819826387514</ele>
        <time>2019-06-21T16:02:20Z</time>
      </trkpt>
      <trkpt lat="-21.061846" lon="-44.119427">
        <ele>1365.8818226909523</ele>
        <time>2019-06-21T16:02:28Z</time>
      </trkpt>
      <trkpt lat="-21.061906" lon="-44.119488">
        <ele>1365.8816487679537</ele>
        <time>2019-06-21T16:02:36Z</time>
      </trkpt>
      <trkpt lat="-21.061954" lon="-44.119566">
        <ele>1369.8814783511668</ele>
        <time>2019-06-21T16:02:44Z</time>
      </trkpt>
      <trkpt lat="-21.062008" lon="-44.119640">
        <ele>1370.8813026849905</ele>
        <time>2019-06-21T16:02:52Z</time>
      </trkpt>
      <trkpt lat="-21.062073" lon="-44.119702">
        <ele>1369.8811160949037</ele>
        <time>2019-06-21T16:03:00Z</time>
      </trkpt>
      <trkpt lat="-21.062116" lon="-44.119765">
        <ele>1367.8809710349312</ele>
        <time>2019-06-21T16:03:05Z</time>
      </trkpt>
      <trkpt lat="-21.062159" lon="-44.119834">
        <ele>1365.8808202900532</ele>
        <time>2019-06-21T16:03:11Z</time>
      </trkpt>
      <trkpt lat="-21.062203" lon="-44.119918">
        <ele>1366.8806523407786</ele>
        <time>2019-06-21T16:03:57Z</time>
      </trkpt>
      <trkpt lat="-21.062240" lon="-44.119996">
        <ele>1365.8805035745213</ele>
        <time>2019-06-21T16:04:06Z</time>
      </trkpt>
      <trkpt lat="-21.062318" lon="-44.120040">
        <ele>1365.8803090726428</ele>
        <time>2019-06-21T16:04:21Z</time>
      </trkpt>
      <trkpt lat="-21.062238" lon="-44.119997">
        <ele>1366.8805053518572</ele>
        <time>2019-06-21T16:22:55Z</time>
      </trkpt>
      <trkpt lat="-21.062206" lon="-44.119909">
        <ele>1362.8806551586708</ele>
        <time>2019-06-21T16:23:54Z</time>
      </trkpt>
      <trkpt lat="-21.062170" lon="-44.119830">
        <ele>1364.8808025957126</ele>
        <time>2019-06-21T16:24:06Z</time>
      </trkpt>
      <trkpt lat="-21.062125" lon="-44.119764">
        <ele>1364.8809540019545</ele>
        <time>2019-06-21T16:24:12Z</time>
      </trkpt>
      <trkpt lat="-21.062079" lon="-44.119690">
        <ele>1362.881115366497</ele>
        <time>2019-06-21T16:24:19Z</time>
      </trkpt>
      <trkpt lat="-21.062031" lon="-44.119629">
        <ele>1365.8812693765767</ele>
        <time>2019-06-21T16:24:25Z</time>
      </trkpt>
      <trkpt lat="-21.061975" lon="-44.119569">
        <ele>1365.8814358613804</ele>
        <time>2019-06-21T16:24:32Z</time>
      </trkpt>
      <trkpt lat="-21.061923" lon="-44.119504">
        <ele>1365.8815980997927</ele>
        <time>2019-06-21T16:24:39Z</time>
      </trkpt>
      <trkpt lat="-21.061854" lon="-44.119438">
        <ele>1364.8817953577295</ele>
        <time>2019-06-21T16:24:44Z</time>
      </trkpt>
      <trkpt lat="-21.061802" lon="-44.119363">
        <ele>1363.8819698617895</ele>
        <time>2019-06-21T16:24:49Z</time>
      </trkpt>
      <trkpt lat="-21.061753" lon="-44.119288">
        <ele>1360.8821374270135</ele>
        <time>2019-06-21T16:24:56Z</time>
      </trkpt>
      <trkpt lat="-21.061680" lon="-44.119233">
        <ele>1363.8823315145282</ele>
        <time>2019-06-21T16:25:05Z</time>
      </trkpt>
      <trkpt lat="-21.061614" lon="-44.119175">
        <ele>1364.8825153782</ele>
        <time>2019-06-21T16:25:12Z</time>
      </trkpt>
      <trkpt lat="-21.061567" lon="-44.119100">
        <ele>1362.8826768605816</ele>
        <time>2019-06-21T16:25:19Z</time>
      </trkpt>
      <trkpt lat="-21.061532" lon="-44.119029">
        <ele>1360.8828148100495</ele>
        <time>2019-06-21T16:25:25Z</time>
      </trkpt>
      <trkpt lat="-21.061502" lon="-44.118961">
        <ele>1363.8829383659734</ele>
        <time>2019-06-21T16:25:30Z</time>
      </trkpt>
      <trkpt lat="-21.061465" lon="-44.118888">
        <ele>1362.883080686936</ele>
        <time>2019-06-21T16:25:35Z</time>
      </trkpt>
      <trkpt lat="-21.061455" lon="-44.118794">
        <ele>1360.8831930091314</ele>
        <time>2019-06-21T16:25:41Z</time>
      </trkpt>
      <trkpt lat="-21.061433" lon="-44.118703">
        <ele>1358.883324060731</ele>
        <time>2019-06-21T16:25:48Z</time>
      </trkpt>
      <trkpt lat="-21.061472" lon="-44.118629">
        <ele>1361.883321359116</ele>
        <time>2019-06-21T16:25:55Z</time>
      </trkpt>
      <trkpt lat="-21.061481" lon="-44.118558">
        <ele>1360.8833742880904</ele>
        <time>2019-06-21T16:26:00Z</time>
      </trkpt>
      <trkpt lat="-21.061492" lon="-44.118469">
        <ele>1358.883441668032</ele>
        <time>2019-06-21T16:26:06Z</time>
      </trkpt>
      <trkpt lat="-21.061490" lon="-44.118386">
        <ele>1359.8835274055614</ele>
        <time>2019-06-21T16:26:11Z</time>
      </trkpt>
      <trkpt lat="-21.061491" lon="-44.118292">
        <ele>1360.8836178803092</ele>
        <time>2019-06-21T16:26:17Z</time>
      </trkpt>
      <trkpt lat="-21.061474" lon="-44.118216">
        <ele>1360.8837257838695</ele>
        <time>2019-06-21T16:26:22Z</time>
      </trkpt>
      <trkpt lat="-21.061462" lon="-44.118132">
        <ele>1359.8838287868518</ele>
        <time>2019-06-21T16:26:28Z</time>
      </trkpt>
      <trkpt lat="-21.061462" lon="-44.118036">
        <ele>1361.88392310258</ele>
        <time>2019-06-21T16:26:35Z</time>
      </trkpt>
      <trkpt lat="-21.061428" lon="-44.117955">
        <ele>1359.8840693122086</ele>
        <time>2019-06-21T16:26:48Z</time>
      </trkpt>
      <trkpt lat="-21.061428" lon="-44.117880">
        <ele>1358.8841410250425</ele>
        <time>2019-06-21T16:26:54Z</time>
      </trkpt>
      <trkpt lat="-21.061414" lon="-44.117803">
        <ele>1357.8842435679585</ele>
        <time>2019-06-21T16:27:00Z</time>
      </trkpt>
      <trkpt lat="-21.061368" lon="-44.117723">
        <ele>1356.8844094935423</ele>
        <time>2019-06-21T16:27:09Z</time>
      </trkpt>
      <trkpt lat="-21.061294" lon="-44.117686">
        <ele>1356.884585810544</ele>
        <time>2019-06-21T16:27:21Z</time>
      </trkpt>
      <trkpt lat="-21.061236" lon="-44.117629">
        <ele>1356.884750011377</ele>
        <time>2019-06-21T16:27:30Z</time>
      </trkpt>
      <trkpt lat="-21.061149" lon="-44.117605">
        <ele>1354.8849362991689</ele>
        <time>2019-06-21T16:27:43Z</time>
      </trkpt>
      <trkpt lat="-21.061125" lon="-44.117528">
        <ele>1352.8850581801344</ele>
        <time>2019-06-21T16:27:54Z</time>
      </trkpt>
      <trkpt lat="-21.061085" lon="-44.117458">
        <ele>1354.8852016249855</ele>
        <time>2019-06-21T16:28:01Z</time>
      </trkpt>
      <trkpt lat="-21.061034" lon="-44.117402">
        <ele>1354.8853522546524</ele>
        <time>2019-06-21T16:28:19Z</time>
      </trkpt>
      <trkpt lat="-21.060980" lon="-44.117328">
        <ele>1355.885525987545</ele>
        <time>2019-06-21T16:28:28Z</time>
      </trkpt>
      <trkpt lat="-21.060999" lon="-44.117242">
        <ele>1352.8855743518407</ele>
        <time>2019-06-21T16:28:34Z</time>
      </trkpt>
      <trkpt lat="-21.061064" lon="-44.117181">
        <ele>1354.8855126789103</ele>
        <time>2019-06-21T16:28:48Z</time>
      </trkpt>
      <trkpt lat="-21.061138" lon="-44.117158">
        <ele>1350.8853955880506</ele>
        <time>2019-06-21T16:28:56Z</time>
      </trkpt>
      <trkpt lat="-21.061222" lon="-44.117134">
        <ele>1347.8852606747516</ele>
        <time>2019-06-21T16:29:08Z</time>
      </trkpt>
      <trkpt lat="-21.061307" lon="-44.117126">
        <ele>1346.8851100041431</ele>
        <time>2019-06-21T16:29:20Z</time>
      </trkpt>
      <trkpt lat="-21.061237" lon="-44.117129">
        <ele>1350.8852387904362</ele>
        <time>2019-06-21T16:31:15Z</time>
      </trkpt>
      <trkpt lat="-21.061164" lon="-44.117148">
        <ele>1350.885356082652</ele>
        <time>2019-06-21T16:31:20Z</time>
      </trkpt>
      <trkpt lat="-21.061096" lon="-44.117160">
        <ele>1351.8854713359776</ele>
        <time>2019-06-21T16:31:25Z</time>
      </trkpt>
      <trkpt lat="-21.061016" lon="-44.117184">
        <ele>1351.8855976746768</ele>
        <time>2019-06-21T16:31:31Z</time>
      </trkpt>
      <trkpt lat="-21.060944" lon="-44.117217">
        <ele>1348.8857017821297</ele>
        <time>2019-06-21T16:31:40Z</time>
      </trkpt>
      <trkpt lat="-21.060861" lon="-44.117188">
        <ele>1349.8858847486015</ele>
        <time>2019-06-21T16:31:50Z</time>
      </trkpt>
      <trkpt lat="-21.060799" lon="-44.117130">
        <ele>1342.8860574209664</ele>
        <time>2019-06-21T16:32:02Z</time>
      </trkpt>
      <trkpt lat="-21.060759" lon="-44.117052">
        <ele>1345.8862082259457</ele>
        <time>2019-06-21T16:32:13Z</time>
      </trkpt>
      <trkpt lat="-21.060681" lon="-44.117008">
        <ele>1339.8863970194398</ele>
        <time>2019-06-21T16:32:39Z</time>
      </trkpt>
      <trkpt lat="-21.060613" lon="-44.116952">
        <ele>1336.8865791049266</ele>
        <time>2019-06-21T16:32:50Z</time>
      </trkpt>
      <trkpt lat="-21.060528" lon="-44.116952">
        <ele>1332.8867378052385</ele>
        <time>2019-06-21T16:32:58Z</time>
      </trkpt>
      <trkpt lat="-21.060505" lon="-44.117032">
        <ele>1332.886703371016</ele>
        <time>2019-06-21T16:33:06Z</time>
      </trkpt>
      <trkpt lat="-21.060460" lon="-44.117109">
        <ele>1332.886712966275</ele>
        <time>2019-06-21T16:33:15Z</time>
      </trkpt>
      <trkpt lat="-21.060395" lon="-44.117152">
        <ele>1330.8867934919167</ele>
        <time>2019-06-21T16:33:23Z</time>
      </trkpt>
      <trkpt lat="-21.060331" lon="-44.117201">
        <ele>1330.8868673831773</ele>
        <time>2019-06-21T16:33:31Z</time>
      </trkpt>
      <trkpt lat="-21.060278" lon="-44.117240">
        <ele>1330.8869286739277</ele>
        <time>2019-06-21T16:33:37Z</time>
      </trkpt>
      <trkpt lat="-21.060203" lon="-44.117276">
        <ele>1328.8870339399105</ele>
        <time>2019-06-21T16:34:22Z</time>
      </trkpt>
      <trkpt lat="-21.060126" lon="-44.117294">
        <ele>1328.8871615649728</ele>
        <time>2019-06-21T16:34:30Z</time>
      </trkpt>
      <trkpt lat="-21.060044" lon="-44.117289">
        <ele>1327.8873201806848</ele>
        <time>2019-06-21T16:34:37Z</time>
      </trkpt>
      <trkpt lat="-21.059960" lon="-44.117315">
        <ele>1325.887452489728</ele>
        <time>2019-06-21T16:34:44Z</time>
      </trkpt>
      <trkpt lat="-21.059890" lon="-44.117368">
        <ele>1324.887533475469</ele>
        <time>2019-06-21T16:34:51Z</time>
      </trkpt>
      <trkpt lat="-21.059870" lon="-44.117459">
        <ele>1323.8874834867856</ele>
        <time>2019-06-21T16:34:59Z</time>
      </trkpt>
      <trkpt lat="-21.059862" lon="-44.117551">
        <ele>1321.8874119161296</ele>
        <time>2019-06-21T16:35:09Z</time>
      </trkpt>
      <trkpt lat="-21.059878" lon="-44.117643">
        <ele>1319.8872915070338</ele>
        <time>2019-06-21T16:35:20Z</time>
      </trkpt>
      <trkpt lat="-21.059886" lon="-44.117736">
        <ele>1323.8871881872067</ele>
        <time>2019-06-21T16:35:30Z</time>
      </trkpt>
      <trkpt lat="-21.059928" lon="-44.117821">
        <ele>1321.8870275763052</ele>
        <time>2019-06-21T16:35:41Z</time>
      </trkpt>
      <trkpt lat="-21.059945" lon="-44.117902">
        <ele>1319.8869166955367</ele>
        <time>2019-06-21T16:35:59Z</time>
      </trkpt>
      <trkpt lat="-21.059971" lon="-44.117991">
        <ele>1318.8867834868997</ele>
        <time>2019-06-21T16:36:06Z</time>
      </trkpt>
      <trkpt lat="-21.059993" lon="-44.118070">
        <ele>1317.8866665967066</ele>
        <time>2019-06-21T16:36:13Z</time>
      </trkpt>
      <trkpt lat="-21.060002" lon="-44.118158">
        <ele>1317.886565586116</ele>
        <time>2019-06-21T16:36:22Z</time>
      </trkpt>
      <trkpt lat="-21.060002" lon="-44.118252">
        <ele>1320.8864738187228</ele>
        <time>2019-06-21T16:36:43Z</time>
      </trkpt>
      <trkpt lat="-21.060016" lon="-44.118344">
        <ele>1315.8863592745856</ele>
        <time>2019-06-21T16:36:51Z</time>
      </trkpt>
      <trkpt lat="-21.060046" lon="-44.118434">
        <ele>1312.8862164807967</ele>
        <time>2019-06-21T16:37:11Z</time>
      </trkpt>
      <trkpt lat="-21.059980" lon="-44.118374">
        <ele>1312.8863994078752</ele>
        <time>2019-06-21T16:37:46Z</time>
      </trkpt>
      <trkpt lat="-21.059941" lon="-44.118292">
        <ele>1313.8865512593768</ele>
        <time>2019-06-21T16:38:03Z</time>
      </trkpt>
      <trkpt lat="-21.059864" lon="-44.118264">
        <ele>1307.886723334797</ele>
        <time>2019-06-21T16:38:24Z</time>
      </trkpt>
      <trkpt lat="-21.059776" lon="-44.118271">
        <ele>1306.8868834383886</ele>
        <time>2019-06-21T16:38:43Z</time>
      </trkpt>
      <trkpt lat="-21.059710" lon="-44.118332">
        <ele>1304.8869501528902</ele>
        <time>2019-06-21T16:38:59Z</time>
      </trkpt>
      <trkpt lat="-21.059694" lon="-44.118420">
        <ele>1305.8868953488768</ele>
        <time>2019-06-21T16:39:43Z</time>
      </trkpt>
      <trkpt lat="-21.059688" lon="-44.118508">
        <ele>1307.886824478</ele>
        <time>2019-06-21T16:39:56Z</time>
      </trkpt>
      <trkpt lat="-21.059676" lon="-44.118601">
        <ele>1297.8867566323288</ele>
        <time>2019-06-21T16:40:46Z</time>
      </trkpt>
      <trkpt lat="-21.059651" lon="-44.118692">
        <ele>1296.8867193111978</ele>
        <time>2019-06-21T16:41:51Z</time>
      </trkpt>
      <trkpt lat="-21.059641" lon="-44.118783">
        <ele>1292.8866504202983</ele>
        <time>2019-06-21T16:42:14Z</time>
      </trkpt>
      <trkpt lat="-21.059601" lon="-44.118864">
        <ele>1289.8866493872356</ele>
        <time>2019-06-21T16:42:37Z</time>
      </trkpt>
      <trkpt lat="-21.059563" lon="-44.118951">
        <ele>1284.8866382697286</ele>
        <time>2019-06-21T16:42:57Z</time>
      </trkpt>
      <trkpt lat="-21.059518" lon="-44.119027">
        <ele>1283.886650778319</ele>
        <time>2019-06-21T16:43:29Z</time>
      </trkpt>
      <trkpt lat="-21.059458" lon="-44.119098">
        <ele>1283.8866984524575</ele>
        <time>2019-06-21T16:44:01Z</time>
      </trkpt>
      <trkpt lat="-21.059398" lon="-44.119168">
        <ele>1280.886745592832</ele>
        <time>2019-06-21T16:45:24Z</time>
      </trkpt>
      <trkpt lat="-21.059359" lon="-44.119250">
        <ele>1275.8867428363494</ele>
        <time>2019-06-21T16:45:48Z</time>
      </trkpt>
      <trkpt lat="-21.059372" lon="-44.119343">
        <ele>1278.8866294965665</ele>
        <time>2019-06-21T16:46:02Z</time>
      </trkpt>
      <trkpt lat="-21.059328" lon="-44.119426">
        <ele>1276.8866352008145</ele>
        <time>2019-06-21T16:46:17Z</time>
      </trkpt>
      <trkpt lat="-21.059276" lon="-44.119501">
        <ele>1270.8866631499009</ele>
        <time>2019-06-21T16:46:51Z</time>
      </trkpt>
      <trkpt lat="-21.059220" lon="-44.119562">
        <ele>1265.8867122275738</ele>
        <time>2019-06-21T16:47:24Z</time>
      </trkpt>
      <trkpt lat="-21.059166" lon="-44.119625">
        <ele>1267.8867563748042</ele>
        <time>2019-06-21T16:47:37Z</time>
      </trkpt>
      <trkpt lat="-21.059112" lon="-44.119700">
        <ele>1264.8867880331832</ele>
        <time>2019-06-21T16:48:01Z</time>
      </trkpt>
      <trkpt lat="-21.059053" lon="-44.119747">
        <ele>1261.8868570975744</ele>
        <time>2019-06-21T16:48:17Z</time>
      </trkpt>
      <trkpt lat="-21.058968" lon="-44.119777">
        <ele>1257.8869915459422</ele>
        <time>2019-06-21T16:49:01Z</time>
      </trkpt>
      <trkpt lat="-21.058886" lon="-44.119774">
        <ele>1251.8871516233407</ele>
        <time>2019-06-21T16:49:29Z</time>
      </trkpt>
      <trkpt lat="-21.058797" lon="-44.119770">
        <ele>1251.8873270841548</ele>
        <time>2019-06-21T16:49:41Z</time>
      </trkpt>
      <trkpt lat="-21.058709" lon="-44.119754">
        <ele>1253.8875087503932</ele>
        <time>2019-06-21T16:49:59Z</time>
      </trkpt>
      <trkpt lat="-21.058633" lon="-44.119708">
        <ele>1250.8876986710961</ele>
        <time>2019-06-21T16:50:23Z</time>
      </trkpt>
      <trkpt lat="-21.058547" lon="-44.119718">
        <ele>1248.8878534430933</ele>
        <time>2019-06-21T16:50:41Z</time>
      </trkpt>
      <trkpt lat="-21.058470" lon="-44.119755">
        <ele>1245.8879659469185</ele>
        <time>2019-06-21T16:50:53Z</time>
      </trkpt>
      <trkpt lat="-21.058394" lon="-44.119769">
        <ele>1245.8880991430563</ele>
        <time>2019-06-21T16:51:07Z</time>
      </trkpt>
      <trkpt lat="-21.058323" lon="-44.119813">
        <ele>1237.8881943373492</ele>
        <time>2019-06-21T16:51:20Z</time>
      </trkpt>
      <trkpt lat="-21.058292" lon="-44.119897">
        <ele>1237.8881766641912</ele>
        <time>2019-06-21T16:51:37Z</time>
      </trkpt>
      <trkpt lat="-21.058334" lon="-44.119980">
        <ele>1238.8880166243061</ele>
        <time>2019-06-21T16:51:46Z</time>
      </trkpt>
      <trkpt lat="-21.058392" lon="-44.120053">
        <ele>1240.8878367949612</ele>
        <time>2019-06-21T16:51:57Z</time>
      </trkpt>
      <trkpt lat="-21.058425" lon="-44.120142">
        <ele>1237.887690967426</ele>
        <time>2019-06-21T16:52:07Z</time>
      </trkpt>
      <trkpt lat="-21.058453" lon="-44.120230">
        <ele>1235.8875553200096</ele>
        <time>2019-06-21T16:52:15Z</time>
      </trkpt>
      <trkpt lat="-21.058484" lon="-44.120306">
        <ele>1234.8874231445025</ele>
        <time>2019-06-21T16:52:21Z</time>
      </trkpt>
      <trkpt lat="-21.058417" lon="-44.120365">
        <ele>1239.8874988759387</ele>
        <time>2019-06-21T16:53:19Z</time>
      </trkpt>
      <trkpt lat="-21.058500" lon="-44.120398">
        <ele>1239.8873077582366</ele>
        <time>2019-06-21T16:57:24Z</time>
      </trkpt>
      <trkpt lat="-21.058548" lon="-44.120478">
        <ele>1235.8871392001593</ele>
        <time>2019-06-21T16:57:34Z</time>
      </trkpt>
      <trkpt lat="-21.058557" lon="-44.120546">
        <ele>1238.8870590997392</ele>
        <time>2019-06-21T16:58:33Z</time>
      </trkpt>
      <trkpt lat="-21.058587" lon="-44.120630">
        <ele>1236.8869230813334</ele>
        <time>2019-06-21T16:58:41Z</time>
      </trkpt>
      <trkpt lat="-21.058605" lon="-44.120712">
        <ele>1238.8868117263278</ele>
        <time>2019-06-21T16:58:51Z</time>
      </trkpt>
      <trkpt lat="-21.058667" lon="-44.120775">
        <ele>1238.8866318892</ele>
        <time>2019-06-21T16:58:58Z</time>
      </trkpt>
      <trkpt lat="-21.058712" lon="-44.120833">
        <ele>1240.886489579193</ele>
        <time>2019-06-21T16:59:04Z</time>
      </trkpt>
      <trkpt lat="-21.058784" lon="-44.120884">
        <ele>1242.8863028975804</ele>
        <time>2019-06-21T16:59:12Z</time>
      </trkpt>
      <trkpt lat="-21.058816" lon="-44.120973">
        <ele>1241.8861573341599</ele>
        <time>2019-06-21T16:59:20Z</time>
      </trkpt>
      <trkpt lat="-21.058853" lon="-44.121057">
        <ele>1243.8860074937754</ele>
        <time>2019-06-21T16:59:29Z</time>
      </trkpt>
      <trkpt lat="-21.058909" lon="-44.121116">
        <ele>1245.8858418825198</ele>
        <time>2019-06-21T16:59:40Z</time>
      </trkpt>
      <trkpt lat="-21.058963" lon="-44.121190">
        <ele>1246.8856677136487</ele>
        <time>2019-06-21T16:59:55Z</time>
      </trkpt>
      <trkpt lat="-21.058960" lon="-44.121279">
        <ele>1247.8855891779913</ele>
        <time>2019-06-21T17:00:01Z</time>
      </trkpt>
      <trkpt lat="-21.058986" lon="-44.121364">
        <ele>1246.885459669341</ele>
        <time>2019-06-21T17:00:08Z</time>
      </trkpt>
      <trkpt lat="-21.059016" lon="-44.121426">
        <ele>1246.8853431486464</ele>
        <time>2019-06-21T17:00:13Z</time>
      </trkpt>
      <trkpt lat="-21.059048" lon="-44.121504">
        <ele>1248.88520788096</ele>
        <time>2019-06-21T17:00:21Z</time>
      </trkpt>
      <trkpt lat="-21.059094" lon="-44.121566">
        <ele>1248.8850577045096</ele>
        <time>2019-06-21T17:00:28Z</time>
      </trkpt>
      <trkpt lat="-21.059149" lon="-44.121619">
        <ele>1251.8849006620253</ele>
        <time>2019-06-21T17:00:35Z</time>
      </trkpt>
      <trkpt lat="-21.059207" lon="-44.121666">
        <ele>1250.8847450065289</ele>
        <time>2019-06-21T17:00:48Z</time>
      </trkpt>
      <trkpt lat="-21.059258" lon="-44.121739">
        <ele>1251.88457536103</ele>
        <time>2019-06-21T17:00:56Z</time>
      </trkpt>
      <trkpt lat="-21.059306" lon="-44.121820">
        <ele>1252.884405099456</ele>
        <time>2019-06-21T17:01:05Z</time>
      </trkpt>
      <trkpt lat="-21.059329" lon="-44.121902">
        <ele>1251.8842822451224</ele>
        <time>2019-06-21T17:01:14Z</time>
      </trkpt>
      <trkpt lat="-21.059356" lon="-44.121991">
        <ele>1258.8841467009133</ele>
        <time>2019-06-21T17:01:44Z</time>
      </trkpt>
      <trkpt lat="-21.059398" lon="-44.122054">
        <ele>1258.8840033037307</ele>
        <time>2019-06-21T17:01:52Z</time>
      </trkpt>
      <trkpt lat="-21.059444" lon="-44.122136">
        <ele>1257.8838354811066</ele>
        <time>2019-06-21T17:02:03Z</time>
      </trkpt>
      <trkpt lat="-21.059512" lon="-44.122194">
        <ele>1257.883647850752</ele>
        <time>2019-06-21T17:02:11Z</time>
      </trkpt>
      <trkpt lat="-21.059553" lon="-44.122257">
        <ele>1256.8835070802713</ele>
        <time>2019-06-21T17:02:18Z</time>
      </trkpt>
      <trkpt lat="-21.059582" lon="-44.122348">
        <ele>1257.8833639774803</ele>
        <time>2019-06-21T17:02:26Z</time>
      </trkpt>
      <trkpt lat="-21.059602" lon="-44.122431">
        <ele>1260.8832460816614</ele>
        <time>2019-06-21T17:02:53Z</time>
      </trkpt>
      <trkpt lat="-21.059605" lon="-44.122522">
        <ele>1260.8831527210052</ele>
        <time>2019-06-21T17:03:02Z</time>
      </trkpt>
      <trkpt lat="-21.059646" lon="-44.122600">
        <ele>1259.882998003497</ele>
        <time>2019-06-21T17:03:11Z</time>
      </trkpt>
      <trkpt lat="-21.059642" lon="-44.122683">
        <ele>1258.8829279288218</ele>
        <time>2019-06-21T17:03:19Z</time>
      </trkpt>
      <trkpt lat="-21.059662" lon="-44.122764">
        <ele>1258.8828092047231</ele>
        <time>2019-06-21T17:03:26Z</time>
      </trkpt>
      <trkpt lat="-21.059686" lon="-44.122849">
        <ele>1259.8826813727046</ele>
        <time>2019-06-21T17:03:33Z</time>
      </trkpt>
      <trkpt lat="-21.059697" lon="-44.122944">
        <ele>1261.8825702871284</ele>
        <time>2019-06-21T17:03:43Z</time>
      </trkpt>
      <trkpt lat="-21.059705" lon="-44.123032">
        <ele>1261.882468922844</ele>
        <time>2019-06-21T17:03:52Z</time>
      </trkpt>
      <trkpt lat="-21.059695" lon="-44.123119">
        <ele>1261.8824058046898</ele>
        <time>2019-06-21T17:03:58Z</time>
      </trkpt>
      <trkpt lat="-21.059682" lon="-44.123197">
        <ele>1261.8823577186029</ele>
        <time>2019-06-21T17:04:03Z</time>
      </trkpt>
      <trkpt lat="-21.059700" lon="-44.123284">
        <ele>1258.8822384234904</ele>
        <time>2019-06-21T17:04:11Z</time>
      </trkpt>
      <trkpt lat="-21.059732" lon="-44.123366">
        <ele>1259.882097633408</ele>
        <time>2019-06-21T17:04:19Z</time>
      </trkpt>
      <trkpt lat="-21.059761" lon="-44.123451">
        <ele>1261.8819599067103</ele>
        <time>2019-06-21T17:04:25Z</time>
      </trkpt>
      <trkpt lat="-21.059750" lon="-44.123539">
        <ele>1258.8818974110502</ele>
        <time>2019-06-21T17:04:36Z</time>
      </trkpt>
      <trkpt lat="-21.059756" lon="-44.123629">
        <ele>1261.8817979141945</ele>
        <time>2019-06-21T17:04:43Z</time>
      </trkpt>
      <trkpt lat="-21.059771" lon="-44.123706">
        <ele>1260.8816955054467</ele>
        <time>2019-06-21T17:04:49Z</time>
      </trkpt>
      <trkpt lat="-21.059760" lon="-44.123798">
        <ele>1253.8816286213175</ele>
        <time>2019-06-21T17:17:02Z</time>
      </trkpt>
      <trkpt lat="-21.059744" lon="-44.123886">
        <ele>1255.8815769726464</ele>
        <time>2019-06-21T17:17:15Z</time>
      </trkpt>
      <trkpt lat="-21.059714" lon="-44.123964">
        <ele>1260.8815611141815</ele>
        <time>2019-06-21T17:17:24Z</time>
      </trkpt>
      <trkpt lat="-21.059742" lon="-44.124051">
        <ele>1257.881422225708</ele>
        <time>2019-06-21T17:17:32Z</time>
      </trkpt>
      <trkpt lat="-21.059752" lon="-44.124142">
        <ele>1256.881315664736</ele>
        <time>2019-06-21T17:17:40Z</time>
      </trkpt>
      <trkpt lat="-21.059760" lon="-44.124228">
        <ele>1261.8812186411324</ele>
        <time>2019-06-21T17:17:49Z</time>
      </trkpt>
      <trkpt lat="-21.059785" lon="-44.124318">
        <ele>1263.8810824619798</ele>
        <time>2019-06-21T17:17:59Z</time>
      </trkpt>
      <trkpt lat="-21.059814" lon="-44.124396">
        <ele>1264.8809504558233</ele>
        <time>2019-06-21T17:18:09Z</time>
      </trkpt>
      <trkpt lat="-21.059824" lon="-44.124476">
        <ele>1266.8808528634886</ele>
        <time>2019-06-21T17:18:19Z</time>
      </trkpt>
      <trkpt lat="-21.059881" lon="-44.124546">
        <ele>1269.8806726575408</ele>
        <time>2019-06-21T17:18:34Z</time>
      </trkpt>
      <trkpt lat="-21.059933" lon="-44.124620">
        <ele>1276.8804987107471</ele>
        <time>2019-06-21T17:18:42Z</time>
      </trkpt>
      <trkpt lat="-21.059984" lon="-44.124690">
        <ele>1273.8803292251614</ele>
        <time>2019-06-21T17:18:49Z</time>
      </trkpt>
      <trkpt lat="-21.060036" lon="-44.124763">
        <ele>1275.8801550501453</ele>
        <time>2019-06-21T17:18:57Z</time>
      </trkpt>
      <trkpt lat="-21.060042" lon="-44.124843">
        <ele>1271.8800666333696</ele>
        <time>2019-06-21T17:19:11Z</time>
      </trkpt>
      <trkpt lat="-21.060077" lon="-44.124931">
        <ele>1274.8799117253393</ele>
        <time>2019-06-21T17:19:27Z</time>
      </trkpt>
      <trkpt lat="-21.060068" lon="-44.125007">
        <ele>1273.8798573840809</ele>
        <time>2019-06-21T17:19:35Z</time>
      </trkpt>
      <trkpt lat="-21.060010" lon="-44.125069">
        <ele>1275.8799144533862</ele>
        <time>2019-06-21T17:19:42Z</time>
      </trkpt>
      <trkpt lat="-21.059989" lon="-44.125142">
        <ele>1275.8798857844513</ele>
        <time>2019-06-21T17:19:49Z</time>
      </trkpt>
      <trkpt lat="-21.059950" lon="-44.125221">
        <ele>1274.8798873198186</ele>
        <time>2019-06-21T17:19:56Z</time>
      </trkpt>
      <trkpt lat="-21.059913" lon="-44.125299">
        <ele>1274.879887881783</ele>
        <time>2019-06-21T17:20:03Z</time>
      </trkpt>
      <trkpt lat="-21.059881" lon="-44.125387">
        <ele>1273.8798676270874</ele>
        <time>2019-06-21T17:20:11Z</time>
      </trkpt>
      <trkpt lat="-21.059864" lon="-44.125478">
        <ele>1275.8798141417292</ele>
        <time>2019-06-21T17:20:18Z</time>
      </trkpt>
      <trkpt lat="-21.059849" lon="-44.125571">
        <ele>1276.8797552007436</ele>
        <time>2019-06-21T17:20:26Z</time>
      </trkpt>
      <trkpt lat="-21.059870" lon="-44.125654">
        <ele>1274.879633022435</ele>
        <time>2019-06-21T17:20:33Z</time>
      </trkpt>
      <trkpt lat="-21.059889" lon="-44.125747">
        <ele>1275.8795065899617</ele>
        <time>2019-06-21T17:20:40Z</time>
      </trkpt>
      <trkpt lat="-21.059947" lon="-44.125803">
        <ele>1276.87933579149</ele>
        <time>2019-06-21T17:20:48Z</time>
      </trkpt>
      <trkpt lat="-21.060020" lon="-44.125857">
        <ele>1277.8791368911145</ele>
        <time>2019-06-21T17:20:57Z</time>
      </trkpt>
      <trkpt lat="-21.060016" lon="-44.125948">
        <ele>1278.8790580708796</ele>
        <time>2019-06-21T17:21:05Z</time>
      </trkpt>
      <trkpt lat="-21.060046" lon="-44.126033">
        <ele>1277.8789147721106</ele>
        <time>2019-06-21T17:21:14Z</time>
      </trkpt>
      <trkpt lat="-21.060111" lon="-44.126091">
        <ele>1279.8787284912487</ele>
        <time>2019-06-21T17:21:28Z</time>
      </trkpt>
      <trkpt lat="-21.060160" lon="-44.126164">
        <ele>1280.878559052132</ele>
        <time>2019-06-21T17:21:38Z</time>
      </trkpt>
      <trkpt lat="-21.060224" lon="-44.126211">
        <ele>1279.8783838010104</ele>
        <time>2019-06-21T17:21:46Z</time>
      </trkpt>
      <trkpt lat="-21.060306" lon="-44.126226">
        <ele>1280.8782059508233</ele>
        <time>2019-06-21T17:21:56Z</time>
      </trkpt>
      <trkpt lat="-21.060377" lon="-44.126276">
        <ele>1280.8780141336626</ele>
        <time>2019-06-21T17:22:05Z</time>
      </trkpt>
      <trkpt lat="-21.060430" lon="-44.126333">
        <ele>1280.877850858896</ele>
        <time>2019-06-21T17:22:26Z</time>
      </trkpt>
      <trkpt lat="-21.060515" lon="-44.126364">
        <ele>1282.8776499186522</ele>
        <time>2019-06-21T17:22:35Z</time>
      </trkpt>
      <trkpt lat="-21.060577" lon="-44.126419">
        <ele>1283.8774716542941</ele>
        <time>2019-06-21T17:22:44Z</time>
      </trkpt>
      <trkpt lat="-21.060654" lon="-44.126442">
        <ele>1283.8772928984804</ele>
        <time>2019-06-21T17:22:53Z</time>
      </trkpt>
      <trkpt lat="-21.060702" lon="-44.126507">
        <ele>1289.8771329687756</ele>
        <time>2019-06-21T17:23:10Z</time>
      </trkpt>
      <trkpt lat="-21.060739" lon="-44.126588">
        <ele>1287.8769774474097</ele>
        <time>2019-06-21T17:23:18Z</time>
      </trkpt>
      <trkpt lat="-21.060774" lon="-44.126671">
        <ele>1288.8768277707536</ele>
        <time>2019-06-21T17:23:28Z</time>
      </trkpt>
      <trkpt lat="-21.060828" lon="-44.126746">
        <ele>1289.8766438896753</ele>
        <time>2019-06-21T17:23:40Z</time>
      </trkpt>
      <trkpt lat="-21.060894" lon="-44.126798">
        <ele>1294.8764609154855</ele>
        <time>2019-06-21T17:23:48Z</time>
      </trkpt>
      <trkpt lat="-21.060955" lon="-44.126846">
        <ele>1294.8762902340825</ele>
        <time>2019-06-21T17:24:02Z</time>
      </trkpt>
      <trkpt lat="-21.061028" lon="-44.126891">
        <ele>1294.876096822375</ele>
        <time>2019-06-21T17:24:11Z</time>
      </trkpt>
      <trkpt lat="-21.061070" lon="-44.126970">
        <ele>1299.8759353590087</ele>
        <time>2019-06-21T17:24:28Z</time>
      </trkpt>
      <trkpt lat="-21.061140" lon="-44.127006">
        <ele>1300.8757588546919</ele>
        <time>2019-06-21T17:24:36Z</time>
      </trkpt>
      <trkpt lat="-21.061222" lon="-44.127038">
        <ele>1298.875560094249</ele>
        <time>2019-06-21T17:24:46Z</time>
      </trkpt>
      <trkpt lat="-21.061261" lon="-44.127122">
        <ele>1303.875397983232</ele>
        <time>2019-06-21T17:25:05Z</time>
      </trkpt>
      <trkpt lat="-21.061285" lon="-44.127203">
        <ele>1308.8752694192704</ele>
        <time>2019-06-21T17:25:13Z</time>
      </trkpt>
      <trkpt lat="-21.061331" lon="-44.127275">
        <ele>1313.8751051517004</ele>
        <time>2019-06-21T17:25:32Z</time>
      </trkpt>
      <trkpt lat="-21.061380" lon="-44.127352">
        <ele>1316.8749302533954</ele>
        <time>2019-06-21T17:25:45Z</time>
      </trkpt>
      <trkpt lat="-21.061452" lon="-44.127408">
        <ele>1314.874728792257</ele>
        <time>2019-06-21T17:25:54Z</time>
      </trkpt>
      <trkpt lat="-21.061506" lon="-44.127474">
        <ele>1307.8745527417593</ele>
        <time>2019-06-21T17:26:10Z</time>
      </trkpt>
      <trkpt lat="-21.061563" lon="-44.127543">
        <ele>1303.874369525726</ele>
        <time>2019-06-21T17:26:20Z</time>
      </trkpt>
      <trkpt lat="-21.061626" lon="-44.127605">
        <ele>1303.8741785200098</ele>
        <time>2019-06-21T17:26:32Z</time>
      </trkpt>
      <trkpt lat="-21.061684" lon="-44.127659">
        <ele>1301.8740065959369</ele>
        <time>2019-06-21T17:26:46Z</time>
      </trkpt>
      <trkpt lat="-21.061763" lon="-44.127701">
        <ele>1304.8738040395847</ele>
        <time>2019-06-21T17:27:00Z</time>
      </trkpt>
      <trkpt lat="-21.061777" lon="-44.127795">
        <ele>1313.873682719144</ele>
        <time>2019-06-21T17:27:25Z</time>
      </trkpt>
      <trkpt lat="-21.061785" lon="-44.127885">
        <ele>1309.873578103256</ele>
        <time>2019-06-21T17:27:35Z</time>
      </trkpt>
      <trkpt lat="-21.061769" lon="-44.127980">
        <ele>1311.8735163315012</ele>
        <time>2019-06-21T17:27:55Z</time>
      </trkpt>
      <trkpt lat="-21.061790" lon="-44.128070">
        <ele>1324.873384761969</ele>
        <time>2019-06-21T17:28:14Z</time>
      </trkpt>
      <trkpt lat="-21.061823" lon="-44.128147">
        <ele>1323.873241505577</ele>
        <time>2019-06-21T17:28:23Z</time>
      </trkpt>
      <trkpt lat="-21.061842" lon="-44.128236">
        <ele>1325.8731149736975</ele>
        <time>2019-06-21T17:28:33Z</time>
      </trkpt>
      <trkpt lat="-21.061868" lon="-44.128316">
        <ele>1320.872981340743</ele>
        <time>2019-06-21T17:28:54Z</time>
      </trkpt>
      <trkpt lat="-21.061901" lon="-44.128393">
        <ele>1321.8728379440633</ele>
        <time>2019-06-21T17:29:03Z</time>
      </trkpt>
      <trkpt lat="-21.061961" lon="-44.128451">
        <ele>1320.8726569814403</ele>
        <time>2019-06-21T17:29:10Z</time>
      </trkpt>
      <trkpt lat="-21.062018" lon="-44.128498">
        <ele>1320.8724938981914</ele>
        <time>2019-06-21T17:29:17Z</time>
      </trkpt>
      <trkpt lat="-21.062069" lon="-44.128550">
        <ele>1322.8723359771884</ele>
        <time>2019-06-21T17:29:24Z</time>
      </trkpt>
      <trkpt lat="-21.062119" lon="-44.128629">
        <ele>1318.8721543061831</ele>
        <time>2019-06-21T17:29:33Z</time>
      </trkpt>
      <trkpt lat="-21.062150" lon="-44.128716">
        <ele>1321.87200471016</ele>
        <time>2019-06-21T17:29:42Z</time>
      </trkpt>
      <trkpt lat="-21.062179" lon="-44.128801">
        <ele>1323.8718605148274</ele>
        <time>2019-06-21T17:29:52Z</time>
      </trkpt>
      <trkpt lat="-21.062197" lon="-44.128872">
        <ele>1325.8717526504488</ele>
        <time>2019-06-21T17:29:59Z</time>
      </trkpt>
      <trkpt lat="-21.062204" lon="-44.128967">
        <ele>1329.8716425569216</ele>
        <time>2019-06-21T17:30:07Z</time>
      </trkpt>
      <trkpt lat="-21.062201" lon="-44.129053">
        <ele>1333.871563884502</ele>
        <time>2019-06-21T17:30:13Z</time>
      </trkpt>
      <trkpt lat="-21.062196" lon="-44.129137">
        <ele>1335.871491550793</ele>
        <time>2019-06-21T17:30:20Z</time>
      </trkpt>
      <trkpt lat="-21.062214" lon="-44.129222">
        <ele>1335.8713692203296</ele>
        <time>2019-06-21T17:30:27Z</time>
      </trkpt>
      <trkpt lat="-21.062231" lon="-44.129308">
        <ele>1335.8712490704963</ele>
        <time>2019-06-21T17:30:33Z</time>
      </trkpt>
      <trkpt lat="-21.062258" lon="-44.129375">
        <ele>1335.871126576552</ele>
        <time>2019-06-21T17:30:39Z</time>
      </trkpt>
      <trkpt lat="-21.062293" lon="-44.129464">
        <ele>1333.8709657052002</ele>
        <time>2019-06-21T17:30:46Z</time>
      </trkpt>
      <trkpt lat="-21.062316" lon="-44.129551">
        <ele>1336.87082976843</ele>
        <time>2019-06-21T17:30:53Z</time>
      </trkpt>
      <trkpt lat="-21.062351" lon="-44.129611">
        <ele>1334.8706971631136</ele>
        <time>2019-06-21T17:30:58Z</time>
      </trkpt>
      <trkpt lat="-21.062424" lon="-44.129661">
        <ele>1338.8704952309713</ele>
        <time>2019-06-21T17:31:06Z</time>
      </trkpt>
      <trkpt lat="-21.062480" lon="-44.129707">
        <ele>1340.8703340911777</ele>
        <time>2019-06-21T17:31:12Z</time>
      </trkpt>
      <trkpt lat="-21.062525" lon="-44.129790">
        <ele>1343.8701579991296</ele>
        <time>2019-06-21T17:31:21Z</time>
      </trkpt>
      <trkpt lat="-21.062565" lon="-44.129851">
        <ele>1342.8700137623061</ele>
        <time>2019-06-21T17:31:27Z</time>
      </trkpt>
      <trkpt lat="-21.062624" lon="-44.129919">
        <ele>1343.8698242725811</ele>
        <time>2019-06-21T17:31:35Z</time>
      </trkpt>
      <trkpt lat="-21.062673" lon="-44.129979">
        <ele>1342.8696613184047</ele>
        <time>2019-06-21T17:31:41Z</time>
      </trkpt>
      <trkpt lat="-21.062723" lon="-44.130052">
        <ele>1339.869484907153</ele>
        <time>2019-06-21T17:31:48Z</time>
      </trkpt>
      <trkpt lat="-21.062770" lon="-44.130108">
        <ele>1337.8693286990183</ele>
        <time>2019-06-21T17:31:53Z</time>
      </trkpt>
      <trkpt lat="-21.062818" lon="-44.130180">
        <ele>1340.869157435872</ele>
        <time>2019-06-21T17:32:00Z</time>
      </trkpt>
      <trkpt lat="-21.062821" lon="-44.130246">
        <ele>1341.8690844313633</ele>
        <time>2019-06-21T17:32:05Z</time>
      </trkpt>
      <trkpt lat="-21.062866" lon="-44.130328">
        <ele>1341.8689081663053</ele>
        <time>2019-06-21T17:32:12Z</time>
      </trkpt>
      <trkpt lat="-21.062889" lon="-44.130401">
        <ele>1343.8687874847983</ele>
        <time>2019-06-21T17:32:18Z</time>
      </trkpt>
      <trkpt lat="-21.062902" lon="-44.130483">
        <ele>1345.8686786615906</ele>
        <time>2019-06-21T17:32:24Z</time>
      </trkpt>
      <trkpt lat="-21.062936" lon="-44.130565">
        <ele>1346.868523660054</ele>
        <time>2019-06-21T17:32:31Z</time>
      </trkpt>
      <trkpt lat="-21.062970" lon="-44.130651">
        <ele>1349.868366403728</ele>
        <time>2019-06-21T17:32:40Z</time>
      </trkpt>
      <trkpt lat="-21.062997" lon="-44.130728">
        <ele>1349.8682328692737</ele>
        <time>2019-06-21T17:32:48Z</time>
      </trkpt>
      <trkpt lat="-21.063014" lon="-44.130796">
        <ele>1350.8681281167942</ele>
        <time>2019-06-21T17:32:54Z</time>
      </trkpt>
      <trkpt lat="-21.063042" lon="-44.130877">
        <ele>1347.8679885619988</ele>
        <time>2019-06-21T17:33:01Z</time>
      </trkpt>
      <trkpt lat="-21.063094" lon="-44.130948">
        <ele>1350.8678079978085</ele>
        <time>2019-06-21T17:33:08Z</time>
      </trkpt>
      <trkpt lat="-21.063113" lon="-44.131036">
        <ele>1352.8676781699392</ele>
        <time>2019-06-21T17:33:15Z</time>
      </trkpt>
      <trkpt lat="-21.063136" lon="-44.131111">
        <ele>1354.8675553505236</ele>
        <time>2019-06-21T17:33:21Z</time>
      </trkpt>
      <trkpt lat="-21.063170" lon="-44.131183">
        <ele>1353.867409668776</ele>
        <time>2019-06-21T17:33:26Z</time>
      </trkpt>
      <trkpt lat="-21.063212" lon="-44.131266">
        <ele>1354.8672379876512</ele>
        <time>2019-06-21T17:33:33Z</time>
      </trkpt>
      <trkpt lat="-21.063261" lon="-44.131336">
        <ele>1357.8670655921974</ele>
        <time>2019-06-21T17:33:40Z</time>
      </trkpt>
      <trkpt lat="-21.063326" lon="-44.131397">
        <ele>1358.8668650007824</ele>
        <time>2019-06-21T17:33:46Z</time>
      </trkpt>
      <trkpt lat="-21.063372" lon="-44.131468">
        <ele>1359.8666984833462</ele>
        <time>2019-06-21T17:33:52Z</time>
      </trkpt>
      <trkpt lat="-21.063408" lon="-44.131529">
        <ele>1360.8665599513238</ele>
        <time>2019-06-21T17:33:57Z</time>
      </trkpt>
      <trkpt lat="-21.063447" lon="-44.131585">
        <ele>1359.8664207879995</ele>
        <time>2019-06-21T17:34:02Z</time>
      </trkpt>
      <trkpt lat="-21.063485" lon="-44.131658">
        <ele>1357.86626656204</ele>
        <time>2019-06-21T17:34:08Z</time>
      </trkpt>
      <trkpt lat="-21.063529" lon="-44.131730">
        <ele>1359.8661018221082</ele>
        <time>2019-06-21T17:34:15Z</time>
      </trkpt>
      <trkpt lat="-21.063546" lon="-44.131809">
        <ele>1361.8659847320077</ele>
        <time>2019-06-21T17:34:21Z</time>
      </trkpt>
      <trkpt lat="-21.063586" lon="-44.131894">
        <ele>1358.8658147487668</ele>
        <time>2019-06-21T17:34:28Z</time>
      </trkpt>
      <trkpt lat="-21.063627" lon="-44.131969">
        <ele>1362.8656519684432</ele>
        <time>2019-06-21T17:35:04Z</time>
      </trkpt>
      <trkpt lat="-21.063667" lon="-44.132035">
        <ele>1359.8655000574702</ele>
        <time>2019-06-21T17:35:09Z</time>
      </trkpt>
      <trkpt lat="-21.063715" lon="-44.132113">
        <ele>1358.8653181835907</ele>
        <time>2019-06-21T17:35:15Z</time>
      </trkpt>
      <trkpt lat="-21.063761" lon="-44.132193">
        <ele>1358.8651408146097</ele>
        <time>2019-06-21T17:35:22Z</time>
      </trkpt>
      <trkpt lat="-21.063816" lon="-44.132258">
        <ele>1358.8649571903566</ele>
        <time>2019-06-21T17:35:29Z</time>
      </trkpt>
      <trkpt lat="-21.063856" lon="-44.132342">
        <ele>1362.8647873580287</ele>
        <time>2019-06-21T17:35:37Z</time>
      </trkpt>
      <trkpt lat="-21.063864" lon="-44.132409">
        <ele>1364.8647007800926</ele>
        <time>2019-06-21T17:35:43Z</time>
      </trkpt>
      <trkpt lat="-21.063860" lon="-44.132503">
        <ele>1369.8646145903936</ele>
        <time>2019-06-21T17:35:59Z</time>
      </trkpt>
      <trkpt lat="-21.063907" lon="-44.132566">
        <ele>1367.8644492652031</ele>
        <time>2019-06-21T17:36:06Z</time>
      </trkpt>
      <trkpt lat="-21.063975" lon="-44.132621">
        <ele>1372.8642504026118</ele>
        <time>2019-06-21T17:36:35Z</time>
      </trkpt>
      <trkpt lat="-21.063995" lon="-44.132714">
        <ele>1369.864111575954</ele>
        <time>2019-06-21T17:37:07Z</time>
      </trkpt>
      <trkpt lat="-21.064053" lon="-44.132758">
        <ele>1367.8639434341856</ele>
        <time>2019-06-21T17:37:13Z</time>
      </trkpt>
      <trkpt lat="-21.064125" lon="-44.132806">
        <ele>1365.86374094869</ele>
        <time>2019-06-21T17:37:19Z</time>
      </trkpt>
      <trkpt lat="-21.064190" lon="-44.132863">
        <ele>1366.8635455429132</ele>
        <time>2019-06-21T17:37:27Z</time>
      </trkpt>
      <trkpt lat="-21.064170" lon="-44.132954">
        <ele>1372.8634946206569</ele>
        <time>2019-06-21T17:38:26Z</time>
      </trkpt>
      <trkpt lat="-21.064232" lon="-44.133014">
        <ele>1373.8633005617805</ele>
        <time>2019-06-21T17:38:32Z</time>
      </trkpt>
      <trkpt lat="-21.064286" lon="-44.133064">
        <ele>1365.863133027287</ele>
        <time>2019-06-21T17:38:51Z</time>
      </trkpt>
      <trkpt lat="-21.064323" lon="-44.133141">
        <ele>1363.862976381029</ele>
        <time>2019-06-21T17:38:57Z</time>
      </trkpt>
      <trkpt lat="-21.064371" lon="-44.133213">
        <ele>1361.862799025485</ele>
        <time>2019-06-21T17:39:04Z</time>
      </trkpt>
      <trkpt lat="-21.064417" lon="-44.133292">
        <ele>1366.862619792244</ele>
        <time>2019-06-21T17:39:13Z</time>
      </trkpt>
      <trkpt lat="-21.064470" lon="-44.133368">
        <ele>1368.862427820947</ele>
        <time>2019-06-21T17:39:24Z</time>
      </trkpt>
      <trkpt lat="-21.064513" lon="-44.133447">
        <ele>1364.86225568279</ele>
        <time>2019-06-21T17:39:32Z</time>
      </trkpt>
      <trkpt lat="-21.064571" lon="-44.133518">
        <ele>1369.8620578648697</ele>
        <time>2019-06-21T17:39:39Z</time>
      </trkpt>
      <trkpt lat="-21.064644" lon="-44.133572">
        <ele>1368.861847324977</ele>
        <time>2019-06-21T17:39:46Z</time>
      </trkpt>
      <trkpt lat="-21.064684" lon="-44.133638">
        <ele>1369.8616919535718</ele>
        <time>2019-06-21T17:39:53Z</time>
      </trkpt>
      <trkpt lat="-21.064746" lon="-44.133704">
        <ele>1367.8614918615756</ele>
        <time>2019-06-21T17:40:02Z</time>
      </trkpt>
      <trkpt lat="-21.064793" lon="-44.133764">
        <ele>1366.8613281486766</ele>
        <time>2019-06-21T17:40:08Z</time>
      </trkpt>
      <trkpt lat="-21.064837" lon="-44.133847">
        <ele>1368.8611479654692</ele>
        <time>2019-06-21T17:40:15Z</time>
      </trkpt>
      <trkpt lat="-21.064863" lon="-44.133926">
        <ele>1368.8610110581358</ele>
        <time>2019-06-21T17:40:21Z</time>
      </trkpt>
      <trkpt lat="-21.064932" lon="-44.133983">
        <ele>1373.8608040966224</ele>
        <time>2019-06-21T17:40:36Z</time>
      </trkpt>
      <trkpt lat="-21.064976" lon="-44.134060">
        <ele>1375.8606286566205</ele>
        <time>2019-06-21T17:40:44Z</time>
      </trkpt>
      <trkpt lat="-21.065029" lon="-44.134123">
        <ele>1376.8604498404243</ele>
        <time>2019-06-21T17:40:51Z</time>
      </trkpt>
      <trkpt lat="-21.065083" lon="-44.134188">
        <ele>1373.8602669288748</ele>
        <time>2019-06-21T17:40:57Z</time>
      </trkpt>
      <trkpt lat="-21.065150" lon="-44.134248">
        <ele>1378.860060210154</ele>
        <time>2019-06-21T17:41:04Z</time>
      </trkpt>
      <trkpt lat="-21.065188" lon="-44.134329">
        <ele>1384.8598931209424</ele>
        <time>2019-06-21T17:41:12Z</time>
      </trkpt>
      <trkpt lat="-21.065237" lon="-44.134388">
        <ele>1378.8597265738297</ele>
        <time>2019-06-21T17:41:19Z</time>
      </trkpt>
      <trkpt lat="-21.065308" lon="-44.134445">
        <ele>1379.8595131615057</ele>
        <time>2019-06-21T17:41:27Z</time>
      </trkpt>
      <trkpt lat="-21.065381" lon="-44.134476">
        <ele>1373.8593249672595</ele>
        <time>2019-06-21T17:41:34Z</time>
      </trkpt>
      <trkpt lat="-21.065443" lon="-44.134529">
        <ele>1371.8591368394789</ele>
        <time>2019-06-21T17:41:41Z</time>
      </trkpt>
      <trkpt lat="-21.065489" lon="-44.134601">
        <ele>1369.8589619523555</ele>
        <time>2019-06-21T17:41:48Z</time>
      </trkpt>
      <trkpt lat="-21.065531" lon="-44.134653">
        <ele>1363.858816641178</ele>
        <time>2019-06-21T17:41:54Z</time>
      </trkpt>
      <trkpt lat="-21.065612" lon="-44.134690">
        <ele>1364.8586038249127</ele>
        <time>2019-06-21T17:42:02Z</time>
      </trkpt>
      <trkpt lat="-21.065689" lon="-44.134697">
        <ele>1367.8584306406817</ele>
        <time>2019-06-21T17:42:10Z</time>
      </trkpt>
      <trkpt lat="-21.065771" lon="-44.134709">
        <ele>1364.858240543941</ele>
        <time>2019-06-21T17:42:16Z</time>
      </trkpt>
      <trkpt lat="-21.065841" lon="-44.134745">
        <ele>1363.8580514196044</ele>
        <time>2019-06-21T17:42:23Z</time>
      </trkpt>
      <trkpt lat="-21.065905" lon="-44.134768">
        <ele>1361.8578895277496</ele>
        <time>2019-06-21T17:42:28Z</time>
      </trkpt>
      <trkpt lat="-21.065969" lon="-44.134817">
        <ele>1365.8576990479069</ele>
        <time>2019-06-21T17:42:34Z</time>
      </trkpt>
      <trkpt lat="-21.066028" lon="-44.134875">
        <ele>1379.8575102902182</ele>
        <time>2019-06-21T17:45:31Z</time>
      </trkpt>
      <trkpt lat="-21.066100" lon="-44.134921">
        <ele>1378.8573070085397</ele>
        <time>2019-06-21T17:45:39Z</time>
      </trkpt>
      <trkpt lat="-21.066046" lon="-44.134862">
        <ele>1382.8574857209878</ele>
        <time>2019-06-21T17:45:48Z</time>
      </trkpt>
      <trkpt lat="-21.066086" lon="-44.134946">
        <ele>1379.8573110033408</ele>
        <time>2019-06-21T17:46:04Z</time>
      </trkpt>
      <trkpt lat="-21.066149" lon="-44.134987">
        <ele>1379.8571322365071</ele>
        <time>2019-06-21T17:46:09Z</time>
      </trkpt>
      <trkpt lat="-21.066221" lon="-44.135017">
        <ele>1378.8569438738523</ele>
        <time>2019-06-21T17:46:15Z</time>
      </trkpt>
      <trkpt lat="-21.066300" lon="-44.135054">
        <ele>1375.8567343867824</ele>
        <time>2019-06-21T17:46:58Z</time>
      </trkpt>
      <trkpt lat="-21.066383" lon="-44.135068">
        <ele>1374.8565401803417</ele>
        <time>2019-06-21T17:47:05Z</time>
      </trkpt>
      <trkpt lat="-21.066472" lon="-44.135079">
        <ele>1377.8563373273153</ele>
        <time>2019-06-21T17:47:12Z</time>
      </trkpt>
      <trkpt lat="-21.066534" lon="-44.135100">
        <ele>1374.8561790313004</ele>
        <time>2019-06-21T17:47:18Z</time>
      </trkpt>
      <trkpt lat="-21.066598" lon="-44.135131">
        <ele>1376.8560072233136</ele>
        <time>2019-06-21T17:47:23Z</time>
      </trkpt>
      <trkpt lat="-21.066663" lon="-44.135175">
        <ele>1373.855821260642</ele>
        <time>2019-06-21T17:47:28Z</time>
      </trkpt>
      <trkpt lat="-21.066733" lon="-44.135208">
        <ele>1371.8556357114514</ele>
        <time>2019-06-21T17:47:33Z</time>
      </trkpt>
      <trkpt lat="-21.066804" lon="-44.135255">
        <ele>1367.8554309039316</ele>
        <time>2019-06-21T17:47:39Z</time>
      </trkpt>
      <trkpt lat="-21.066854" lon="-44.135325">
        <ele>1365.8552469626732</ele>
        <time>2019-06-21T17:47:46Z</time>
      </trkpt>
      <trkpt lat="-21.066898" lon="-44.135406">
        <ele>1366.8550660691271</ele>
        <time>2019-06-21T17:47:55Z</time>
      </trkpt>
      <trkpt lat="-21.066956" lon="-44.135469">
        <ele>1365.8548719569067</ele>
        <time>2019-06-21T17:48:10Z</time>
      </trkpt>
      <trkpt lat="-21.067025" lon="-44.135524">
        <ele>1358.8546634095276</ele>
        <time>2019-06-21T17:48:21Z</time>
      </trkpt>
      <trkpt lat="-21.067052" lon="-44.135611">
        <ele>1360.854512723298</ele>
        <time>2019-06-21T17:48:29Z</time>
      </trkpt>
      <trkpt lat="-21.067047" lon="-44.135698">
        <ele>1357.8544300209296</ele>
        <time>2019-06-21T17:48:40Z</time>
      </trkpt>
      <trkpt lat="-21.067059" lon="-44.135781">
        <ele>1353.8543149126192</ele>
        <time>2019-06-21T17:48:50Z</time>
      </trkpt>
      <trkpt lat="-21.067127" lon="-44.135842">
        <ele>1345.8541016723475</ele>
        <time>2019-06-21T17:49:04Z</time>
      </trkpt>
      <trkpt lat="-21.067145" lon="-44.135933">
        <ele>1348.8539639196508</ele>
        <time>2019-06-21T17:49:12Z</time>
      </trkpt>
      <trkpt lat="-21.067125" lon="-44.136007">
        <ele>1347.8539281598</ele>
        <time>2019-06-21T17:49:20Z</time>
      </trkpt>
      <trkpt lat="-21.067096" lon="-44.136093">
        <ele>1351.8539003478108</ele>
        <time>2019-06-21T17:49:27Z</time>
      </trkpt>
      <trkpt lat="-21.067086" lon="-44.136186">
        <ele>1348.85382122251</ele>
        <time>2019-06-21T17:49:35Z</time>
      </trkpt>
      <trkpt lat="-21.067123" lon="-44.136264">
        <ele>1345.8536581261221</ele>
        <time>2019-06-21T17:49:40Z</time>
      </trkpt>
      <trkpt lat="-21.067176" lon="-44.136336">
        <ele>1344.853463348416</ele>
        <time>2019-06-21T17:49:50Z</time>
      </trkpt>
      <trkpt lat="-21.067149" lon="-44.136423">
        <ele>1346.8534299697997</ele>
        <time>2019-06-21T17:50:20Z</time>
      </trkpt>
      <trkpt lat="-21.067113" lon="-44.136505">
        <ele>1344.853420712592</ele>
        <time>2019-06-21T17:50:30Z</time>
      </trkpt>
      <trkpt lat="-21.067112" lon="-44.136598">
        <ele>1343.85332379006</ele>
        <time>2019-06-21T17:50:44Z</time>
      </trkpt>
      <trkpt lat="-21.067129" lon="-44.136688">
        <ele>1338.8531878986794</ele>
        <time>2019-06-21T17:50:54Z</time>
      </trkpt>
      <trkpt lat="-21.067164" lon="-44.136760">
        <ele>1328.8530344139788</ele>
        <time>2019-06-21T17:51:02Z</time>
      </trkpt>
      <trkpt lat="-21.067240" lon="-44.136791">
        <ele>1324.8528357499074</ele>
        <time>2019-06-21T17:51:09Z</time>
      </trkpt>
      <trkpt lat="-21.067278" lon="-44.136876">
        <ele>1328.8526600033329</ele>
        <time>2019-06-21T17:51:19Z</time>
      </trkpt>
      <trkpt lat="-21.067352" lon="-44.136925">
        <ele>1323.852443711944</ele>
        <time>2019-06-21T17:51:32Z</time>
      </trkpt>
      <trkpt lat="-21.067423" lon="-44.136968">
        <ele>1322.8522429809457</ele>
        <time>2019-06-21T17:51:47Z</time>
      </trkpt>
      <trkpt lat="-21.067478" lon="-44.136901">
        <ele>1323.852194452027</ele>
        <time>2019-06-21T17:51:57Z</time>
      </trkpt>
      <trkpt lat="-21.067558" lon="-44.136899">
        <ele>1325.8520212725196</ele>
        <time>2019-06-21T17:52:17Z</time>
      </trkpt>
      <trkpt lat="-21.067620" lon="-44.136964">
        <ele>1324.8518162364542</ele>
        <time>2019-06-21T17:52:25Z</time>
      </trkpt>
      <trkpt lat="-21.067692" lon="-44.136911">
        <ele>1321.8517157484655</ele>
        <time>2019-06-21T17:52:34Z</time>
      </trkpt>
      <trkpt lat="-21.067776" lon="-44.136932">
        <ele>1318.8515086420548</ele>
        <time>2019-06-21T17:52:47Z</time>
      </trkpt>
      <trkpt lat="-21.067837" lon="-44.136990">
        <ele>1316.8513112752887</ele>
        <time>2019-06-21T17:52:58Z</time>
      </trkpt>
      <trkpt lat="-21.067869" lon="-44.137069">
        <ele>1311.8511557838747</ele>
        <time>2019-06-21T17:53:13Z</time>
      </trkpt>
      <trkpt lat="-21.067892" lon="-44.137155">
        <ele>1308.8510122530195</ele>
        <time>2019-06-21T17:53:24Z</time>
      </trkpt>
      <trkpt lat="-21.067956" lon="-44.137213">
        <ele>1310.8508097279507</ele>
        <time>2019-06-21T17:55:05Z</time>
      </trkpt>
      <trkpt lat="-21.068024" lon="-44.137260">
        <ele>1306.850607533696</ele>
        <time>2019-06-21T17:55:48Z</time>
      </trkpt>
      <trkpt lat="-21.068081" lon="-44.137324">
        <ele>1301.8504139518143</ele>
        <time>2019-06-21T17:55:58Z</time>
      </trkpt>
      <trkpt lat="-21.068133" lon="-44.137396">
        <ele>1298.8502209895303</ele>
        <time>2019-06-21T17:56:06Z</time>
      </trkpt>
      <trkpt lat="-21.068123" lon="-44.137483">
        <ele>1303.8501481474495</ele>
        <time>2019-06-21T17:56:20Z</time>
      </trkpt>
      <trkpt lat="-21.068140" lon="-44.137577">
        <ele>1305.8500089299366</ele>
        <time>2019-06-21T17:56:50Z</time>
      </trkpt>
      <trkpt lat="-21.068196" lon="-44.137630">
        <ele>1297.8498269562829</ele>
        <time>2019-06-21T17:57:12Z</time>
      </trkpt>
      <trkpt lat="-21.068200" lon="-44.137716">
        <ele>1298.849722653468</ele>
        <time>2019-06-21T17:57:19Z</time>
      </trkpt>
      <trkpt lat="-21.068245" lon="-44.137795">
        <ele>1293.8495380037991</ele>
        <time>2019-06-21T17:57:28Z</time>
      </trkpt>
      <trkpt lat="-21.068273" lon="-44.137875">
        <ele>1294.8493893165498</ele>
        <time>2019-06-21T17:57:39Z</time>
      </trkpt>
      <trkpt lat="-21.068332" lon="-44.137937">
        <ele>1296.8491905025319</ele>
        <time>2019-06-21T17:57:50Z</time>
      </trkpt>
      <trkpt lat="-21.068364" lon="-44.138026">
        <ele>1283.8490230787447</ele>
        <time>2019-06-21T17:58:07Z</time>
      </trkpt>
      <trkpt lat="-21.068391" lon="-44.138116">
        <ele>1298.8488661824106</ele>
        <time>2019-06-21T17:58:18Z</time>
      </trkpt>
      <trkpt lat="-21.068382" lon="-44.138205">
        <ele>1300.848787257116</ele>
        <time>2019-06-21T17:58:29Z</time>
      </trkpt>
      <trkpt lat="-21.068418" lon="-44.138279">
        <ele>1302.8486263151847</ele>
        <time>2019-06-21T17:58:35Z</time>
      </trkpt>
      <trkpt lat="-21.068447" lon="-44.138353">
        <ele>1297.8484824330098</ele>
        <time>2019-06-21T17:58:41Z</time>
      </trkpt>
      <trkpt lat="-21.068475" lon="-44.138424">
        <ele>1295.84834288472</ele>
        <time>2019-06-21T17:58:46Z</time>
      </trkpt>
      <trkpt lat="-21.068510" lon="-44.138500">
        <ele>1291.848182168848</ele>
        <time>2019-06-21T17:58:51Z</time>
      </trkpt>
      <trkpt lat="-21.068579" lon="-44.138549">
        <ele>1284.8479747311585</ele>
        <time>2019-06-21T17:58:56Z</time>
      </trkpt>
      <trkpt lat="-21.068627" lon="-44.138623">
        <ele>1288.8477869566668</ele>
        <time>2019-06-21T17:59:03Z</time>
      </trkpt>
      <trkpt lat="-21.068648" lon="-44.138710">
        <ele>1291.847646262464</ele>
        <time>2019-06-21T17:59:10Z</time>
      </trkpt>
      <trkpt lat="-21.068718" lon="-44.138768">
        <ele>1284.8474260229268</ele>
        <time>2019-06-21T17:59:17Z</time>
      </trkpt>
      <trkpt lat="-21.068780" lon="-44.138824">
        <ele>1282.8472268564549</ele>
        <time>2019-06-21T17:59:25Z</time>
      </trkpt>
      <trkpt lat="-21.068838" lon="-44.138875">
        <ele>1288.8470410771174</ele>
        <time>2019-06-21T17:59:31Z</time>
      </trkpt>
      <trkpt lat="-21.068887" lon="-44.138945">
        <ele>1288.846856485529</ele>
        <time>2019-06-21T17:59:37Z</time>
      </trkpt>
      <trkpt lat="-21.068940" lon="-44.139008">
        <ele>1286.8466680569427</ele>
        <time>2019-06-21T17:59:44Z</time>
      </trkpt>
      <trkpt lat="-21.068990" lon="-44.139069">
        <ele>1288.846489626537</ele>
        <time>2019-06-21T17:59:50Z</time>
      </trkpt>
      <trkpt lat="-21.069033" lon="-44.139125">
        <ele>1287.8463322055597</ele>
        <time>2019-06-21T17:59:55Z</time>
      </trkpt>
      <trkpt lat="-21.069090" lon="-44.139185">
        <ele>1289.8461381111822</ele>
        <time>2019-06-21T18:00:00Z</time>
      </trkpt>
      <trkpt lat="-21.069168" lon="-44.139208">
        <ele>1282.8459393952407</ele>
        <time>2019-06-21T18:00:07Z</time>
      </trkpt>
      <trkpt lat="-21.069229" lon="-44.139271">
        <ele>1282.8457355278545</ele>
        <time>2019-06-21T18:00:14Z</time>
      </trkpt>
      <trkpt lat="-21.069272" lon="-44.139328">
        <ele>1288.8455756458889</ele>
        <time>2019-06-21T18:00:23Z</time>
      </trkpt>
      <trkpt lat="-21.069330" lon="-44.139398">
        <ele>1285.8453691435614</ele>
        <time>2019-06-21T18:00:32Z</time>
      </trkpt>
      <trkpt lat="-21.069363" lon="-44.139477">
        <ele>1283.845207196201</ele>
        <time>2019-06-21T18:00:41Z</time>
      </trkpt>
      <trkpt lat="-21.069409" lon="-44.139559">
        <ele>1281.8450131421305</ele>
        <time>2019-06-21T18:00:48Z</time>
      </trkpt>
      <trkpt lat="-21.069442" lon="-44.139624">
        <ele>1279.8448679052865</ele>
        <time>2019-06-21T18:00:54Z</time>
      </trkpt>
      <trkpt lat="-21.069496" lon="-44.139696">
        <ele>1276.8446678803443</ele>
        <time>2019-06-21T18:01:01Z</time>
      </trkpt>
      <trkpt lat="-21.069543" lon="-44.139777">
        <ele>1279.8444718116366</ele>
        <time>2019-06-21T18:01:09Z</time>
      </trkpt>
      <trkpt lat="-21.069591" lon="-44.139837">
        <ele>1278.8442967583712</ele>
        <time>2019-06-21T18:01:15Z</time>
      </trkpt>
      <trkpt lat="-21.069633" lon="-44.139915">
        <ele>1275.8441168922927</ele>
        <time>2019-06-21T18:01:21Z</time>
      </trkpt>
      <trkpt lat="-21.069683" lon="-44.139982">
        <ele>1274.8439300381972</ele>
        <time>2019-06-21T18:01:27Z</time>
      </trkpt>
      <trkpt lat="-21.069739" lon="-44.140056">
        <ele>1276.8437206995825</ele>
        <time>2019-06-21T18:01:33Z</time>
      </trkpt>
      <trkpt lat="-21.069788" lon="-44.140105">
        <ele>1272.8435579719887</ele>
        <time>2019-06-21T18:01:41Z</time>
      </trkpt>
      <trkpt lat="-21.069863" lon="-44.140155">
        <ele>1271.843334068256</ele>
        <time>2019-06-21T18:01:48Z</time>
      </trkpt>
      <trkpt lat="-21.069927" lon="-44.140222">
        <ele>1266.8431150256488</ele>
        <time>2019-06-21T18:01:56Z</time>
      </trkpt>
      <trkpt lat="-21.069965" lon="-44.140295">
        <ele>1265.842947380423</ele>
        <time>2019-06-21T18:02:02Z</time>
      </trkpt>
      <trkpt lat="-21.069938" lon="-44.140380">
        <ele>1276.8429150029926</ele>
        <time>2019-06-21T18:02:35Z</time>
      </trkpt>
      <trkpt lat="-21.069967" lon="-44.140450">
        <ele>1278.8427691484223</ele>
        <time>2019-06-21T18:02:43Z</time>
      </trkpt>
      <trkpt lat="-21.069994" lon="-44.140521">
        <ele>1277.8426306436634</ele>
        <time>2019-06-21T18:02:50Z</time>
      </trkpt>
      <trkpt lat="-21.070007" lon="-44.140606">
        <ele>1280.842506319996</ele>
        <time>2019-06-21T18:02:58Z</time>
      </trkpt>
      <trkpt lat="-21.070066" lon="-44.140670">
        <ele>1276.842302176978</ele>
        <time>2019-06-21T18:03:06Z</time>
      </trkpt>
      <trkpt lat="-21.070122" lon="-44.140732">
        <ele>1272.8421047764025</ele>
        <time>2019-06-21T18:03:12Z</time>
      </trkpt>
      <trkpt lat="-21.070190" lon="-44.140792">
        <ele>1270.8418846147486</ele>
        <time>2019-06-21T18:03:26Z</time>
      </trkpt>
      <trkpt lat="-21.070251" lon="-44.140847">
        <ele>1272.841685154234</ele>
        <time>2019-06-21T18:03:43Z</time>
      </trkpt>
      <trkpt lat="-21.070258" lon="-44.140926">
        <ele>1277.841581699536</ele>
        <time>2019-06-21T18:03:54Z</time>
      </trkpt>
      <trkpt lat="-21.070286" lon="-44.141012">
        <ele>1283.841420723986</ele>
        <time>2019-06-21T18:04:07Z</time>
      </trkpt>
      <trkpt lat="-21.070292" lon="-44.141093">
        <ele>1282.841315749696</ele>
        <time>2019-06-21T18:04:19Z</time>
      </trkpt>
      <trkpt lat="-21.070305" lon="-44.141184">
        <ele>1283.8411853938687</ele>
        <time>2019-06-21T18:04:30Z</time>
      </trkpt>
      <trkpt lat="-21.070352" lon="-44.141251">
        <ele>1272.8410031301175</ele>
        <time>2019-06-21T18:04:43Z</time>
      </trkpt>
      <trkpt lat="-21.070401" lon="-44.141322">
        <ele>1270.8408115083027</ele>
        <time>2019-06-21T18:04:53Z</time>
      </trkpt>
      <trkpt lat="-21.070446" lon="-44.141386">
        <ele>1268.8406386383729</ele>
        <time>2019-06-21T18:05:01Z</time>
      </trkpt>
      <trkpt lat="-21.070454" lon="-44.141473">
        <ele>1272.8405232573898</ele>
        <time>2019-06-21T18:05:09Z</time>
      </trkpt>
      <trkpt lat="-21.070477" lon="-44.141560">
        <ele>1268.840371734592</ele>
        <time>2019-06-21T18:05:17Z</time>
      </trkpt>
      <trkpt lat="-21.070512" lon="-44.141648">
        <ele>1264.8401927264</ele>
        <time>2019-06-21T18:05:24Z</time>
      </trkpt>
      <trkpt lat="-21.070549" lon="-44.141733">
        <ele>1261.8400140563124</ele>
        <time>2019-06-21T18:05:34Z</time>
      </trkpt>
      <trkpt lat="-21.070605" lon="-44.141805">
        <ele>1256.839805840568</ele>
        <time>2019-06-21T18:05:40Z</time>
      </trkpt>
      <trkpt lat="-21.070636" lon="-44.141868">
        <ele>1255.8396640791684</ele>
        <time>2019-06-21T18:05:44Z</time>
      </trkpt>
      <trkpt lat="-21.070682" lon="-44.141919">
        <ele>1254.8395036875856</ele>
        <time>2019-06-21T18:05:49Z</time>
      </trkpt>
      <trkpt lat="-21.070741" lon="-44.141959">
        <ele>1255.839322625437</ele>
        <time>2019-06-21T18:05:55Z</time>
      </trkpt>
      <trkpt lat="-21.070807" lon="-44.142018">
        <ele>1250.8391055364812</ele>
        <time>2019-06-21T18:06:03Z</time>
      </trkpt>
      <trkpt lat="-21.070865" lon="-44.142086">
        <ele>1251.8388969835623</ele>
        <time>2019-06-21T18:06:10Z</time>
      </trkpt>
      <trkpt lat="-21.070902" lon="-44.142172">
        <ele>1253.838716671072</ele>
        <time>2019-06-21T18:06:16Z</time>
      </trkpt>
      <trkpt lat="-21.070938" lon="-44.142245">
        <ele>1252.8385507858604</ele>
        <time>2019-06-21T18:06:22Z</time>
      </trkpt>
      <trkpt lat="-21.070980" lon="-44.142307">
        <ele>1251.8383839884905</ele>
        <time>2019-06-21T18:06:27Z</time>
      </trkpt>
      <trkpt lat="-21.071016" lon="-44.142360">
        <ele>1251.8382416852598</ele>
        <time>2019-06-21T18:06:31Z</time>
      </trkpt>
      <trkpt lat="-21.071056" lon="-44.142428">
        <ele>1250.8380739476179</ele>
        <time>2019-06-21T18:06:36Z</time>
      </trkpt>
      <trkpt lat="-21.071090" lon="-44.142505">
        <ele>1253.837907973798</ele>
        <time>2019-06-21T18:06:41Z</time>
      </trkpt>
      <trkpt lat="-21.071142" lon="-44.142576">
        <ele>1254.8377101885083</ele>
        <time>2019-06-21T18:06:48Z</time>
      </trkpt>
      <trkpt lat="-21.071185" lon="-44.142660">
        <ele>1258.837516308088</ele>
        <time>2019-06-21T18:06:57Z</time>
      </trkpt>
      <trkpt lat="-21.071216" lon="-44.142746">
        <ele>1259.8373468709826</ele>
        <time>2019-06-21T18:07:05Z</time>
      </trkpt>
      <trkpt lat="-21.071242" lon="-44.142813">
        <ele>1260.8372121455664</ele>
        <time>2019-06-21T18:07:11Z</time>
      </trkpt>
      <trkpt lat="-21.071291" lon="-44.142883">
        <ele>1259.8370190764995</ele>
        <time>2019-06-21T18:07:17Z</time>
      </trkpt>
      <trkpt lat="-21.071332" lon="-44.142961">
        <ele>1261.8368365527745</ele>
        <time>2019-06-21T18:07:24Z</time>
      </trkpt>
      <trkpt lat="-21.071386" lon="-44.143019">
        <ele>1263.8366482740157</ele>
        <time>2019-06-21T18:07:31Z</time>
      </trkpt>
      <trkpt lat="-21.071447" lon="-44.143072">
        <ele>1262.8364468427408</ele>
        <time>2019-06-21T18:07:38Z</time>
      </trkpt>
      <trkpt lat="-21.071499" lon="-44.143133">
        <ele>1251.8362582529594</ele>
        <time>2019-06-21T18:07:44Z</time>
      </trkpt>
      <trkpt lat="-21.071566" lon="-44.143190">
        <ele>1249.8360403476822</ele>
        <time>2019-06-21T18:07:50Z</time>
      </trkpt>
      <trkpt lat="-21.071630" lon="-44.143239">
        <ele>1253.8358377928573</ele>
        <time>2019-06-21T18:07:58Z</time>
      </trkpt>
      <trkpt lat="-21.071651" lon="-44.143327">
        <ele>1261.8356870607195</ele>
        <time>2019-06-21T18:08:13Z</time>
      </trkpt>
      <trkpt lat="-21.071703" lon="-44.143386">
        <ele>1270.8355004688224</ele>
        <time>2019-06-21T18:08:42Z</time>
      </trkpt>
      <trkpt lat="-21.071744" lon="-44.143451">
        <ele>1277.8353311051494</ele>
        <time>2019-06-21T18:08:48Z</time>
      </trkpt>
      <trkpt lat="-21.071774" lon="-44.143527">
        <ele>1276.8351756599889</ele>
        <time>2019-06-21T18:08:57Z</time>
      </trkpt>
      <trkpt lat="-21.071810" lon="-44.143614">
        <ele>1278.8349918798544</ele>
        <time>2019-06-21T18:09:17Z</time>
      </trkpt>
      <trkpt lat="-21.071867" lon="-44.143685">
        <ele>1277.8347808717335</ele>
        <time>2019-06-21T18:09:36Z</time>
      </trkpt>
      <trkpt lat="-21.071895" lon="-44.143770">
        <ele>1280.8346178035372</ele>
        <time>2019-06-21T18:09:44Z</time>
      </trkpt>
      <trkpt lat="-21.071936" lon="-44.143848">
        <ele>1278.8344345194885</ele>
        <time>2019-06-21T18:10:06Z</time>
      </trkpt>
      <trkpt lat="-21.071996" lon="-44.143900">
        <ele>1279.834234682428</ele>
        <time>2019-06-21T18:10:19Z</time>
      </trkpt>
      <trkpt lat="-21.072047" lon="-44.143977">
        <ele>1276.8340297641953</ele>
        <time>2019-06-21T18:11:34Z</time>
      </trkpt>
      <trkpt lat="-21.072098" lon="-44.144048">
        <ele>1278.833832219832</ele>
        <time>2019-06-21T18:11:43Z</time>
      </trkpt>
      <trkpt lat="-21.072124" lon="-44.144106">
        <ele>1279.833703405158</ele>
        <time>2019-06-21T18:11:47Z</time>
      </trkpt>
      <trkpt lat="-21.072160" lon="-44.144188">
        <ele>1289.8335256110431</ele>
        <time>2019-06-21T18:11:54Z</time>
      </trkpt>
      <trkpt lat="-21.072156" lon="-44.144264">
        <ele>1293.8334485971257</ele>
        <time>2019-06-21T18:12:01Z</time>
      </trkpt>
      <trkpt lat="-21.072205" lon="-44.144335">
        <ele>1292.8332523149775</ele>
        <time>2019-06-21T18:12:08Z</time>
      </trkpt>
      <trkpt lat="-21.072245" lon="-44.144419">
        <ele>1302.833063651436</ele>
        <time>2019-06-21T18:12:32Z</time>
      </trkpt>
      <trkpt lat="-21.072279" lon="-44.144505">
        <ele>1299.8328844759706</ele>
        <time>2019-06-21T18:12:40Z</time>
      </trkpt>
      <trkpt lat="-21.072318" lon="-44.144586">
        <ele>1301.8327008118376</ele>
        <time>2019-06-21T18:12:50Z</time>
      </trkpt>
      <trkpt lat="-21.072390" lon="-44.144629">
        <ele>1297.8324856015001</ele>
        <time>2019-06-21T18:12:56Z</time>
      </trkpt>
      <trkpt lat="-21.072443" lon="-44.144672">
        <ele>1296.8323118426915</ele>
        <time>2019-06-21T18:13:01Z</time>
      </trkpt>
      <trkpt lat="-21.072504" lon="-44.144745">
        <ele>1290.8320854943672</ele>
        <time>2019-06-21T18:13:06Z</time>
      </trkpt>
      <trkpt lat="-21.072556" lon="-44.144811">
        <ele>1291.8318901849177</ele>
        <time>2019-06-21T18:13:12Z</time>
      </trkpt>
      <trkpt lat="-21.072615" lon="-44.144882">
        <ele>1292.831670180936</ele>
        <time>2019-06-21T18:13:19Z</time>
      </trkpt>
      <trkpt lat="-21.072678" lon="-44.144935">
        <ele>1288.8314623938982</ele>
        <time>2019-06-21T18:13:25Z</time>
      </trkpt>
      <trkpt lat="-21.072660" lon="-44.144847">
        <ele>1289.8316053966473</ele>
        <time>2019-06-21T18:13:47Z</time>
      </trkpt>
      <trkpt lat="-21.072689" lon="-44.144918">
        <ele>1293.8314582806502</ele>
        <time>2019-06-21T18:14:05Z</time>
      </trkpt>
      <trkpt lat="-21.072750" lon="-44.144977">
        <ele>1292.83124735149</ele>
        <time>2019-06-21T18:14:12Z</time>
      </trkpt>
      <trkpt lat="-21.072801" lon="-44.145032">
        <ele>1289.8310646370278</ele>
        <time>2019-06-21T18:14:18Z</time>
      </trkpt>
      <trkpt lat="-21.072863" lon="-44.145080">
        <ele>1288.8308644587792</ele>
        <time>2019-06-21T18:14:23Z</time>
      </trkpt>
      <trkpt lat="-21.072893" lon="-44.145164">
        <ele>1290.8306968541306</ele>
        <time>2019-06-21T18:14:33Z</time>
      </trkpt>
      <trkpt lat="-21.072878" lon="-44.145249">
        <ele>1288.8306319968528</ele>
        <time>2019-06-21T18:14:55Z</time>
      </trkpt>
      <trkpt lat="-21.072945" lon="-44.145304">
        <ele>1288.8304132586202</ele>
        <time>2019-06-21T18:15:03Z</time>
      </trkpt>
      <trkpt lat="-21.073020" lon="-44.145349">
        <ele>1285.8301848092538</ele>
        <time>2019-06-21T18:15:09Z</time>
      </trkpt>
      <trkpt lat="-21.073071" lon="-44.145418">
        <ele>1285.8299870453322</ele>
        <time>2019-06-21T18:15:18Z</time>
      </trkpt>
      <trkpt lat="-21.073111" lon="-44.145499">
        <ele>1289.8297980645389</ele>
        <time>2019-06-21T18:15:30Z</time>
      </trkpt>
      <trkpt lat="-21.073146" lon="-44.145582">
        <ele>1286.8296204932772</ele>
        <time>2019-06-21T18:15:54Z</time>
      </trkpt>
      <trkpt lat="-21.073208" lon="-44.145649">
        <ele>1275.8293973664884</ele>
        <time>2019-06-21T18:16:11Z</time>
      </trkpt>
      <trkpt lat="-21.073276" lon="-44.145708">
        <ele>1265.8291703075213</ele>
        <time>2019-06-21T18:16:20Z</time>
      </trkpt>
      <trkpt lat="-21.073321" lon="-44.145769">
        <ele>1262.8289930224994</ele>
        <time>2019-06-21T18:16:28Z</time>
      </trkpt>
      <trkpt lat="-21.073336" lon="-44.145837">
        <ele>1264.828879530984</ele>
        <time>2019-06-21T18:16:34Z</time>
      </trkpt>
      <trkpt lat="-21.073325" lon="-44.145930">
        <ele>1264.8287943397038</ele>
        <time>2019-06-21T18:16:42Z</time>
      </trkpt>
      <trkpt lat="-21.073366" lon="-44.146000">
        <ele>1265.8286164429321</ele>
        <time>2019-06-21T18:16:52Z</time>
      </trkpt>
      <trkpt lat="-21.073397" lon="-44.146087">
        <ele>1264.8284431428553</ele>
        <time>2019-06-21T18:16:59Z</time>
      </trkpt>
      <trkpt lat="-21.073460" lon="-44.146149">
        <ele>1269.828222542733</ele>
        <time>2019-06-21T18:17:06Z</time>
      </trkpt>
      <trkpt lat="-21.073505" lon="-44.146208">
        <ele>1273.8280486310912</ele>
        <time>2019-06-21T18:17:12Z</time>
      </trkpt>
      <trkpt lat="-21.073538" lon="-44.146285">
        <ele>1273.827879548269</ele>
        <time>2019-06-21T18:17:18Z</time>
      </trkpt>
      <trkpt lat="-21.073608" lon="-44.146314">
        <ele>1265.8276826062734</ele>
        <time>2019-06-21T18:17:25Z</time>
      </trkpt>
      <trkpt lat="-21.073685" lon="-44.146356">
        <ele>1265.8274517749303</ele>
        <time>2019-06-21T18:17:32Z</time>
      </trkpt>
      <trkpt lat="-21.073743" lon="-44.146421">
        <ele>1264.8272394994597</ele>
        <time>2019-06-21T18:17:39Z</time>
      </trkpt>
      <trkpt lat="-21.073812" lon="-44.146481">
        <ele>1255.827007813957</ele>
        <time>2019-06-21T18:20:29Z</time>
      </trkpt>
      <trkpt lat="-21.073730" lon="-44.146453">
        <ele>1265.8272313876607</ele>
        <time>2019-06-21T18:23:12Z</time>
      </trkpt>
      <trkpt lat="-21.073653" lon="-44.146491">
        <ele>1261.8273687963367</ele>
        <time>2019-06-21T18:33:11Z</time>
      </trkpt>
      <trkpt lat="-21.073598" lon="-44.146566">
        <ele>1261.8274086872773</ele>
        <time>2019-06-21T18:33:19Z</time>
      </trkpt>
      <trkpt lat="-21.073567" lon="-44.146654">
        <ele>1259.827378033731</ele>
        <time>2019-06-21T18:33:31Z</time>
      </trkpt>
      <trkpt lat="-21.073525" lon="-44.146725">
        <ele>1263.8273920046793</ele>
        <time>2019-06-21T18:33:40Z</time>
      </trkpt>
      <trkpt lat="-21.073467" lon="-44.146788">
        <ele>1258.827454228795</ele>
        <time>2019-06-21T18:33:50Z</time>
      </trkpt>
      <trkpt lat="-21.073492" lon="-44.146866">
        <ele>1285.8273053229782</ele>
        <time>2019-06-21T18:34:44Z</time>
      </trkpt>
      <trkpt lat="-21.073563" lon="-44.146908">
        <ele>1292.8270875216292</ele>
        <time>2019-06-21T18:35:06Z</time>
      </trkpt>
      <trkpt lat="-21.073638" lon="-44.146933">
        <ele>1301.826882951394</ele>
        <time>2019-06-21T18:35:24Z</time>
      </trkpt>
      <trkpt lat="-21.073712" lon="-44.146952">
        <ele>1295.8266864570624</ele>
        <time>2019-06-21T18:35:44Z</time>
      </trkpt>
      <trkpt lat="-21.073781" lon="-44.147009">
        <ele>1291.826455993993</ele>
        <time>2019-06-21T18:35:53Z</time>
      </trkpt>
      <trkpt lat="-21.073862" lon="-44.147030">
        <ele>1284.82624112224</ele>
        <time>2019-06-21T18:36:18Z</time>
      </trkpt>
      <trkpt lat="-21.073936" lon="-44.147067">
        <ele>1283.826023501341</ele>
        <time>2019-06-21T18:36:29Z</time>
      </trkpt>
      <trkpt lat="-21.074000" lon="-44.147118">
        <ele>1284.825810519052</ele>
        <time>2019-06-21T18:36:40Z</time>
      </trkpt>
      <trkpt lat="-21.074048" lon="-44.147187">
        <ele>1289.825616019455</ele>
        <time>2019-06-21T18:36:58Z</time>
      </trkpt>
      <trkpt lat="-21.074082" lon="-44.147275">
        <ele>1290.8254317585127</ele>
        <time>2019-06-21T18:37:10Z</time>
      </trkpt>
      <trkpt lat="-21.074123" lon="-44.147339">
        <ele>1289.825261723864</ele>
        <time>2019-06-21T18:37:17Z</time>
      </trkpt>
      <trkpt lat="-21.074162" lon="-44.147406">
        <ele>1289.825090519022</ele>
        <time>2019-06-21T18:37:25Z</time>
      </trkpt>
      <trkpt lat="-21.074228" lon="-44.147468">
        <ele>1288.824860629424</ele>
        <time>2019-06-21T18:37:34Z</time>
      </trkpt>
      <trkpt lat="-21.074248" lon="-44.147541">
        <ele>1289.8247262509055</ele>
        <time>2019-06-21T18:38:04Z</time>
      </trkpt>
      <trkpt lat="-21.074307" lon="-44.147606">
        <ele>1288.824510049784</ele>
        <time>2019-06-21T18:38:13Z</time>
      </trkpt>
      <trkpt lat="-21.074320" lon="-44.147700">
        <ele>1293.824366738176</ele>
        <time>2019-06-21T18:38:37Z</time>
      </trkpt>
      <trkpt lat="-21.074351" lon="-44.147781">
        <ele>1293.8241980701994</ele>
        <time>2019-06-21T18:38:46Z</time>
      </trkpt>
      <trkpt lat="-21.074388" lon="-44.147841">
        <ele>1290.82403952278</ele>
        <time>2019-06-21T18:38:54Z</time>
      </trkpt>
      <trkpt lat="-21.074446" lon="-44.147914">
        <ele>1292.8238141921474</ele>
        <time>2019-06-21T18:39:03Z</time>
      </trkpt>
      <trkpt lat="-21.074457" lon="-44.148006">
        <ele>1292.8236785599033</ele>
        <time>2019-06-21T18:39:15Z</time>
      </trkpt>
      <trkpt lat="-21.074477" lon="-44.148094">
        <ele>1291.8235275175562</ele>
        <time>2019-06-21T18:39:30Z</time>
      </trkpt>
      <trkpt lat="-21.074501" lon="-44.148168">
        <ele>1294.8233814925136</ele>
        <time>2019-06-21T18:39:38Z</time>
      </trkpt>
      <trkpt lat="-21.074511" lon="-44.148260">
        <ele>1297.8232483426734</ele>
        <time>2019-06-21T18:39:49Z</time>
      </trkpt>
      <trkpt lat="-21.074530" lon="-44.148338">
        <ele>1294.82310978598</ele>
        <time>2019-06-21T18:40:00Z</time>
      </trkpt>
      <trkpt lat="-21.074536" lon="-44.148428">
        <ele>1296.8229879727294</ele>
        <time>2019-06-21T18:40:15Z</time>
      </trkpt>
      <trkpt lat="-21.074569" lon="-44.148512">
        <ele>1298.8228105719206</ele>
        <time>2019-06-21T18:40:27Z</time>
      </trkpt>
      <trkpt lat="-21.074588" lon="-44.148602">
        <ele>1299.8226578985914</ele>
        <time>2019-06-21T18:40:35Z</time>
      </trkpt>
      <trkpt lat="-21.074631" lon="-44.148681">
        <ele>1299.822459421315</ele>
        <time>2019-06-21T18:40:42Z</time>
      </trkpt>
      <trkpt lat="-21.074701" lon="-44.148723">
        <ele>1296.8222442493968</ele>
        <time>2019-06-21T18:40:48Z</time>
      </trkpt>
      <trkpt lat="-21.074759" lon="-44.148795">
        <ele>1298.822018681617</ele>
        <time>2019-06-21T18:40:57Z</time>
      </trkpt>
      <trkpt lat="-21.074801" lon="-44.148880">
        <ele>1296.8218185114908</ele>
        <time>2019-06-21T18:41:08Z</time>
      </trkpt>
      <trkpt lat="-21.074840" lon="-44.148963">
        <ele>1299.8216262196697</ele>
        <time>2019-06-21T18:41:16Z</time>
      </trkpt>
      <trkpt lat="-21.074889" lon="-44.149042">
        <ele>1302.8214151338154</ele>
        <time>2019-06-21T18:41:36Z</time>
      </trkpt>
      <trkpt lat="-21.074914" lon="-44.149119">
        <ele>1300.821263222244</ele>
        <time>2019-06-21T18:41:44Z</time>
      </trkpt>
      <trkpt lat="-21.074934" lon="-44.149208">
        <ele>1302.8211085620635</ele>
        <time>2019-06-21T18:41:57Z</time>
      </trkpt>
      <trkpt lat="-21.074897" lon="-44.149290">
        <ele>1308.8210983902327</ele>
        <time>2019-06-21T18:42:15Z</time>
      </trkpt>
      <trkpt lat="-21.074846" lon="-44.149360">
        <ele>1310.8211369784144</ele>
        <time>2019-06-21T18:42:37Z</time>
      </trkpt>
      <trkpt lat="-21.074794" lon="-44.149419">
        <ele>1313.8211905213673</ele>
        <time>2019-06-21T18:42:45Z</time>
      </trkpt>
      <trkpt lat="-21.074791" lon="-44.149513">
        <ele>1311.8210852086902</ele>
        <time>2019-06-21T18:42:56Z</time>
      </trkpt>
      <trkpt lat="-21.074768" lon="-44.149582">
        <ele>1315.8210563696489</ele>
        <time>2019-06-21T18:43:04Z</time>
      </trkpt>
      <trkpt lat="-21.074748" lon="-44.149667">
        <ele>1316.821004493872</ele>
        <time>2019-06-21T18:43:14Z</time>
      </trkpt>
      <trkpt lat="-21.074754" lon="-44.149762">
        <ele>1317.8208743451864</ele>
        <time>2019-06-21T18:43:22Z</time>
      </trkpt>
      <trkpt lat="-21.074822" lon="-44.149822">
        <ele>1319.8206406519175</ele>
        <time>2019-06-21T18:43:29Z</time>
      </trkpt>
      <trkpt lat="-21.074899" lon="-44.149860">
        <ele>1318.8204092147541</ele>
        <time>2019-06-21T18:43:36Z</time>
      </trkpt>
      <trkpt lat="-21.074940" lon="-44.149934">
        <ele>1318.8202244558408</ele>
        <time>2019-06-21T18:43:42Z</time>
      </trkpt>
      <trkpt lat="-21.074978" lon="-44.150016">
        <ele>1315.8200342057444</ele>
        <time>2019-06-21T18:43:50Z</time>
      </trkpt>
      <trkpt lat="-21.075056" lon="-44.150043">
        <ele>1315.8198144416097</ele>
        <time>2019-06-21T18:44:02Z</time>
      </trkpt>
      <trkpt lat="-21.075142" lon="-44.150025">
        <ele>1315.819628063228</ele>
        <time>2019-06-21T18:44:24Z</time>
      </trkpt>
      <trkpt lat="-21.075232" lon="-44.150024">
        <ele>1317.8194129889384</ele>
        <time>2019-06-21T18:44:34Z</time>
      </trkpt>
      <trkpt lat="-21.075268" lon="-44.150112">
        <ele>1318.819223121317</ele>
        <time>2019-06-21T18:44:45Z</time>
      </trkpt>
      <trkpt lat="-21.075323" lon="-44.150168">
        <ele>1320.8190232928512</ele>
        <time>2019-06-21T18:44:57Z</time>
      </trkpt>
      <trkpt lat="-21.075352" lon="-44.150240">
        <ele>1319.8188645250925</ele>
        <time>2019-06-21T18:45:05Z</time>
      </trkpt>
      <trkpt lat="-21.075371" lon="-44.150327">
        <ele>1325.8187161004278</ele>
        <time>2019-06-21T18:45:22Z</time>
      </trkpt>
      <trkpt lat="-21.075419" lon="-44.150397">
        <ele>1327.818515458477</ele>
        <time>2019-06-21T18:45:32Z</time>
      </trkpt>
      <trkpt lat="-21.075498" lon="-44.150439">
        <ele>1326.8182734175489</ele>
        <time>2019-06-21T18:45:46Z</time>
      </trkpt>
      <trkpt lat="-21.075530" lon="-44.150529">
        <ele>1323.818087509848</ele>
        <time>2019-06-21T18:45:58Z</time>
      </trkpt>
      <trkpt lat="-21.075601" lon="-44.150587">
        <ele>1321.81784876207</ele>
        <time>2019-06-21T18:46:10Z</time>
      </trkpt>
      <trkpt lat="-21.075669" lon="-44.150646">
        <ele>1322.8176130072109</ele>
        <time>2019-06-21T18:46:21Z</time>
      </trkpt>
      <trkpt lat="-21.075682" lon="-44.150736">
        <ele>1325.8174728133915</ele>
        <time>2019-06-21T18:46:34Z</time>
      </trkpt>
      <trkpt lat="-21.075705" lon="-44.150815">
        <ele>1324.8173215297613</ele>
        <time>2019-06-21T18:46:43Z</time>
      </trkpt>
      <trkpt lat="-21.075689" lon="-44.150889">
        <ele>1325.8172700418688</ele>
        <time>2019-06-21T18:46:52Z</time>
      </trkpt>
      <trkpt lat="-21.075687" lon="-44.150961">
        <ele>1324.8171865903141</ele>
        <time>2019-06-21T18:46:59Z</time>
      </trkpt>
      <trkpt lat="-21.075687" lon="-44.151051">
        <ele>1323.817079535233</ele>
        <time>2019-06-21T18:47:07Z</time>
      </trkpt>
      <trkpt lat="-21.075686" lon="-44.151133">
        <ele>1322.8169816849074</ele>
        <time>2019-06-21T18:47:17Z</time>
      </trkpt>
      <trkpt lat="-21.075717" lon="-44.151221">
        <ele>1322.8167999930292</ele>
        <time>2019-06-21T18:47:24Z</time>
      </trkpt>
      <trkpt lat="-21.075767" lon="-44.151295">
        <ele>1327.816588218244</ele>
        <time>2019-06-21T18:47:32Z</time>
      </trkpt>
      <trkpt lat="-21.075788" lon="-44.151380">
        <ele>1328.8164354006467</ele>
        <time>2019-06-21T18:47:41Z</time>
      </trkpt>
      <trkpt lat="-21.075828" lon="-44.151453">
        <ele>1329.816249950656</ele>
        <time>2019-06-21T18:47:52Z</time>
      </trkpt>
      <trkpt lat="-21.075860" lon="-44.151541">
        <ele>1320.816064140471</ele>
        <time>2019-06-21T18:48:25Z</time>
      </trkpt>
      <trkpt lat="-21.075871" lon="-44.151627">
        <ele>1321.8159346473378</ele>
        <time>2019-06-21T18:48:37Z</time>
      </trkpt>
      <trkpt lat="-21.075854" lon="-44.151721">
        <ele>1324.8158619269889</ele>
        <time>2019-06-21T18:48:51Z</time>
      </trkpt>
      <trkpt lat="-21.075835" lon="-44.151811">
        <ele>1318.815798847712</ele>
        <time>2019-06-21T18:49:37Z</time>
      </trkpt>
      <trkpt lat="-21.075838" lon="-44.151895">
        <ele>1323.8156878126551</ele>
        <time>2019-06-21T18:49:48Z</time>
      </trkpt>
      <trkpt lat="-21.075868" lon="-44.151980">
        <ele>1320.815514032048</ele>
        <time>2019-06-21T18:49:59Z</time>
      </trkpt>
      <trkpt lat="-21.075899" lon="-44.152064">
        <ele>1316.8153354248193</ele>
        <time>2019-06-21T18:50:07Z</time>
      </trkpt>
      <trkpt lat="-21.075975" lon="-44.152110">
        <ele>1315.815095084</ele>
        <time>2019-06-21T18:50:20Z</time>
      </trkpt>
      <trkpt lat="-21.076057" lon="-44.152084">
        <ele>1315.8149272769417</ele>
        <time>2019-06-21T18:50:57Z</time>
      </trkpt>
      <trkpt lat="-21.076129" lon="-44.152118">
        <ele>1310.8147112708377</ele>
        <time>2019-06-21T18:51:15Z</time>
      </trkpt>
      <trkpt lat="-21.076187" lon="-44.152163">
        <ele>1307.8145146418658</ele>
        <time>2019-06-21T18:51:21Z</time>
      </trkpt>
      <trkpt lat="-21.076271" lon="-44.152142">
        <ele>1312.8143353975015</ele>
        <time>2019-06-21T18:51:36Z</time>
      </trkpt>
      <trkpt lat="-21.076322" lon="-44.152063">
        <ele>1314.8143096683855</ele>
        <time>2019-06-21T18:51:51Z</time>
      </trkpt>
      <trkpt lat="-21.076362" lon="-44.151985">
        <ele>1315.8143055787075</ele>
        <time>2019-06-21T18:52:01Z</time>
      </trkpt>
      <trkpt lat="-21.076436" lon="-44.151937">
        <ele>1318.8141849400831</ele>
        <time>2019-06-21T18:52:09Z</time>
      </trkpt>
      <trkpt lat="-21.076508" lon="-44.151914">
        <ele>1316.8140370915853</ele>
        <time>2019-06-21T18:52:17Z</time>
      </trkpt>
      <trkpt lat="-21.076582" lon="-44.151968">
        <ele>1319.813790932092</ele>
        <time>2019-06-21T18:52:39Z</time>
      </trkpt>
      <trkpt lat="-21.076637" lon="-44.152033">
        <ele>1314.8135773766662</ele>
        <time>2019-06-21T18:52:51Z</time>
      </trkpt>
      <trkpt lat="-21.076627" lon="-44.152121">
        <ele>1318.8134949087312</ele>
        <time>2019-06-21T18:52:58Z</time>
      </trkpt>
      <trkpt lat="-21.076628" lon="-44.152210">
        <ele>1322.8133825016378</ele>
        <time>2019-06-21T18:53:16Z</time>
      </trkpt>
      <trkpt lat="-21.076599" lon="-44.152283">
        <ele>1317.8133648775706</ele>
        <time>2019-06-21T18:53:42Z</time>
      </trkpt>
      <trkpt lat="-21.076546" lon="-44.152359">
        <ele>1318.8134011802713</ele>
        <time>2019-06-21T18:53:47Z</time>
      </trkpt>
      <trkpt lat="-21.076529" lon="-44.152448">
        <ele>1312.813332546741</ele>
        <time>2019-06-21T18:53:58Z</time>
      </trkpt>
      <trkpt lat="-21.076520" lon="-44.152539">
        <ele>1312.8132423520353</ele>
        <time>2019-06-21T18:54:10Z</time>
      </trkpt>
      <trkpt lat="-21.076518" lon="-44.152632">
        <ele>1309.81313630718</ele>
        <time>2019-06-21T18:54:20Z</time>
      </trkpt>
      <trkpt lat="-21.076519" lon="-44.152715">
        <ele>1306.8130305375878</ele>
        <time>2019-06-21T18:54:27Z</time>
      </trkpt>
      <trkpt lat="-21.076525" lon="-44.152796">
        <ele>1304.81291694492</ele>
        <time>2019-06-21T18:54:35Z</time>
      </trkpt>
      <trkpt lat="-21.076518" lon="-44.152882">
        <ele>1302.812829747468</ele>
        <time>2019-06-21T18:54:42Z</time>
      </trkpt>
      <trkpt lat="-21.076509" lon="-44.152972">
        <ele>1301.8127397545961</ele>
        <time>2019-06-21T18:54:51Z</time>
      </trkpt>
      <trkpt lat="-21.076521" lon="-44.153042">
        <ele>1300.8126259044889</ele>
        <time>2019-06-21T18:54:56Z</time>
      </trkpt>
      <trkpt lat="-21.076588" lon="-44.153101">
        <ele>1295.812390279799</ele>
        <time>2019-06-21T18:55:06Z</time>
      </trkpt>
      <trkpt lat="-21.076631" lon="-44.153178">
        <ele>1294.8121877186072</ele>
        <time>2019-06-21T18:55:17Z</time>
      </trkpt>
      <trkpt lat="-21.076669" lon="-44.153238">
        <ele>1294.8120217192554</ele>
        <time>2019-06-21T18:55:22Z</time>
      </trkpt>
      <trkpt lat="-21.076729" lon="-44.153300">
        <ele>1298.811798494968</ele>
        <time>2019-06-21T18:55:31Z</time>
      </trkpt>
      <trkpt lat="-21.076812" lon="-44.153290">
        <ele>1298.8116080610503</ele>
        <time>2019-06-21T18:55:42Z</time>
      </trkpt>
      <trkpt lat="-21.076901" lon="-44.153287">
        <ele>1297.8113927329146</ele>
        <time>2019-06-21T18:55:52Z</time>
      </trkpt>
      <trkpt lat="-21.076977" lon="-44.153288">
        <ele>1299.8112039971215</ele>
        <time>2019-06-21T18:56:00Z</time>
      </trkpt>
      <trkpt lat="-21.077061" lon="-44.153304">
        <ele>1305.8109792360451</ele>
        <time>2019-06-21T18:56:18Z</time>
      </trkpt>
      <trkpt lat="-21.077114" lon="-44.153369">
        <ele>1307.810769646944</ele>
        <time>2019-06-21T18:56:29Z</time>
      </trkpt>
      <trkpt lat="-21.077195" lon="-44.153408">
        <ele>1308.810523078434</ele>
        <time>2019-06-21T18:56:38Z</time>
      </trkpt>
      <trkpt lat="-21.077272" lon="-44.153449">
        <ele>1308.8102829000688</ele>
        <time>2019-06-21T18:56:45Z</time>
      </trkpt>
      <trkpt lat="-21.077332" lon="-44.153520">
        <ele>1306.8100472485958</ele>
        <time>2019-06-21T18:56:53Z</time>
      </trkpt>
      <trkpt lat="-21.077392" lon="-44.153579">
        <ele>1305.8098271807144</ele>
        <time>2019-06-21T18:57:00Z</time>
      </trkpt>
      <trkpt lat="-21.077466" lon="-44.153626">
        <ele>1305.8095878220586</ele>
        <time>2019-06-21T18:57:11Z</time>
      </trkpt>
      <trkpt lat="-21.077503" lon="-44.153707">
        <ele>1302.8093961921527</ele>
        <time>2019-06-21T18:57:25Z</time>
      </trkpt>
      <trkpt lat="-21.077507" lon="-44.153792">
        <ele>1304.8092809452742</ele>
        <time>2019-06-21T18:57:33Z</time>
      </trkpt>
      <trkpt lat="-21.077544" lon="-44.153872">
        <ele>1303.8090900257923</ele>
        <time>2019-06-21T18:57:40Z</time>
      </trkpt>
      <trkpt lat="-21.077572" lon="-44.153951">
        <ele>1304.8089221730204</ele>
        <time>2019-06-21T18:57:47Z</time>
      </trkpt>
      <trkpt lat="-21.077605" lon="-44.154026">
        <ele>1304.8087496095843</ele>
        <time>2019-06-21T18:57:54Z</time>
      </trkpt>
      <trkpt lat="-21.077611" lon="-44.154114">
        <ele>1303.8086244368255</ele>
        <time>2019-06-21T18:58:02Z</time>
      </trkpt>
      <trkpt lat="-21.077607" lon="-44.154202">
        <ele>1302.8085268855805</ele>
        <time>2019-06-21T18:58:09Z</time>
      </trkpt>
      <trkpt lat="-21.077580" lon="-44.154273">
        <ele>1300.8085050007444</ele>
        <time>2019-06-21T18:58:16Z</time>
      </trkpt>
      <trkpt lat="-21.077552" lon="-44.154348">
        <ele>1306.8084788252588</ele>
        <time>2019-06-21T18:58:25Z</time>
      </trkpt>
      <trkpt lat="-21.077532" lon="-44.154438">
        <ele>1311.8084185470464</ele>
        <time>2019-06-21T18:58:36Z</time>
      </trkpt>
      <trkpt lat="-21.077506" lon="-44.154525">
        <ele>1308.8083757738264</ele>
        <time>2019-06-21T18:58:46Z</time>
      </trkpt>
      <trkpt lat="-21.077524" lon="-44.154601">
        <ele>1307.8082346504154</ele>
        <time>2019-06-21T18:58:56Z</time>
      </trkpt>
      <trkpt lat="-21.077552" lon="-44.154678">
        <ele>1306.8080700915712</ele>
        <time>2019-06-21T18:59:02Z</time>
      </trkpt>
      <trkpt lat="-21.077610" lon="-44.154749">
        <ele>1310.8078373946598</ele>
        <time>2019-06-21T18:59:14Z</time>
      </trkpt>
      <trkpt lat="-21.077685" lon="-44.154741">
        <ele>1315.8076618866974</ele>
        <time>2019-06-21T18:59:25Z</time>
      </trkpt>
      <trkpt lat="-21.077768" lon="-44.154756">
        <ele>1317.8074385942334</ele>
        <time>2019-06-21T18:59:36Z</time>
      </trkpt>
      <trkpt lat="-21.077838" lon="-44.154812">
        <ele>1322.8071958939404</ele>
        <time>2019-06-21T19:00:00Z</time>
      </trkpt>
      <trkpt lat="-21.077904" lon="-44.154850">
        <ele>1322.8069862884</ele>
        <time>2019-06-21T19:00:10Z</time>
      </trkpt>
      <trkpt lat="-21.077992" lon="-44.154864">
        <ele>1322.8067485558772</ele>
        <time>2019-06-21T19:00:20Z</time>
      </trkpt>
      <trkpt lat="-21.078076" lon="-44.154892">
        <ele>1322.8065068121095</ele>
        <time>2019-06-21T19:00:32Z</time>
      </trkpt>
      <trkpt lat="-21.078148" lon="-44.154942">
        <ele>1320.8062647419583</ele>
        <time>2019-06-21T19:01:01Z</time>
      </trkpt>
      <trkpt lat="-21.078219" lon="-44.154990">
        <ele>1327.806030264142</ele>
        <time>2019-06-21T19:01:12Z</time>
      </trkpt>
      <trkpt lat="-21.078276" lon="-44.155026">
        <ele>1323.8058424586588</ele>
        <time>2019-06-21T19:01:18Z</time>
      </trkpt>
      <trkpt lat="-21.078328" lon="-44.155094">
        <ele>1321.805628010237</ele>
        <time>2019-06-21T19:01:25Z</time>
      </trkpt>
      <trkpt lat="-21.078386" lon="-44.155162">
        <ele>1319.8054010356177</ele>
        <time>2019-06-21T19:01:36Z</time>
      </trkpt>
      <trkpt lat="-21.078439" lon="-44.155225">
        <ele>1321.8051902695454</ele>
        <time>2019-06-21T19:01:43Z</time>
      </trkpt>
      <trkpt lat="-21.078502" lon="-44.155283">
        <ele>1323.8049610764128</ele>
        <time>2019-06-21T19:01:52Z</time>
      </trkpt>
      <trkpt lat="-21.078557" lon="-44.155353">
        <ele>1321.8047359499571</ele>
        <time>2019-06-21T19:01:59Z</time>
      </trkpt>
      <trkpt lat="-21.078610" lon="-44.155424">
        <ele>1327.804513283753</ele>
        <time>2019-06-21T19:02:08Z</time>
      </trkpt>
      <trkpt lat="-21.078661" lon="-44.155498">
        <ele>1325.8042924505319</ele>
        <time>2019-06-21T19:02:18Z</time>
      </trkpt>
      <trkpt lat="-21.078706" lon="-44.155580">
        <ele>1324.8040782333962</ele>
        <time>2019-06-21T19:02:26Z</time>
      </trkpt>
      <trkpt lat="-21.078761" lon="-44.155645">
        <ele>1325.8038597774596</ele>
        <time>2019-06-21T19:02:32Z</time>
      </trkpt>
      <trkpt lat="-21.078774" lon="-44.155725">
        <ele>1326.8037276953248</ele>
        <time>2019-06-21T19:02:38Z</time>
      </trkpt>
      <trkpt lat="-21.078793" lon="-44.155807">
        <ele>1326.8035764776762</ele>
        <time>2019-06-21T19:02:46Z</time>
      </trkpt>
      <trkpt lat="-21.078805" lon="-44.155876">
        <ele>1328.8034593240711</ele>
        <time>2019-06-21T19:02:52Z</time>
      </trkpt>
      <trkpt lat="-21.078834" lon="-44.155967">
        <ele>1325.8032728378487</ele>
        <time>2019-06-21T19:02:58Z</time>
      </trkpt>
      <trkpt lat="-21.078868" lon="-44.156050">
        <ele>1323.8030814969752</ele>
        <time>2019-06-21T19:03:05Z</time>
      </trkpt>
      <trkpt lat="-21.078914" lon="-44.156113">
        <ele>1323.8028869831105</ele>
        <time>2019-06-21T19:03:12Z</time>
      </trkpt>
      <trkpt lat="-21.078985" lon="-44.156153">
        <ele>1324.802659837783</ele>
        <time>2019-06-21T19:03:18Z</time>
      </trkpt>
      <trkpt lat="-21.078986" lon="-44.156245">
        <ele>1323.802540442526</ele>
        <time>2019-06-21T19:03:30Z</time>
      </trkpt>
      <trkpt lat="-21.079064" lon="-44.156292">
        <ele>1318.802287124935</ele>
        <time>2019-06-21T19:04:20Z</time>
      </trkpt>
      <trkpt lat="-21.078990" lon="-44.156320">
        <ele>1321.802435780864</ele>
        <time>2019-06-21T19:04:39Z</time>
      </trkpt>
      <trkpt lat="-21.078928" lon="-44.156252">
        <ele>1323.8026782217485</ele>
        <time>2019-06-21T19:10:08Z</time>
      </trkpt>
      <trkpt lat="-21.078999" lon="-44.156301">
        <ele>1328.8024377813047</ele>
        <time>2019-06-21T19:14:01Z</time>
      </trkpt>
      <trkpt lat="-21.078949" lon="-44.156276">
        <ele>1326.8025946520268</ele>
        <time>2019-06-21T19:27:27Z</time>
      </trkpt>
      <trkpt lat="-21.078986" lon="-44.156316">
        <ele>1324.802451967267</ele>
        <time>2019-06-21T19:42:35Z</time>
      </trkpt>
      <trkpt lat="-21.079006" lon="-44.156313">
        <ele>1324.802406488764</ele>
        <time>2019-06-21T21:29:07Z</time>
      </trkpt>
      <trkpt lat="-21.079006" lon="-44.156313">
        <ele>1324.802406488764</ele>
        <time>2019-06-21T21:29:08Z</time>
      </trkpt>
      <trkpt lat="-21.079128" lon="-44.156297">
        <ele>1326.8021216257825</ele>
        <time>2019-06-22T11:38:41Z</time>
      </trkpt>
      <trkpt lat="-21.079116" lon="-44.156375">
        <ele>1322.802051143986</ele>
        <time>2019-06-22T11:41:39Z</time>
      </trkpt>
      <trkpt lat="-21.079190" lon="-44.156414">
        <ele>1321.8018160713937</ele>
        <time>2019-06-22T11:41:46Z</time>
      </trkpt>
      <trkpt lat="-21.079232" lon="-44.156498">
        <ele>1316.8016066090113</ele>
        <time>2019-06-22T11:41:54Z</time>
      </trkpt>
      <trkpt lat="-21.079270" lon="-44.156576">
        <ele>1320.8014120287232</ele>
        <time>2019-06-22T11:42:01Z</time>
      </trkpt>
      <trkpt lat="-21.079303" lon="-44.156652">
        <ele>1326.8012331719085</ele>
        <time>2019-06-22T11:42:06Z</time>
      </trkpt>
      <trkpt lat="-21.079360" lon="-44.156715">
        <ele>1322.8010094314166</ele>
        <time>2019-06-22T11:42:12Z</time>
      </trkpt>
      <trkpt lat="-21.079429" lon="-44.156762">
        <ele>1325.8007755601811</ele>
        <time>2019-06-22T11:42:19Z</time>
      </trkpt>
      <trkpt lat="-21.079477" lon="-44.156812">
        <ele>1322.8005939804289</ele>
        <time>2019-06-22T11:42:23Z</time>
      </trkpt>
      <trkpt lat="-21.079522" lon="-44.156858">
        <ele>1324.8004224208692</ele>
        <time>2019-06-22T11:42:27Z</time>
      </trkpt>
      <trkpt lat="-21.079578" lon="-44.156903">
        <ele>1323.8002243221904</ele>
        <time>2019-06-22T11:42:32Z</time>
      </trkpt>
      <trkpt lat="-21.079617" lon="-44.156951">
        <ele>1323.8000655202143</ele>
        <time>2019-06-22T11:42:36Z</time>
      </trkpt>
      <trkpt lat="-21.079661" lon="-44.157018">
        <ele>1324.7998678756333</ele>
        <time>2019-06-22T11:42:41Z</time>
      </trkpt>
      <trkpt lat="-21.079707" lon="-44.157098">
        <ele>1325.7996506491256</ele>
        <time>2019-06-22T11:42:48Z</time>
      </trkpt>
      <trkpt lat="-21.079731" lon="-44.157162">
        <ele>1326.7995094442767</ele>
        <time>2019-06-22T11:42:53Z</time>
      </trkpt>
      <trkpt lat="-21.079775" lon="-44.157236">
        <ele>1326.7993043377135</ele>
        <time>2019-06-22T11:42:58Z</time>
      </trkpt>
      <trkpt lat="-21.079841" lon="-44.157300">
        <ele>1327.799055795586</ele>
        <time>2019-06-22T11:43:05Z</time>
      </trkpt>
      <trkpt lat="-21.079900" lon="-44.157371">
        <ele>1326.7988152711096</ele>
        <time>2019-06-22T11:43:13Z</time>
      </trkpt>
      <trkpt lat="-21.079918" lon="-44.157463">
        <ele>1324.7986533159083</ele>
        <time>2019-06-22T11:43:20Z</time>
      </trkpt>
      <trkpt lat="-21.079935" lon="-44.157539">
        <ele>1326.79851290485</ele>
        <time>2019-06-22T11:43:26Z</time>
      </trkpt>
      <trkpt lat="-21.079974" lon="-44.157616">
        <ele>1325.7983159552873</ele>
        <time>2019-06-22T11:43:32Z</time>
      </trkpt>
      <trkpt lat="-21.080007" lon="-44.157673">
        <ele>1327.798161785465</ele>
        <time>2019-06-22T11:43:36Z</time>
      </trkpt>
      <trkpt lat="-21.080049" lon="-44.157745">
        <ele>1327.797963232704</ele>
        <time>2019-06-22T11:43:40Z</time>
      </trkpt>
      <trkpt lat="-21.080077" lon="-44.157835">
        <ele>1328.7977763629103</ele>
        <time>2019-06-22T11:43:45Z</time>
      </trkpt>
      <trkpt lat="-21.080100" lon="-44.157922">
        <ele>1332.7976074174753</ele>
        <time>2019-06-22T11:43:52Z</time>
      </trkpt>
      <trkpt lat="-21.080140" lon="-44.158006">
        <ele>1328.7973969870088</ele>
        <time>2019-06-22T11:43:59Z</time>
      </trkpt>
      <trkpt lat="-21.080186" lon="-44.158080">
        <ele>1326.7971861458768</ele>
        <time>2019-06-22T11:44:05Z</time>
      </trkpt>
      <trkpt lat="-21.080252" lon="-44.158144">
        <ele>1325.7969391839163</ele>
        <time>2019-06-22T11:44:13Z</time>
      </trkpt>
      <trkpt lat="-21.080287" lon="-44.158232">
        <ele>1318.796737587293</ele>
        <time>2019-06-22T11:44:22Z</time>
      </trkpt>
      <trkpt lat="-21.080294" lon="-44.158306">
        <ele>1320.7966231346943</ele>
        <time>2019-06-22T11:44:33Z</time>
      </trkpt>
      <trkpt lat="-21.080311" lon="-44.158387">
        <ele>1321.796475364113</ele>
        <time>2019-06-22T11:44:41Z</time>
      </trkpt>
      <trkpt lat="-21.080324" lon="-44.158481">
        <ele>1321.7963218652683</ele>
        <time>2019-06-22T11:44:48Z</time>
      </trkpt>
      <trkpt lat="-21.080344" lon="-44.158557">
        <ele>1321.796173577788</ele>
        <time>2019-06-22T11:44:54Z</time>
      </trkpt>
      <trkpt lat="-21.080378" lon="-44.158639">
        <ele>1319.7959824993366</ele>
        <time>2019-06-22T11:45:18Z</time>
      </trkpt>
      <trkpt lat="-21.080399" lon="-44.158712">
        <ele>1318.795833892279</ele>
        <time>2019-06-22T11:45:24Z</time>
      </trkpt>
      <trkpt lat="-21.080435" lon="-44.158787">
        <ele>1315.7956472317542</ele>
        <time>2019-06-22T11:45:31Z</time>
      </trkpt>
      <trkpt lat="-21.080457" lon="-44.158875">
        <ele>1314.795478055063</ele>
        <time>2019-06-22T11:45:39Z</time>
      </trkpt>
      <trkpt lat="-21.080485" lon="-44.158959">
        <ele>1308.7952983239334</ele>
        <time>2019-06-22T11:45:48Z</time>
      </trkpt>
      <trkpt lat="-21.080497" lon="-44.159045">
        <ele>1302.7951571683354</ele>
        <time>2019-06-22T11:45:57Z</time>
      </trkpt>
      <trkpt lat="-21.080525" lon="-44.159128">
        <ele>1307.7949798590223</ele>
        <time>2019-06-22T11:46:03Z</time>
      </trkpt>
      <trkpt lat="-21.080551" lon="-44.159213">
        <ele>1309.7948041218142</ele>
        <time>2019-06-22T11:46:11Z</time>
      </trkpt>
      <trkpt lat="-21.080595" lon="-44.159296">
        <ele>1306.7945855186822</ele>
        <time>2019-06-22T11:46:21Z</time>
      </trkpt>
      <trkpt lat="-21.080589" lon="-44.159390">
        <ele>1306.7944785768373</ele>
        <time>2019-06-22T11:46:48Z</time>
      </trkpt>
      <trkpt lat="-21.080580" lon="-44.159481">
        <ele>1309.7943843390067</ele>
        <time>2019-06-22T11:47:01Z</time>
      </trkpt>
      <trkpt lat="-21.080559" lon="-44.159574">
        <ele>1304.7943179212496</ele>
        <time>2019-06-22T11:47:17Z</time>
      </trkpt>
      <trkpt lat="-21.080477" lon="-44.159612">
        <ele>1301.7944779704576</ele>
        <time>2019-06-22T11:47:40Z</time>
      </trkpt>
      <trkpt lat="-21.080428" lon="-44.159691">
        <ele>1294.794502082853</ele>
        <time>2019-06-22T11:48:00Z</time>
      </trkpt>
      <trkpt lat="-21.080488" lon="-44.159748">
        <ele>1301.7942765295277</ele>
        <time>2019-06-22T11:48:10Z</time>
      </trkpt>
      <trkpt lat="-21.080561" lon="-44.159801">
        <ele>1302.7940193192692</ele>
        <time>2019-06-22T11:48:19Z</time>
      </trkpt>
      <trkpt lat="-21.080632" lon="-44.159839">
        <ele>1296.7937906842699</ele>
        <time>2019-06-22T11:48:28Z</time>
      </trkpt>
      <trkpt lat="-21.080669" lon="-44.159910">
        <ele>1291.7936031384334</ele>
        <time>2019-06-22T11:48:36Z</time>
      </trkpt>
      <trkpt lat="-21.080685" lon="-44.159981">
        <ele>1293.793470411856</ele>
        <time>2019-06-22T11:48:45Z</time>
      </trkpt>
      <trkpt lat="-21.080722" lon="-44.160065">
        <ele>1298.7932672213274</ele>
        <time>2019-06-22T11:48:51Z</time>
      </trkpt>
      <trkpt lat="-21.080754" lon="-44.160151">
        <ele>1296.7930747853713</ele>
        <time>2019-06-22T11:48:58Z</time>
      </trkpt>
      <trkpt lat="-21.080804" lon="-44.160221">
        <ele>1292.792855526569</ele>
        <time>2019-06-22T11:49:07Z</time>
      </trkpt>
      <trkpt lat="-21.080884" lon="-44.160255">
        <ele>1289.792605922805</ele>
        <time>2019-06-22T11:49:20Z</time>
      </trkpt>
      <trkpt lat="-21.080950" lon="-44.160277">
        <ele>1288.792407944786</ele>
        <time>2019-06-22T11:49:26Z</time>
      </trkpt>
      <trkpt lat="-21.081003" lon="-44.160326">
        <ele>1290.7922092979977</ele>
        <time>2019-06-22T11:49:36Z</time>
      </trkpt>
      <trkpt lat="-21.081043" lon="-44.160394">
        <ele>1291.7920192869735</ele>
        <time>2019-06-22T11:49:44Z</time>
      </trkpt>
      <trkpt lat="-21.081110" lon="-44.160446">
        <ele>1288.7917794635887</ele>
        <time>2019-06-22T11:49:53Z</time>
      </trkpt>
      <trkpt lat="-21.081195" lon="-44.160471">
        <ele>1290.7915280173781</ele>
        <time>2019-06-22T11:50:01Z</time>
      </trkpt>
      <trkpt lat="-21.081238" lon="-44.160548">
        <ele>1289.79132022952</ele>
        <time>2019-06-22T11:50:12Z</time>
      </trkpt>
      <trkpt lat="-21.081318" lon="-44.160582">
        <ele>1292.791070361764</ele>
        <time>2019-06-22T11:50:23Z</time>
      </trkpt>
      <trkpt lat="-21.081392" lon="-44.160619">
        <ele>1287.7908315352834</ele>
        <time>2019-06-22T11:50:36Z</time>
      </trkpt>
      <trkpt lat="-21.081366" lon="-44.160709">
        <ele>1291.7907804114159</ele>
        <time>2019-06-22T11:52:09Z</time>
      </trkpt>
      <trkpt lat="-21.081435" lon="-44.160769">
        <ele>1284.790523130883</ele>
        <time>2019-06-22T11:52:41Z</time>
      </trkpt>
      <trkpt lat="-21.081488" lon="-44.160846">
        <ele>1281.790287317515</ele>
        <time>2019-06-22T11:53:43Z</time>
      </trkpt>
      <trkpt lat="-21.081518" lon="-44.160930">
        <ele>1282.790100283385</ele>
        <time>2019-06-22T11:54:23Z</time>
      </trkpt>
      <trkpt lat="-21.081539" lon="-44.161014">
        <ele>1276.7899384388193</ele>
        <time>2019-06-22T11:54:35Z</time>
      </trkpt>
      <trkpt lat="-21.081598" lon="-44.161080">
        <ele>1268.7896998865147</ele>
        <time>2019-06-22T11:54:45Z</time>
      </trkpt>
      <trkpt lat="-21.081677" lon="-44.161077">
        <ele>1266.7894990408174</ele>
        <time>2019-06-22T11:54:54Z</time>
      </trkpt>
      <trkpt lat="-21.081764" lon="-44.161064">
        <ele>1264.7892940214624</ele>
        <time>2019-06-22T11:55:14Z</time>
      </trkpt>
      <trkpt lat="-21.081845" lon="-44.161091">
        <ele>1262.7890477333005</ele>
        <time>2019-06-22T11:55:29Z</time>
      </trkpt>
      <trkpt lat="-21.081920" lon="-44.161137">
        <ele>1259.7887954072423</ele>
        <time>2019-06-22T11:55:43Z</time>
      </trkpt>
      <trkpt lat="-21.081998" lon="-44.161171">
        <ele>1257.7885488009524</ele>
        <time>2019-06-22T11:55:56Z</time>
      </trkpt>
      <trkpt lat="-21.082047" lon="-44.161252">
        <ele>1261.788316893052</ele>
        <time>2019-06-22T11:56:13Z</time>
      </trkpt>
      <trkpt lat="-21.082105" lon="-44.161321">
        <ele>1258.7880747870195</ele>
        <time>2019-06-22T11:56:20Z</time>
      </trkpt>
      <trkpt lat="-21.082157" lon="-44.161385">
        <ele>1259.787857997312</ele>
        <time>2019-06-22T11:56:24Z</time>
      </trkpt>
      <trkpt lat="-21.082219" lon="-44.161446">
        <ele>1259.787616483464</ele>
        <time>2019-06-22T11:56:33Z</time>
      </trkpt>
      <trkpt lat="-21.082245" lon="-44.161529">
        <ele>1258.787442318471</ele>
        <time>2019-06-22T11:56:41Z</time>
      </trkpt>
      <trkpt lat="-21.082294" lon="-44.161597">
        <ele>1253.7872248470528</ele>
        <time>2019-06-22T11:56:51Z</time>
      </trkpt>
      <trkpt lat="-21.082320" lon="-44.161686">
        <ele>1246.787041956013</ele>
        <time>2019-06-22T11:57:01Z</time>
      </trkpt>
      <trkpt lat="-21.082338" lon="-44.161778">
        <ele>1241.7868722368353</ele>
        <time>2019-06-22T11:57:15Z</time>
      </trkpt>
      <trkpt lat="-21.082342" lon="-44.161869">
        <ele>1238.78674303355</ele>
        <time>2019-06-22T11:57:25Z</time>
      </trkpt>
      <trkpt lat="-21.082331" lon="-44.161956">
        <ele>1237.7866544455846</ele>
        <time>2019-06-22T11:57:34Z</time>
      </trkpt>
      <trkpt lat="-21.082345" lon="-44.162050">
        <ele>1241.7864957480244</ele>
        <time>2019-06-22T11:57:57Z</time>
      </trkpt>
      <trkpt lat="-21.082322" lon="-44.162126">
        <ele>1241.7864544968695</ele>
        <time>2019-06-22T11:58:43Z</time>
      </trkpt>
      <trkpt lat="-21.082327" lon="-44.162222">
        <ele>1237.7863161222192</ele>
        <time>2019-06-22T11:59:22Z</time>
      </trkpt>
      <trkpt lat="-21.082308" lon="-44.162314">
        <ele>1235.7862433768705</ele>
        <time>2019-06-22T12:00:40Z</time>
      </trkpt>
      <trkpt lat="-21.082340" lon="-44.162402">
        <ele>1235.7860469353088</ele>
        <time>2019-06-22T12:01:53Z</time>
      </trkpt>
      <trkpt lat="-21.082410" lon="-44.162451">
        <ele>1233.7857993929945</ele>
        <time>2019-06-22T12:02:11Z</time>
      </trkpt>
      <trkpt lat="-21.082497" lon="-44.162445">
        <ele>1231.785580785189</ele>
        <time>2019-06-22T12:02:31Z</time>
      </trkpt>
      <trkpt lat="-21.082521" lon="-44.162526">
        <ele>1229.785409891011</ele>
        <time>2019-06-22T12:02:44Z</time>
      </trkpt>
      <trkpt lat="-21.082493" lon="-44.162616">
        <ele>1229.7853640446642</ele>
        <time>2019-06-22T12:02:54Z</time>
      </trkpt>
      <trkpt lat="-21.082488" lon="-44.162707">
        <ele>1222.7852577321526</ele>
        <time>2019-06-22T12:03:09Z</time>
      </trkpt>
      <trkpt lat="-21.082544" lon="-44.162760">
        <ele>1219.785041167845</ele>
        <time>2019-06-22T12:03:20Z</time>
      </trkpt>
      <trkpt lat="-21.082620" lon="-44.162794">
        <ele>1218.78480001648</ele>
        <time>2019-06-22T12:03:31Z</time>
      </trkpt>
      <trkpt lat="-21.082707" lon="-44.162814">
        <ele>1218.7845458830384</ele>
        <time>2019-06-22T12:03:42Z</time>
      </trkpt>
      <trkpt lat="-21.082783" lon="-44.162840">
        <ele>1214.7843130701242</ele>
        <time>2019-06-22T12:03:50Z</time>
      </trkpt>
      <trkpt lat="-21.082848" lon="-44.162882">
        <ele>1214.7840890891334</ele>
        <time>2019-06-22T12:03:58Z</time>
      </trkpt>
      <trkpt lat="-21.082914" lon="-44.162919">
        <ele>1210.7838661758656</ele>
        <time>2019-06-22T12:04:07Z</time>
      </trkpt>
      <trkpt lat="-21.083002" lon="-44.162931">
        <ele>1204.783621513172</ele>
        <time>2019-06-22T12:04:15Z</time>
      </trkpt>
      <trkpt lat="-21.083078" lon="-44.162970">
        <ele>1207.7833723358103</ele>
        <time>2019-06-22T12:04:22Z</time>
      </trkpt>
      <trkpt lat="-21.083154" lon="-44.162989">
        <ele>1207.7831487317014</ele>
        <time>2019-06-22T12:04:29Z</time>
      </trkpt>
      <trkpt lat="-21.083235" lon="-44.163030">
        <ele>1204.7828830285205</ele>
        <time>2019-06-22T12:04:39Z</time>
      </trkpt>
      <trkpt lat="-21.083284" lon="-44.163102">
        <ele>1206.7826594029668</ele>
        <time>2019-06-22T12:04:46Z</time>
      </trkpt>
      <trkpt lat="-21.083331" lon="-44.163179">
        <ele>1203.7824333031833</ele>
        <time>2019-06-22T12:04:55Z</time>
      </trkpt>
      <trkpt lat="-21.083380" lon="-44.163256">
        <ele>1202.7822044803584</ele>
        <time>2019-06-22T12:05:04Z</time>
      </trkpt>
      <trkpt lat="-21.083418" lon="-44.163327">
        <ele>1200.7820100579122</ele>
        <time>2019-06-22T12:05:10Z</time>
      </trkpt>
      <trkpt lat="-21.083462" lon="-44.163401">
        <ele>1201.7817957509844</ele>
        <time>2019-06-22T12:05:16Z</time>
      </trkpt>
      <trkpt lat="-21.083504" lon="-44.163478">
        <ele>1199.781582812748</ele>
        <time>2019-06-22T12:05:23Z</time>
      </trkpt>
      <trkpt lat="-21.083570" lon="-44.163529">
        <ele>1198.7813434233053</ele>
        <time>2019-06-22T12:05:30Z</time>
      </trkpt>
      <trkpt lat="-21.083630" lon="-44.163592">
        <ele>1198.7811003048857</ele>
        <time>2019-06-22T12:05:37Z</time>
      </trkpt>
      <trkpt lat="-21.083678" lon="-44.163658">
        <ele>1196.7808870640372</ele>
        <time>2019-06-22T12:05:45Z</time>
      </trkpt>
      <trkpt lat="-21.083754" lon="-44.163631">
        <ele>1189.780724639039</ele>
        <time>2019-06-22T12:05:56Z</time>
      </trkpt>
      <trkpt lat="-21.083830" lon="-44.163663">
        <ele>1191.7804811844424</ele>
        <time>2019-06-22T12:06:11Z</time>
      </trkpt>
      <trkpt lat="-21.083904" lon="-44.163712">
        <ele>1188.7802241183717</ele>
        <time>2019-06-22T12:06:21Z</time>
      </trkpt>
      <trkpt lat="-21.083944" lon="-44.163793">
        <ele>1184.7800073810085</ele>
        <time>2019-06-22T12:06:31Z</time>
      </trkpt>
      <trkpt lat="-21.083989" lon="-44.163874">
        <ele>1185.7797825692735</ele>
        <time>2019-06-22T12:07:05Z</time>
      </trkpt>
      <trkpt lat="-21.084060" lon="-44.163925">
        <ele>1182.7795278220642</ele>
        <time>2019-06-22T12:07:32Z</time>
      </trkpt>
      <trkpt lat="-21.084134" lon="-44.163952">
        <ele>1178.7792984589512</ele>
        <time>2019-06-22T12:07:40Z</time>
      </trkpt>
      <trkpt lat="-21.084149" lon="-44.164042">
        <ele>1180.7791363480433</ele>
        <time>2019-06-22T12:07:53Z</time>
      </trkpt>
      <trkpt lat="-21.084163" lon="-44.164126">
        <ele>1176.7789875512967</ele>
        <time>2019-06-22T12:08:08Z</time>
      </trkpt>
      <trkpt lat="-21.084210" lon="-44.164202">
        <ele>1183.77876143322</ele>
        <time>2019-06-22T12:08:18Z</time>
      </trkpt>
      <trkpt lat="-21.084224" lon="-44.164286">
        <ele>1173.7786105587782</ele>
        <time>2019-06-22T12:08:45Z</time>
      </trkpt>
      <trkpt lat="-21.084233" lon="-44.164376">
        <ele>1178.778466644734</ele>
        <time>2019-06-22T12:08:55Z</time>
      </trkpt>
      <trkpt lat="-21.084271" lon="-44.164452">
        <ele>1168.778262254256</ele>
        <time>2019-06-22T12:09:07Z</time>
      </trkpt>
      <trkpt lat="-21.084234" lon="-44.164531">
        <ele>1163.7782546077847</ele>
        <time>2019-06-22T12:11:51Z</time>
      </trkpt>
      <trkpt lat="-21.084199" lon="-44.164603">
        <ele>1161.7782486819535</ele>
        <time>2019-06-22T12:12:00Z</time>
      </trkpt>
      <trkpt lat="-21.084213" lon="-44.164690">
        <ele>1162.778094181744</ele>
        <time>2019-06-22T12:12:07Z</time>
      </trkpt>
      <trkpt lat="-21.084187" lon="-44.164778">
        <ele>1162.7780444150824</ele>
        <time>2019-06-22T12:12:15Z</time>
      </trkpt>
      <trkpt lat="-21.084162" lon="-44.164860">
        <ele>1162.7780007082208</ele>
        <time>2019-06-22T12:12:22Z</time>
      </trkpt>
      <trkpt lat="-21.084147" lon="-44.164942">
        <ele>1164.777930546957</ele>
        <time>2019-06-22T12:12:29Z</time>
      </trkpt>
      <trkpt lat="-21.084161" lon="-44.165033">
        <ele>1160.777769854966</ele>
        <time>2019-06-22T12:12:37Z</time>
      </trkpt>
      <trkpt lat="-21.084177" lon="-44.165103">
        <ele>1158.7776331934058</ele>
        <time>2019-06-22T12:12:43Z</time>
      </trkpt>
      <trkpt lat="-21.084209" lon="-44.165192">
        <ele>1159.7774306175027</ele>
        <time>2019-06-22T12:12:51Z</time>
      </trkpt>
      <trkpt lat="-21.084245" lon="-44.165255">
        <ele>1161.7772481531827</ele>
        <time>2019-06-22T12:12:56Z</time>
      </trkpt>
      <trkpt lat="-21.084301" lon="-44.165326">
        <ele>1158.7770045878976</ele>
        <time>2019-06-22T12:13:03Z</time>
      </trkpt>
      <trkpt lat="-21.084372" lon="-44.165373">
        <ele>1159.7767558458825</ele>
        <time>2019-06-22T12:13:11Z</time>
      </trkpt>
      <trkpt lat="-21.084412" lon="-44.165447">
        <ele>1157.776548735032</ele>
        <time>2019-06-22T12:13:18Z</time>
      </trkpt>
      <trkpt lat="-21.084464" lon="-44.165514">
        <ele>1154.7763216134192</ele>
        <time>2019-06-22T12:13:25Z</time>
      </trkpt>
      <trkpt lat="-21.084476" lon="-44.165599">
        <ele>1155.776173742016</ele>
        <time>2019-06-22T12:13:30Z</time>
      </trkpt>
      <trkpt lat="-21.084513" lon="-44.165684">
        <ele>1159.7759617109257</ele>
        <time>2019-06-22T12:13:38Z</time>
      </trkpt>
      <trkpt lat="-21.084568" lon="-44.165731">
        <ele>1159.7757504473032</ele>
        <time>2019-06-22T12:13:45Z</time>
      </trkpt>
      <trkpt lat="-21.084636" lon="-44.165780">
        <ele>1158.7755065706272</ele>
        <time>2019-06-22T12:13:59Z</time>
      </trkpt>
      <trkpt lat="-21.084712" lon="-44.165755">
        <ele>1147.775335673</ele>
        <time>2019-06-22T12:15:36Z</time>
      </trkpt>
      <trkpt lat="-21.084772" lon="-44.165817">
        <ele>1148.775092725152</ele>
        <time>2019-06-22T12:16:08Z</time>
      </trkpt>
      <trkpt lat="-21.084830" lon="-44.165880">
        <ele>1147.7748525236448</ele>
        <time>2019-06-22T12:16:20Z</time>
      </trkpt>
      <trkpt lat="-21.084901" lon="-44.165923">
        <ele>1138.7746068814438</ele>
        <time>2019-06-22T12:16:58Z</time>
      </trkpt>
      <trkpt lat="-21.084946" lon="-44.166000">
        <ele>1135.7743835536864</ele>
        <time>2019-06-22T12:18:02Z</time>
      </trkpt>
      <trkpt lat="-21.084982" lon="-44.166072">
        <ele>1132.774188036272</ele>
        <time>2019-06-22T12:18:18Z</time>
      </trkpt>
      <trkpt lat="-21.084991" lon="-44.166141">
        <ele>1133.7740717686388</ele>
        <time>2019-06-22T12:18:24Z</time>
      </trkpt>
      <trkpt lat="-21.084993" lon="-44.166228">
        <ele>1139.7739490574427</ele>
        <time>2019-06-22T12:18:30Z</time>
      </trkpt>
      <trkpt lat="-21.084957" lon="-44.166301">
        <ele>1139.773945587251</ele>
        <time>2019-06-22T12:18:42Z</time>
      </trkpt>
      <trkpt lat="-21.084942" lon="-44.166384">
        <ele>1138.7738720228454</ele>
        <time>2019-06-22T12:18:50Z</time>
      </trkpt>
      <trkpt lat="-21.084962" lon="-44.166473">
        <ele>1138.77369714756</ele>
        <time>2019-06-22T12:19:00Z</time>
      </trkpt>
      <trkpt lat="-21.084943" lon="-44.166566">
        <ele>1138.7736209409475</ele>
        <time>2019-06-22T12:19:37Z</time>
      </trkpt>
      <trkpt lat="-21.084897" lon="-44.166627">
        <ele>1138.7736624145025</ele>
        <time>2019-06-22T12:19:44Z</time>
      </trkpt>
      <trkpt lat="-21.084829" lon="-44.166660">
        <ele>1139.773798648416</ele>
        <time>2019-06-22T12:20:12Z</time>
      </trkpt>
      <trkpt lat="-21.084777" lon="-44.166698">
        <ele>1140.7738846983136</ele>
        <time>2019-06-22T12:20:18Z</time>
      </trkpt>
      <trkpt lat="-21.084695" lon="-44.166722">
        <ele>1141.774069938776</ele>
        <time>2019-06-22T12:20:23Z</time>
      </trkpt>
      <trkpt lat="-21.084636" lon="-44.166762">
        <ele>1142.7741741054476</ele>
        <time>2019-06-22T12:20:28Z</time>
      </trkpt>
      <trkpt lat="-21.084566" lon="-44.166816">
        <ele>1140.7742883396927</ele>
        <time>2019-06-22T12:20:40Z</time>
      </trkpt>
      <trkpt lat="-21.084480" lon="-44.166840">
        <ele>1135.774486114304</ele>
        <time>2019-06-22T12:20:49Z</time>
      </trkpt>
      <trkpt lat="-21.084409" lon="-44.166892">
        <ele>1131.7746052746982</ele>
        <time>2019-06-22T12:20:58Z</time>
      </trkpt>
      <trkpt lat="-21.084331" lon="-44.166927">
        <ele>1132.7747652653584</ele>
        <time>2019-06-22T12:21:05Z</time>
      </trkpt>
      <trkpt lat="-21.084298" lon="-44.166955">
        <ele>1132.774817512322</ele>
        <time>2019-06-22T12:21:08Z</time>
      </trkpt>
      <trkpt lat="-21.084243" lon="-44.167022">
        <ele>1133.7748729180178</ele>
        <time>2019-06-22T12:21:14Z</time>
      </trkpt>
      <trkpt lat="-21.084179" lon="-44.167076">
        <ele>1131.7749717461936</ele>
        <time>2019-06-22T12:21:22Z</time>
      </trkpt>
      <trkpt lat="-21.084102" lon="-44.167122">
        <ele>1128.7751146178107</ele>
        <time>2019-06-22T12:21:29Z</time>
      </trkpt>
      <trkpt lat="-21.084058" lon="-44.167173">
        <ele>1132.775165422871</ele>
        <time>2019-06-22T12:21:33Z</time>
      </trkpt>
      <trkpt lat="-21.084008" lon="-44.167242">
        <ele>1133.7752057482624</ele>
        <time>2019-06-22T12:21:39Z</time>
      </trkpt>
      <trkpt lat="-21.083954" lon="-44.167299">
        <ele>1134.7752743467777</ele>
        <time>2019-06-22T12:21:44Z</time>
      </trkpt>
      <trkpt lat="-21.083907" lon="-44.167364">
        <ele>1138.7753134297639</ele>
        <time>2019-06-22T12:21:50Z</time>
      </trkpt>
      <trkpt lat="-21.083867" lon="-44.167448">
        <ele>1137.7753058161566</ele>
        <time>2019-06-22T12:21:59Z</time>
      </trkpt>
      <trkpt lat="-21.083818" lon="-44.167515">
        <ele>1130.7753481795353</ele>
        <time>2019-06-22T12:22:09Z</time>
      </trkpt>
      <trkpt lat="-21.083813" lon="-44.167610">
        <ele>1126.7752340513232</ele>
        <time>2019-06-22T12:22:18Z</time>
      </trkpt>
      <trkpt lat="-21.083782" lon="-44.167696">
        <ele>1126.7752012317574</ele>
        <time>2019-06-22T12:22:26Z</time>
      </trkpt>
      <trkpt lat="-21.083750" lon="-44.167777">
        <ele>1124.7751786851145</ele>
        <time>2019-06-22T12:22:45Z</time>
      </trkpt>
      <trkpt lat="-21.083689" lon="-44.167844">
        <ele>1123.7752533935914</ele>
        <time>2019-06-22T12:22:52Z</time>
      </trkpt>
      <trkpt lat="-21.083611" lon="-44.167842">
        <ele>1121.7754655357185</ele>
        <time>2019-06-22T12:22:57Z</time>
      </trkpt>
      <trkpt lat="-21.083532" lon="-44.167842">
        <ele>1118.7756782283311</ele>
        <time>2019-06-22T12:23:04Z</time>
      </trkpt>
      <trkpt lat="-21.083475" lon="-44.167913">
        <ele>1117.7757360680812</ele>
        <time>2019-06-22T12:23:14Z</time>
      </trkpt>
      <trkpt lat="-21.083414" lon="-44.167917">
        <ele>1116.7758940752544</ele>
        <time>2019-06-22T12:23:19Z</time>
      </trkpt>
      <trkpt lat="-21.083331" lon="-44.167937">
        <ele>1118.7760913444447</ele>
        <time>2019-06-22T12:23:25Z</time>
      </trkpt>
      <trkpt lat="-21.083241" lon="-44.167940">
        <ele>1117.7763274350987</ele>
        <time>2019-06-22T12:23:38Z</time>
      </trkpt>
      <trkpt lat="-21.083190" lon="-44.168004">
        <ele>1121.776380086346</ele>
        <time>2019-06-22T12:23:46Z</time>
      </trkpt>
      <trkpt lat="-21.083128" lon="-44.168059">
        <ele>1117.7764748018685</ele>
        <time>2019-06-22T12:24:00Z</time>
      </trkpt>
      <trkpt lat="-21.083090" lon="-44.168122">
        <ele>1119.7764920274794</ele>
        <time>2019-06-22T12:24:07Z</time>
      </trkpt>
      <trkpt lat="-21.083105" lon="-44.168208">
        <ele>1117.7763378514</ele>
        <time>2019-06-22T12:24:13Z</time>
      </trkpt>
      <trkpt lat="-21.083134" lon="-44.168290">
        <ele>1120.7761485869048</ele>
        <time>2019-06-22T12:24:19Z</time>
      </trkpt>
      <trkpt lat="-21.083125" lon="-44.168384">
        <ele>1120.7760510226544</ele>
        <time>2019-06-22T12:24:28Z</time>
      </trkpt>
      <trkpt lat="-21.083080" lon="-44.168458">
        <ele>1120.776071750976</ele>
        <time>2019-06-22T12:24:36Z</time>
      </trkpt>
      <trkpt lat="-21.083007" lon="-44.168496">
        <ele>1114.7762184364772</ele>
        <time>2019-06-22T12:24:43Z</time>
      </trkpt>
      <trkpt lat="-21.082966" lon="-44.168573">
        <ele>1111.7762254195773</ele>
        <time>2019-06-22T12:24:51Z</time>
      </trkpt>
      <trkpt lat="-21.082944" lon="-44.168637">
        <ele>1115.776200618716</ele>
        <time>2019-06-22T12:24:56Z</time>
      </trkpt>
      <trkpt lat="-21.083021" lon="-44.168634">
        <ele>1112.77599779792</ele>
        <time>2019-06-22T12:25:25Z</time>
      </trkpt>
      <trkpt lat="-21.083094" lon="-44.168672">
        <ele>1109.7757519154359</ele>
        <time>2019-06-22T12:25:31Z</time>
      </trkpt>
      <trkpt lat="-21.083171" lon="-44.168712">
        <ele>1103.7754883205082</ele>
        <time>2019-06-22T12:25:39Z</time>
      </trkpt>
      <trkpt lat="-21.083226" lon="-44.168788">
        <ele>1099.775239883092</ele>
        <time>2019-06-22T12:25:48Z</time>
      </trkpt>
      <trkpt lat="-21.083266" lon="-44.168856">
        <ele>1095.775040588302</ele>
        <time>2019-06-22T12:25:57Z</time>
      </trkpt>
      <trkpt lat="-21.083298" lon="-44.168937">
        <ele>1099.7748459058305</ele>
        <time>2019-06-22T12:26:04Z</time>
      </trkpt>
      <trkpt lat="-21.083306" lon="-44.169015">
        <ele>1097.7747204492705</ele>
        <time>2019-06-22T12:26:10Z</time>
      </trkpt>
      <trkpt lat="-21.083350" lon="-44.169097">
        <ele>1098.77449237416</ele>
        <time>2019-06-22T12:26:22Z</time>
      </trkpt>
      <trkpt lat="-21.083311" lon="-44.169180">
        <ele>1094.7744873951015</ele>
        <time>2019-06-22T12:26:32Z</time>
      </trkpt>
      <trkpt lat="-21.083230" lon="-44.169199">
        <ele>1092.774681483949</ele>
        <time>2019-06-22T12:26:51Z</time>
      </trkpt>
      <trkpt lat="-21.083207" lon="-44.169279">
        <ele>1087.7746365651055</ele>
        <time>2019-06-22T12:27:04Z</time>
      </trkpt>
      <trkpt lat="-21.083138" lon="-44.169306">
        <ele>1081.7747877946572</ele>
        <time>2019-06-22T12:27:14Z</time>
      </trkpt>
      <trkpt lat="-21.083054" lon="-44.169275">
        <ele>1082.7750572158986</ele>
        <time>2019-06-22T12:27:22Z</time>
      </trkpt>
      <trkpt lat="-21.082967" lon="-44.169291">
        <ele>1086.7752717395017</ele>
        <time>2019-06-22T12:27:53Z</time>
      </trkpt>
      <trkpt lat="-21.082884" lon="-44.169273">
        <ele>1081.775520698818</ele>
        <time>2019-06-22T12:28:05Z</time>
      </trkpt>
      <trkpt lat="-21.082804" lon="-44.169237">
        <ele>1080.7757842562048</ele>
        <time>2019-06-22T12:28:14Z</time>
      </trkpt>
      <trkpt lat="-21.082716" lon="-44.169236">
        <ele>1080.7760226678777</ele>
        <time>2019-06-22T12:28:26Z</time>
      </trkpt>
      <trkpt lat="-21.082662" lon="-44.169188">
        <ele>1079.7762337014815</ele>
        <time>2019-06-22T12:28:35Z</time>
      </trkpt>
      <trkpt lat="-21.082583" lon="-44.169152">
        <ele>1082.7764955380735</ele>
        <time>2019-06-22T12:28:44Z</time>
      </trkpt>
      <trkpt lat="-21.082501" lon="-44.169114">
        <ele>1083.7767665435936</ele>
        <time>2019-06-22T12:30:27Z</time>
      </trkpt>
      <trkpt lat="-21.082429" lon="-44.169088">
        <ele>1088.7769956466598</ele>
        <time>2019-06-22T12:31:20Z</time>
      </trkpt>
      <trkpt lat="-21.082360" lon="-44.169071">
        <ele>1088.7772062128697</ele>
        <time>2019-06-22T12:31:43Z</time>
      </trkpt>
      <trkpt lat="-21.082283" lon="-44.169022">
        <ele>1086.7774775196915</ele>
        <time>2019-06-22T12:31:52Z</time>
      </trkpt>
      <trkpt lat="-21.082204" lon="-44.168998">
        <ele>1077.7777229998412</ele>
        <time>2019-06-22T12:32:03Z</time>
      </trkpt>
      <trkpt lat="-21.082142" lon="-44.168941">
        <ele>1078.7779657054753</ele>
        <time>2019-06-22T12:32:10Z</time>
      </trkpt>
      <trkpt lat="-21.082070" lon="-44.168907">
        <ele>1079.778205365408</ele>
        <time>2019-06-22T12:32:19Z</time>
      </trkpt>
      <trkpt lat="-21.081994" lon="-44.168858">
        <ele>1077.778475718456</ele>
        <time>2019-06-22T12:32:28Z</time>
      </trkpt>
      <trkpt lat="-21.081923" lon="-44.168821">
        <ele>1078.7787152366623</ele>
        <time>2019-06-22T12:32:36Z</time>
      </trkpt>
      <trkpt lat="-21.081853" lon="-44.168768">
        <ele>1077.778973171076</ele>
        <time>2019-06-22T12:32:46Z</time>
      </trkpt>
      <trkpt lat="-21.081784" lon="-44.168753">
        <ele>1076.7791808778022</ele>
        <time>2019-06-22T12:32:53Z</time>
      </trkpt>
      <trkpt lat="-21.081712" lon="-44.168714">
        <ele>1075.7794235863423</ele>
        <time>2019-06-22T12:33:01Z</time>
      </trkpt>
      <trkpt lat="-21.081652" lon="-44.168665">
        <ele>1077.7796516041128</ele>
        <time>2019-06-22T12:33:06Z</time>
      </trkpt>
      <trkpt lat="-21.081593" lon="-44.168607">
        <ele>1077.7798857066598</ele>
        <time>2019-06-22T12:33:12Z</time>
      </trkpt>
      <trkpt lat="-21.081510" lon="-44.168591">
        <ele>1074.780131310007</ele>
        <time>2019-06-22T12:33:22Z</time>
      </trkpt>
      <trkpt lat="-21.081442" lon="-44.168543">
        <ele>1070.7803768752417</ele>
        <time>2019-06-22T12:33:30Z</time>
      </trkpt>
      <trkpt lat="-21.081388" lon="-44.168496">
        <ele>1071.7805822035289</ele>
        <time>2019-06-22T12:33:37Z</time>
      </trkpt>
      <trkpt lat="-21.081330" lon="-44.168443">
        <ele>1074.7808086415946</ele>
        <time>2019-06-22T12:33:45Z</time>
      </trkpt>
      <trkpt lat="-21.081275" lon="-44.168390">
        <ele>1075.7810240461415</ele>
        <time>2019-06-22T12:33:51Z</time>
      </trkpt>
      <trkpt lat="-21.081234" lon="-44.168320">
        <ele>1071.7812272105316</ele>
        <time>2019-06-22T12:34:07Z</time>
      </trkpt>
      <trkpt lat="-21.081156" lon="-44.168276">
        <ele>1073.7814944360393</ele>
        <time>2019-06-22T12:34:16Z</time>
      </trkpt>
      <trkpt lat="-21.081094" lon="-44.168215">
        <ele>1071.7817418304653</ele>
        <time>2019-06-22T12:34:23Z</time>
      </trkpt>
      <trkpt lat="-21.081014" lon="-44.168193">
        <ele>1072.7819848646077</ele>
        <time>2019-06-22T12:34:29Z</time>
      </trkpt>
      <trkpt lat="-21.080934" lon="-44.168171">
        <ele>1066.7822295769313</ele>
        <time>2019-06-22T12:34:36Z</time>
      </trkpt>
      <trkpt lat="-21.080856" lon="-44.168142">
        <ele>1068.782474968771</ele>
        <time>2019-06-22T12:34:43Z</time>
      </trkpt>
      <trkpt lat="-21.080777" lon="-44.168102">
        <ele>1065.7827385200833</ele>
        <time>2019-06-22T12:34:50Z</time>
      </trkpt>
      <trkpt lat="-21.080702" lon="-44.168058">
        <ele>1064.7829985305598</ele>
        <time>2019-06-22T12:34:56Z</time>
      </trkpt>
      <trkpt lat="-21.080621" lon="-44.168016">
        <ele>1067.7832691775532</ele>
        <time>2019-06-22T12:35:05Z</time>
      </trkpt>
      <trkpt lat="-21.080566" lon="-44.167965">
        <ele>1067.7834828917964</ele>
        <time>2019-06-22T12:35:11Z</time>
      </trkpt>
      <trkpt lat="-21.080524" lon="-44.167896">
        <ele>1066.7836848138302</ele>
        <time>2019-06-22T12:35:20Z</time>
      </trkpt>
      <trkpt lat="-21.080444" lon="-44.167856">
        <ele>1061.7839518598275</ele>
        <time>2019-06-22T12:35:30Z</time>
      </trkpt>
      <trkpt lat="-21.080371" lon="-44.167806">
        <ele>1060.7842105066543</ele>
        <time>2019-06-22T12:35:41Z</time>
      </trkpt>
      <trkpt lat="-21.080303" lon="-44.167749">
        <ele>1058.7844689665276</ele>
        <time>2019-06-22T12:35:52Z</time>
      </trkpt>
      <trkpt lat="-21.080233" lon="-44.167699">
        <ele>1052.7847198298095</ele>
        <time>2019-06-22T12:36:03Z</time>
      </trkpt>
      <trkpt lat="-21.080201" lon="-44.167626">
        <ele>1053.7849008127937</ele>
        <time>2019-06-22T12:36:11Z</time>
      </trkpt>
      <trkpt lat="-21.080214" lon="-44.167532">
        <ele>1048.7849862145856</ele>
        <time>2019-06-22T12:36:22Z</time>
      </trkpt>
      <trkpt lat="-21.080167" lon="-44.167467">
        <ele>1040.7851950475367</ele>
        <time>2019-06-22T12:36:35Z</time>
      </trkpt>
      <trkpt lat="-21.080096" lon="-44.167414">
        <ele>1040.7854524079262</ele>
        <time>2019-06-22T12:37:04Z</time>
      </trkpt>
      <trkpt lat="-21.080035" lon="-44.167348">
        <ele>1035.7857000534937</ele>
        <time>2019-06-22T12:37:19Z</time>
      </trkpt>
      <trkpt lat="-21.079953" lon="-44.167310">
        <ele>1040.785968901042</ele>
        <time>2019-06-22T12:37:37Z</time>
      </trkpt>
      <trkpt lat="-21.079880" lon="-44.167313">
        <ele>1036.7861590068385</ele>
        <time>2019-06-22T12:37:47Z</time>
      </trkpt>
      <trkpt lat="-21.079795" lon="-44.167342">
        <ele>1041.7863512370293</ele>
        <time>2019-06-22T12:38:01Z</time>
      </trkpt>
      <trkpt lat="-21.079709" lon="-44.167354">
        <ele>1042.7865665009215</ele>
        <time>2019-06-22T12:38:18Z</time>
      </trkpt>
      <trkpt lat="-21.079626" lon="-44.167376">
        <ele>1044.7867612287898</ele>
        <time>2019-06-22T12:38:27Z</time>
      </trkpt>
      <trkpt lat="-21.079551" lon="-44.167417">
        <ele>1041.7869102897587</ele>
        <time>2019-06-22T12:38:39Z</time>
      </trkpt>
      <trkpt lat="-21.079473" lon="-44.167463">
        <ele>1038.787058731351</ele>
        <time>2019-06-22T12:38:58Z</time>
      </trkpt>
      <trkpt lat="-21.079399" lon="-44.167517">
        <ele>1036.7871877572852</ele>
        <time>2019-06-22T12:39:08Z</time>
      </trkpt>
      <trkpt lat="-21.079334" lon="-44.167540">
        <ele>1031.787334811892</ele>
        <time>2019-06-22T12:39:16Z</time>
      </trkpt>
      <trkpt lat="-21.079272" lon="-44.167582">
        <ele>1035.7874459915315</ele>
        <time>2019-06-22T12:39:28Z</time>
      </trkpt>
      <trkpt lat="-21.079185" lon="-44.167606">
        <ele>1033.7876491125082</ele>
        <time>2019-06-22T12:39:39Z</time>
      </trkpt>
      <trkpt lat="-21.079103" lon="-44.167645">
        <ele>1027.787820172808</ele>
        <time>2019-06-22T12:40:06Z</time>
      </trkpt>
      <trkpt lat="-21.079038" lon="-44.167703">
        <ele>1025.7879218239584</ele>
        <time>2019-06-22T12:40:55Z</time>
      </trkpt>
      <trkpt lat="-21.078976" lon="-44.167746">
        <ele>1026.7880342913165</ele>
        <time>2019-06-22T12:41:04Z</time>
      </trkpt>
      <trkpt lat="-21.078929" lon="-44.167813">
        <ele>1016.788076045714</ele>
        <time>2019-06-22T12:41:19Z</time>
      </trkpt>
      <trkpt lat="-21.078888" lon="-44.167898">
        <ele>1014.7880793806438</ele>
        <time>2019-06-22T12:41:29Z</time>
      </trkpt>
      <trkpt lat="-21.078845" lon="-44.167971">
        <ele>1004.7881004342681</ele>
        <time>2019-06-22T12:42:01Z</time>
      </trkpt>
      <trkpt lat="-21.078807" lon="-44.168043">
        <ele>997.7881132619875</ele>
        <time>2019-06-22T12:42:10Z</time>
      </trkpt>
      <trkpt lat="-21.078760" lon="-44.168124">
        <ele>997.7881361791813</ele>
        <time>2019-06-22T12:42:18Z</time>
      </trkpt>
      <trkpt lat="-21.078774" lon="-44.168209">
        <ele>995.7879929092657</ele>
        <time>2019-06-22T12:42:25Z</time>
      </trkpt>
      <trkpt lat="-21.078794" lon="-44.168287">
        <ele>994.7878409829888</ele>
        <time>2019-06-22T12:42:30Z</time>
      </trkpt>
      <trkpt lat="-21.078836" lon="-44.168350">
        <ele>991.7876469890728</ele>
        <time>2019-06-22T12:42:37Z</time>
      </trkpt>
      <trkpt lat="-21.078861" lon="-44.168433">
        <ele>997.7874742392947</ele>
        <time>2019-06-22T12:42:45Z</time>
      </trkpt>
      <trkpt lat="-21.078856" lon="-44.168504">
        <ele>999.7873992861189</ele>
        <time>2019-06-22T12:42:50Z</time>
      </trkpt>
      <trkpt lat="-21.078863" lon="-44.168598">
        <ele>1002.7872604896073</ele>
        <time>2019-06-22T12:42:58Z</time>
      </trkpt>
      <trkpt lat="-21.078847" lon="-44.168686">
        <ele>994.7871931909643</ele>
        <time>2019-06-22T12:43:12Z</time>
      </trkpt>
      <trkpt lat="-21.078844" lon="-44.168782">
        <ele>992.7870794993651</ele>
        <time>2019-06-22T12:43:24Z</time>
      </trkpt>
      <trkpt lat="-21.078842" lon="-44.168872">
        <ele>989.786971727884</ele>
        <time>2019-06-22T12:43:33Z</time>
      </trkpt>
      <trkpt lat="-21.078836" lon="-44.168954">
        <ele>983.7868852450727</ele>
        <time>2019-06-22T12:43:43Z</time>
      </trkpt>
      <trkpt lat="-21.078874" lon="-44.169007">
        <ele>980.786715906142</ele>
        <time>2019-06-22T12:43:48Z</time>
      </trkpt>
      <trkpt lat="-21.078942" lon="-44.169062">
        <ele>982.7864629541134</ele>
        <time>2019-06-22T12:43:53Z</time>
      </trkpt>
      <trkpt lat="-21.079009" lon="-44.169106">
        <ele>983.7862267292726</ele>
        <time>2019-06-22T12:43:59Z</time>
      </trkpt>
      <trkpt lat="-21.079063" lon="-44.169174">
        <ele>983.7859939514643</ele>
        <time>2019-06-22T12:44:06Z</time>
      </trkpt>
      <trkpt lat="-21.079108" lon="-44.169237">
        <ele>986.7857933090909</ele>
        <time>2019-06-22T12:44:11Z</time>
      </trkpt>
      <trkpt lat="-21.079161" lon="-44.169311">
        <ele>984.7855554544835</ele>
        <time>2019-06-22T12:44:16Z</time>
      </trkpt>
      <trkpt lat="-21.079193" lon="-44.169387">
        <ele>978.7853728490207</ele>
        <time>2019-06-22T12:44:24Z</time>
      </trkpt>
      <trkpt lat="-21.079254" lon="-44.169455">
        <ele>979.7851207221056</ele>
        <time>2019-06-22T12:44:36Z</time>
      </trkpt>
      <trkpt lat="-21.079317" lon="-44.169506">
        <ele>979.7848864009392</ele>
        <time>2019-06-22T12:44:44Z</time>
      </trkpt>
      <trkpt lat="-21.079371" lon="-44.169548">
        <ele>981.7846841869475</ele>
        <time>2019-06-22T12:44:49Z</time>
      </trkpt>
      <trkpt lat="-21.079440" lon="-44.169598">
        <ele>981.784435064956</ele>
        <time>2019-06-22T12:44:55Z</time>
      </trkpt>
      <trkpt lat="-21.079494" lon="-44.169635">
        <ele>978.7842402765094</ele>
        <time>2019-06-22T12:45:01Z</time>
      </trkpt>
      <trkpt lat="-21.079537" lon="-44.169716">
        <ele>979.7840206658965</ele>
        <time>2019-06-22T12:45:09Z</time>
      </trkpt>
      <trkpt lat="-21.079598" lon="-44.169781">
        <ele>981.7837715703146</ele>
        <time>2019-06-22T12:45:16Z</time>
      </trkpt>
      <trkpt lat="-21.079663" lon="-44.169828">
        <ele>979.7835350742041</ele>
        <time>2019-06-22T12:45:22Z</time>
      </trkpt>
      <trkpt lat="-21.079721" lon="-44.169891">
        <ele>979.7832980409776</ele>
        <time>2019-06-22T12:45:28Z</time>
      </trkpt>
      <trkpt lat="-21.079799" lon="-44.169936">
        <ele>977.7830289448896</ele>
        <time>2019-06-22T12:45:39Z</time>
      </trkpt>
      <trkpt lat="-21.079844" lon="-44.170012">
        <ele>980.7828097113</ele>
        <time>2019-06-22T12:46:00Z</time>
      </trkpt>
      <trkpt lat="-21.079832" lon="-44.170068">
        <ele>980.782770663649</ele>
        <time>2019-06-22T12:49:04Z</time>
      </trkpt>
      <trkpt lat="-21.079819" lon="-44.170040">
        <ele>991.7828401642263</ele>
        <time>2019-06-22T12:59:49Z</time>
      </trkpt>
      <trkpt lat="-21.079800" lon="-44.169926">
        <ele>1024.78303873856</ele>
        <time>2019-06-22T13:28:56Z</time>
      </trkpt>
      <trkpt lat="-21.079885" lon="-44.170081">
        <ele>976.7826106131891</ele>
        <time>2019-06-22T13:29:01Z</time>
      </trkpt>
      <trkpt lat="-21.079885" lon="-44.169987">
        <ele>987.7827295602434</ele>
        <time>2019-06-22T13:29:50Z</time>
      </trkpt>
      <trkpt lat="-21.079803" lon="-44.169954">
        <ele>984.7829947358074</ele>
        <time>2019-06-22T13:31:41Z</time>
      </trkpt>
      <trkpt lat="-21.079729" lon="-44.169902">
        <ele>981.7832615746762</ele>
        <time>2019-06-22T13:31:49Z</time>
      </trkpt>
      <trkpt lat="-21.079680" lon="-44.169856">
        <ele>978.7834531506189</ele>
        <time>2019-06-22T13:31:55Z</time>
      </trkpt>
      <trkpt lat="-21.079602" lon="-44.169822">
        <ele>980.7837102090043</ele>
        <time>2019-06-22T13:32:02Z</time>
      </trkpt>
      <trkpt lat="-21.079540" lon="-44.169764">
        <ele>987.7839523237177</ele>
        <time>2019-06-22T13:32:09Z</time>
      </trkpt>
      <trkpt lat="-21.079488" lon="-44.169695">
        <ele>987.7841821362086</ele>
        <time>2019-06-22T13:32:59Z</time>
      </trkpt>
      <trkpt lat="-21.079441" lon="-44.169614">
        <ele>989.7844101491926</ele>
        <time>2019-06-22T13:33:15Z</time>
      </trkpt>
      <trkpt lat="-21.079375" lon="-44.169555">
        <ele>987.7846646247117</ele>
        <time>2019-06-22T13:33:46Z</time>
      </trkpt>
      <trkpt lat="-21.079292" lon="-44.169546">
        <ele>986.784902371424</ele>
        <time>2019-06-22T13:33:54Z</time>
      </trkpt>
      <trkpt lat="-21.079259" lon="-44.169459">
        <ele>988.7851014590896</ele>
        <time>2019-06-22T13:34:00Z</time>
      </trkpt>
      <trkpt lat="-21.079235" lon="-44.169398">
        <ele>989.7852444243039</ele>
        <time>2019-06-22T13:34:04Z</time>
      </trkpt>
      <trkpt lat="-21.079194" lon="-44.169330">
        <ele>991.7854410087521</ele>
        <time>2019-06-22T13:34:10Z</time>
      </trkpt>
      <trkpt lat="-21.079142" lon="-44.169254">
        <ele>992.78567641174</ele>
        <time>2019-06-22T13:34:16Z</time>
      </trkpt>
      <trkpt lat="-21.079107" lon="-44.169219">
        <ele>996.7858173721092</ele>
        <time>2019-06-22T13:34:19Z</time>
      </trkpt>
      <trkpt lat="-21.079074" lon="-44.169160">
        <ele>996.7859822689081</ele>
        <time>2019-06-22T13:34:22Z</time>
      </trkpt>
      <trkpt lat="-21.079033" lon="-44.169098">
        <ele>996.7861716559264</ele>
        <time>2019-06-22T13:34:27Z</time>
      </trkpt>
      <trkpt lat="-21.078956" lon="-44.169058">
        <ele>1001.786431147956</ele>
        <time>2019-06-22T13:34:32Z</time>
      </trkpt>
      <trkpt lat="-21.078909" lon="-44.168988">
        <ele>999.7866452502733</ele>
        <time>2019-06-22T13:34:37Z</time>
      </trkpt>
      <trkpt lat="-21.078865" lon="-44.168909">
        <ele>994.7868646424298</ele>
        <time>2019-06-22T13:34:44Z</time>
      </trkpt>
      <trkpt lat="-21.078858" lon="-44.168816">
        <ele>991.7870007923357</ele>
        <time>2019-06-22T13:34:57Z</time>
      </trkpt>
      <trkpt lat="-21.078840" lon="-44.168731">
        <ele>989.787155841216</ele>
        <time>2019-06-22T13:35:09Z</time>
      </trkpt>
      <trkpt lat="-21.078849" lon="-44.168638">
        <ele>989.7872487275872</ele>
        <time>2019-06-22T13:35:18Z</time>
      </trkpt>
      <trkpt lat="-21.078907" lon="-44.168568">
        <ele>991.787182587272</ele>
        <time>2019-06-22T13:35:32Z</time>
      </trkpt>
      <trkpt lat="-21.078867" lon="-44.168487">
        <ele>993.7873920162419</ele>
        <time>2019-06-22T13:35:41Z</time>
      </trkpt>
      <trkpt lat="-21.078821" lon="-44.168411">
        <ele>989.7876105384166</ele>
        <time>2019-06-22T13:35:50Z</time>
      </trkpt>
      <trkpt lat="-21.078778" lon="-44.168342">
        <ele>995.7878126026518</ele>
        <time>2019-06-22T13:35:56Z</time>
      </trkpt>
      <trkpt lat="-21.078770" lon="-44.168261">
        <ele>993.7879367580448</ele>
        <time>2019-06-22T13:36:03Z</time>
      </trkpt>
      <trkpt lat="-21.078784" lon="-44.168197">
        <ele>996.7879790953218</ele>
        <time>2019-06-22T13:36:07Z</time>
      </trkpt>
      <trkpt lat="-21.078830" lon="-44.168131">
        <ele>999.787939606192</ele>
        <time>2019-06-22T13:36:12Z</time>
      </trkpt>
      <trkpt lat="-21.078860" lon="-44.168047">
        <ele>1005.7879631681968</ele>
        <time>2019-06-22T13:36:22Z</time>
      </trkpt>
      <trkpt lat="-21.078854" lon="-44.167964">
        <ele>1005.7880860104801</ele>
        <time>2019-06-22T13:36:28Z</time>
      </trkpt>
      <trkpt lat="-21.078869" lon="-44.167886">
        <ele>1003.7881435740115</ele>
        <time>2019-06-22T13:36:36Z</time>
      </trkpt>
      <trkpt lat="-21.078933" lon="-44.167837">
        <ele>1002.7880351377586</ele>
        <time>2019-06-22T13:36:48Z</time>
      </trkpt>
      <trkpt lat="-21.078984" lon="-44.167766">
        <ele>1004.7879851448935</ele>
        <time>2019-06-22T13:36:58Z</time>
      </trkpt>
      <trkpt lat="-21.079039" lon="-44.167712">
        <ele>1008.7879082957767</ele>
        <time>2019-06-22T13:37:07Z</time>
      </trkpt>
      <trkpt lat="-21.079112" lon="-44.167677">
        <ele>1007.7877556379882</ele>
        <time>2019-06-22T13:37:12Z</time>
      </trkpt>
      <trkpt lat="-21.079193" lon="-44.167649">
        <ele>1012.7875733155228</ele>
        <time>2019-06-22T13:37:23Z</time>
      </trkpt>
      <trkpt lat="-21.079280" lon="-44.167643">
        <ele>1011.7873489975129</ele>
        <time>2019-06-22T13:37:35Z</time>
      </trkpt>
      <trkpt lat="-21.079346" lon="-44.167589">
        <ele>1016.7872394916246</ele>
        <time>2019-06-22T13:37:49Z</time>
      </trkpt>
      <trkpt lat="-21.079410" lon="-44.167534">
        <ele>1019.7871393272883</ele>
        <time>2019-06-22T13:38:01Z</time>
      </trkpt>
      <trkpt lat="-21.079460" lon="-44.167455">
        <ele>1018.7871048335775</ele>
        <time>2019-06-22T13:38:14Z</time>
      </trkpt>
      <trkpt lat="-21.079532" lon="-44.167427">
        <ele>1022.7869475285103</ele>
        <time>2019-06-22T13:38:23Z</time>
      </trkpt>
      <trkpt lat="-21.079565" lon="-44.167354">
        <ele>1020.7869509878453</ele>
        <time>2019-06-22T13:38:30Z</time>
      </trkpt>
      <trkpt lat="-21.079637" lon="-44.167334">
        <ele>1021.7867843687683</ele>
        <time>2019-06-22T13:38:39Z</time>
      </trkpt>
      <trkpt lat="-21.079719" lon="-44.167311">
        <ele>1027.7865949407515</ele>
        <time>2019-06-22T13:38:54Z</time>
      </trkpt>
      <trkpt lat="-21.079799" lon="-44.167313">
        <ele>1034.7863774262644</ele>
        <time>2019-06-22T13:39:06Z</time>
      </trkpt>
      <trkpt lat="-21.079885" lon="-44.167320">
        <ele>1033.7861376055596</ele>
        <time>2019-06-22T13:39:15Z</time>
      </trkpt>
      <trkpt lat="-21.079960" lon="-44.167356">
        <ele>1034.785890776262</ele>
        <time>2019-06-22T13:39:26Z</time>
      </trkpt>
      <trkpt lat="-21.080042" lon="-44.167383">
        <ele>1037.7856365915763</ele>
        <time>2019-06-22T13:39:46Z</time>
      </trkpt>
      <trkpt lat="-21.080121" lon="-44.167429">
        <ele>1038.7853672502304</ele>
        <time>2019-06-22T13:39:58Z</time>
      </trkpt>
      <trkpt lat="-21.080190" lon="-44.167470">
        <ele>1040.7851291288664</ele>
        <time>2019-06-22T13:40:09Z</time>
      </trkpt>
      <trkpt lat="-21.080234" lon="-44.167552">
        <ele>1047.784906370727</ele>
        <time>2019-06-22T13:40:27Z</time>
      </trkpt>
      <trkpt lat="-21.080260" lon="-44.167633">
        <ele>1044.7847329659098</ele>
        <time>2019-06-22T13:40:53Z</time>
      </trkpt>
      <trkpt lat="-21.080328" lon="-44.167690">
        <ele>1041.7844771709636</ele>
        <time>2019-06-22T13:41:04Z</time>
      </trkpt>
      <trkpt lat="-21.080381" lon="-44.167749">
        <ele>1046.7842594761114</ele>
        <time>2019-06-22T13:41:20Z</time>
      </trkpt>
      <trkpt lat="-21.080431" lon="-44.167812">
        <ele>1047.7840444602034</ele>
        <time>2019-06-22T13:41:26Z</time>
      </trkpt>
      <trkpt lat="-21.080494" lon="-44.167868">
        <ele>1049.7838030548758</ele>
        <time>2019-06-22T13:41:32Z</time>
      </trkpt>
      <trkpt lat="-21.080575" lon="-44.167889">
        <ele>1051.7835582855018</ele>
        <time>2019-06-22T13:41:43Z</time>
      </trkpt>
      <trkpt lat="-21.080638" lon="-44.167949">
        <ele>1052.7833107062345</ele>
        <time>2019-06-22T13:42:00Z</time>
      </trkpt>
      <trkpt lat="-21.080692" lon="-44.168013">
        <ele>1053.7830832597776</ele>
        <time>2019-06-22T13:42:08Z</time>
      </trkpt>
      <trkpt lat="-21.080770" lon="-44.168055">
        <ele>1058.7828184953917</ele>
        <time>2019-06-22T13:42:18Z</time>
      </trkpt>
      <trkpt lat="-21.080841" lon="-44.168096">
        <ele>1054.7825764151203</ele>
        <time>2019-06-22T13:42:33Z</time>
      </trkpt>
      <trkpt lat="-21.080911" lon="-44.168130">
        <ele>1052.7823418812723</ele>
        <time>2019-06-22T13:42:40Z</time>
      </trkpt>
      <trkpt lat="-21.080993" lon="-44.168160">
        <ele>1051.7820843909192</ele>
        <time>2019-06-22T13:42:47Z</time>
      </trkpt>
      <trkpt lat="-21.081073" lon="-44.168181">
        <ele>1053.7818409982483</ele>
        <time>2019-06-22T13:42:54Z</time>
      </trkpt>
      <trkpt lat="-21.081149" lon="-44.168231">
        <ele>1055.7815720996352</ele>
        <time>2019-06-22T13:43:01Z</time>
      </trkpt>
      <trkpt lat="-21.081225" lon="-44.168265">
        <ele>1054.7813212092615</ele>
        <time>2019-06-22T13:43:08Z</time>
      </trkpt>
      <trkpt lat="-21.081224" lon="-44.168356">
        <ele>1052.7812056293296</ele>
        <time>2019-06-22T13:43:20Z</time>
      </trkpt>
      <trkpt lat="-21.081161" lon="-44.168415">
        <ele>1049.781300572927</ele>
        <time>2019-06-22T13:43:28Z</time>
      </trkpt>
      <trkpt lat="-21.081129" lon="-44.168501">
        <ele>1050.7812756069252</ele>
        <time>2019-06-22T13:43:40Z</time>
      </trkpt>
      <trkpt lat="-21.081056" lon="-44.168556">
        <ele>1051.781399749376</ele>
        <time>2019-06-22T13:43:50Z</time>
      </trkpt>
      <trkpt lat="-21.081002" lon="-44.168612">
        <ele>1045.781472783254</ele>
        <time>2019-06-22T13:43:59Z</time>
      </trkpt>
      <trkpt lat="-21.080929" lon="-44.168649">
        <ele>1045.7816232907792</ele>
        <time>2019-06-22T13:44:09Z</time>
      </trkpt>
      <trkpt lat="-21.080839" lon="-44.168647">
        <ele>1044.7818678044805</ele>
        <time>2019-06-22T13:44:17Z</time>
      </trkpt>
      <trkpt lat="-21.080775" lon="-44.168707">
        <ele>1049.781962134166</ele>
        <time>2019-06-22T13:44:38Z</time>
      </trkpt>
      <trkpt lat="-21.080696" lon="-44.168711">
        <ele>1045.7821718467155</ele>
        <time>2019-06-22T13:44:58Z</time>
      </trkpt>
      <trkpt lat="-21.080631" lon="-44.168760">
        <ele>1040.782282600988</ele>
        <time>2019-06-22T13:45:20Z</time>
      </trkpt>
      <trkpt lat="-21.080554" lon="-44.168805">
        <ele>1030.782434392832</ele>
        <time>2019-06-22T13:45:48Z</time>
      </trkpt>
      <trkpt lat="-21.080624" lon="-44.168760">
        <ele>1036.7823021351064</ele>
        <time>2019-06-22T13:46:59Z</time>
      </trkpt>
      <trkpt lat="-21.080686" lon="-44.168709">
        <ele>1041.7822004600816</ele>
        <time>2019-06-22T13:47:11Z</time>
      </trkpt>
      <trkpt lat="-21.080751" lon="-44.168655">
        <ele>1044.782094760228</ele>
        <time>2019-06-22T13:47:27Z</time>
      </trkpt>
      <trkpt lat="-21.080829" lon="-44.168653">
        <ele>1045.7818863258829</ele>
        <time>2019-06-22T13:47:34Z</time>
      </trkpt>
      <trkpt lat="-21.080910" lon="-44.168650">
        <ele>1045.7816740641103</ele>
        <time>2019-06-22T13:47:58Z</time>
      </trkpt>
      <trkpt lat="-21.080979" lon="-44.168606">
        <ele>1044.7815427573505</ele>
        <time>2019-06-22T13:48:11Z</time>
      </trkpt>
      <trkpt lat="-21.081046" lon="-44.168548">
        <ele>1043.7814389490522</ele>
        <time>2019-06-22T13:48:22Z</time>
      </trkpt>
      <trkpt lat="-21.081108" lon="-44.168484">
        <ele>1052.7813518684832</ele>
        <time>2019-06-22T13:48:38Z</time>
      </trkpt>
      <trkpt lat="-21.081160" lon="-44.168408">
        <ele>1057.7813115588747</ele>
        <time>2019-06-22T13:48:53Z</time>
      </trkpt>
      <trkpt lat="-21.081226" lon="-44.168356">
        <ele>1062.7812025174044</ele>
        <time>2019-06-22T13:49:02Z</time>
      </trkpt>
      <trkpt lat="-21.081307" lon="-44.168352">
        <ele>1060.7809890022481</ele>
        <time>2019-06-22T13:49:13Z</time>
      </trkpt>
      <trkpt lat="-21.081381" lon="-44.168402">
        <ele>1057.7807260280167</ele>
        <time>2019-06-22T13:49:25Z</time>
      </trkpt>
      <trkpt lat="-21.081438" lon="-44.168458">
        <ele>1062.780498547702</ele>
        <time>2019-06-22T13:49:35Z</time>
      </trkpt>
      <trkpt lat="-21.081494" lon="-44.168531">
        <ele>1062.7802525816655</ele>
        <time>2019-06-22T13:49:44Z</time>
      </trkpt>
      <trkpt lat="-21.081581" lon="-44.168544">
        <ele>1066.7800011305162</ele>
        <time>2019-06-22T13:49:55Z</time>
      </trkpt>
      <trkpt lat="-21.081640" lon="-44.168589">
        <ele>1064.7797824522538</ele>
        <time>2019-06-22T13:50:01Z</time>
      </trkpt>
      <trkpt lat="-21.081720" lon="-44.168631">
        <ele>1068.7795119954415</ele>
        <time>2019-06-22T13:50:11Z</time>
      </trkpt>
      <trkpt lat="-21.081782" lon="-44.168687">
        <ele>1069.7792703656062</ele>
        <time>2019-06-22T13:50:18Z</time>
      </trkpt>
      <trkpt lat="-21.081853" lon="-44.168732">
        <ele>1066.7790219383992</ele>
        <time>2019-06-22T13:50:25Z</time>
      </trkpt>
      <trkpt lat="-21.081917" lon="-44.168787">
        <ele>1066.7787745248993</ele>
        <time>2019-06-22T13:50:37Z</time>
      </trkpt>
      <trkpt lat="-21.081994" lon="-44.168830">
        <ele>1068.7785121970023</ele>
        <time>2019-06-22T13:50:45Z</time>
      </trkpt>
      <trkpt lat="-21.082073" lon="-44.168867">
        <ele>1062.778248193701</ele>
        <time>2019-06-22T13:50:58Z</time>
      </trkpt>
      <trkpt lat="-21.082142" lon="-44.168923">
        <ele>1063.777987485276</ele>
        <time>2019-06-22T13:51:11Z</time>
      </trkpt>
      <trkpt lat="-21.082221" lon="-44.168960">
        <ele>1065.7777274537887</ele>
        <time>2019-06-22T13:51:25Z</time>
      </trkpt>
      <trkpt lat="-21.082309" lon="-44.168979">
        <ele>1065.777465187333</ele>
        <time>2019-06-22T13:51:36Z</time>
      </trkpt>
      <trkpt lat="-21.082368" lon="-44.169034">
        <ele>1065.7772318631078</ele>
        <time>2019-06-22T13:51:45Z</time>
      </trkpt>
      <trkpt lat="-21.082452" lon="-44.169057">
        <ele>1072.7769729861159</ele>
        <time>2019-06-22T13:51:57Z</time>
      </trkpt>
      <trkpt lat="-21.082528" lon="-44.169109">
        <ele>1074.776700075626</ele>
        <time>2019-06-22T13:52:14Z</time>
      </trkpt>
      <trkpt lat="-21.082590" lon="-44.169176">
        <ele>1077.776445419968</ele>
        <time>2019-06-22T13:52:28Z</time>
      </trkpt>
      <trkpt lat="-21.082667" lon="-44.169204">
        <ele>1076.7761980778432</ele>
        <time>2019-06-22T13:52:38Z</time>
      </trkpt>
      <trkpt lat="-21.082751" lon="-44.169236">
        <ele>1077.7759276246593</ele>
        <time>2019-06-22T13:52:46Z</time>
      </trkpt>
      <trkpt lat="-21.082839" lon="-44.169246">
        <ele>1081.775677151445</ele>
        <time>2019-06-22T13:53:00Z</time>
      </trkpt>
      <trkpt lat="-21.082913" lon="-44.169241">
        <ele>1083.7754843369003</ele>
        <time>2019-06-22T13:53:12Z</time>
      </trkpt>
      <trkpt lat="-21.082999" lon="-44.169262">
        <ele>1085.7752226289497</ele>
        <time>2019-06-22T13:53:26Z</time>
      </trkpt>
      <trkpt lat="-21.083086" lon="-44.169279">
        <ele>1083.7749641612832</ele>
        <time>2019-06-22T13:53:36Z</time>
      </trkpt>
      <trkpt lat="-21.083126" lon="-44.169206">
        <ele>1087.7749533221581</ele>
        <time>2019-06-22T13:54:01Z</time>
      </trkpt>
      <trkpt lat="-21.083213" lon="-44.169190">
        <ele>1093.7747386810577</ele>
        <time>2019-06-22T13:54:12Z</time>
      </trkpt>
      <trkpt lat="-21.083281" lon="-44.169151">
        <ele>1096.7746064278208</ele>
        <time>2019-06-22T13:54:24Z</time>
      </trkpt>
      <trkpt lat="-21.083340" lon="-44.169096">
        <ele>1098.7745188808224</ele>
        <time>2019-06-22T13:54:31Z</time>
      </trkpt>
      <trkpt lat="-21.083418" lon="-44.169109">
        <ele>1097.7742904937272</ele>
        <time>2019-06-22T13:54:42Z</time>
      </trkpt>
      <trkpt lat="-21.083476" lon="-44.169169">
        <ele>1098.7740567938215</ele>
        <time>2019-06-22T13:54:48Z</time>
      </trkpt>
      <trkpt lat="-21.083540" lon="-44.169210">
        <ele>1099.7738271456</ele>
        <time>2019-06-22T13:54:53Z</time>
      </trkpt>
      <trkpt lat="-21.083622" lon="-44.169227">
        <ele>1100.7735815909514</ele>
        <time>2019-06-22T13:55:26Z</time>
      </trkpt>
      <trkpt lat="-21.083696" lon="-44.169251">
        <ele>1097.7733504404187</ele>
        <time>2019-06-22T13:55:32Z</time>
      </trkpt>
      <trkpt lat="-21.083764" lon="-44.169256">
        <ele>1098.7731585078013</ele>
        <time>2019-06-22T13:55:37Z</time>
      </trkpt>
      <trkpt lat="-21.083838" lon="-44.169256">
        <ele>1094.7729587816928</ele>
        <time>2019-06-22T13:55:43Z</time>
      </trkpt>
      <trkpt lat="-21.083889" lon="-44.169314">
        <ele>1092.7727421414027</ele>
        <time>2019-06-22T13:55:49Z</time>
      </trkpt>
      <trkpt lat="-21.083906" lon="-44.169407">
        <ele>1095.772570424872</ele>
        <time>2019-06-22T13:55:55Z</time>
      </trkpt>
      <trkpt lat="-21.083921" lon="-44.169491">
        <ele>1093.7724179218894</ele>
        <time>2019-06-22T13:56:03Z</time>
      </trkpt>
      <trkpt lat="-21.083967" lon="-44.169548">
        <ele>1092.772217409804</ele>
        <time>2019-06-22T13:56:20Z</time>
      </trkpt>
      <trkpt lat="-21.084010" lon="-44.169629">
        <ele>1093.7719905347244</ele>
        <time>2019-06-22T13:56:28Z</time>
      </trkpt>
      <trkpt lat="-21.084063" lon="-44.169690">
        <ele>1096.7717647804698</ele>
        <time>2019-06-22T13:56:35Z</time>
      </trkpt>
      <trkpt lat="-21.084050" lon="-44.169785">
        <ele>1098.7716734063526</ele>
        <time>2019-06-22T13:56:42Z</time>
      </trkpt>
      <trkpt lat="-21.084040" lon="-44.169866">
        <ele>1101.7715903003316</ele>
        <time>2019-06-22T13:56:50Z</time>
      </trkpt>
      <trkpt lat="-21.084011" lon="-44.169942">
        <ele>1096.7715691267638</ele>
        <time>2019-06-22T13:57:03Z</time>
      </trkpt>
      <trkpt lat="-21.084038" lon="-44.170032">
        <ele>1095.771372924596</ele>
        <time>2019-06-22T13:57:26Z</time>
      </trkpt>
      <trkpt lat="-21.084001" lon="-44.170107">
        <ele>1091.771374283433</ele>
        <time>2019-06-22T13:57:42Z</time>
      </trkpt>
      <trkpt lat="-21.083917" lon="-44.170128">
        <ele>1091.7715749831318</ele>
        <time>2019-06-22T13:57:51Z</time>
      </trkpt>
      <trkpt lat="-21.083837" lon="-44.170139">
        <ele>1092.7717774470125</ele>
        <time>2019-06-22T13:58:00Z</time>
      </trkpt>
      <trkpt lat="-21.083759" lon="-44.170127">
        <ele>1092.7720041030577</ele>
        <time>2019-06-22T13:58:11Z</time>
      </trkpt>
      <trkpt lat="-21.083682" lon="-44.170106">
        <ele>1089.7722418171443</ele>
        <time>2019-06-22T13:58:17Z</time>
      </trkpt>
      <trkpt lat="-21.083608" lon="-44.170157">
        <ele>1099.7723755431339</ele>
        <time>2019-06-22T13:58:32Z</time>
      </trkpt>
      <trkpt lat="-21.083618" lon="-44.170248">
        <ele>1103.7722268472296</ele>
        <time>2019-06-22T13:58:44Z</time>
      </trkpt>
      <trkpt lat="-21.083659" lon="-44.170334">
        <ele>1115.772000436654</ele>
        <time>2019-06-22T13:58:57Z</time>
      </trkpt>
      <trkpt lat="-21.083740" lon="-44.170363">
        <ele>1119.7717401635466</ele>
        <time>2019-06-22T13:59:06Z</time>
      </trkpt>
      <trkpt lat="-21.083810" lon="-44.170382">
        <ele>1117.7715252325982</ele>
        <time>2019-06-22T13:59:12Z</time>
      </trkpt>
      <trkpt lat="-21.083870" lon="-44.170412">
        <ele>1117.7713201793674</ele>
        <time>2019-06-22T13:59:17Z</time>
      </trkpt>
      <trkpt lat="-21.083946" lon="-44.170446">
        <ele>1118.771069876476</ele>
        <time>2019-06-22T13:59:27Z</time>
      </trkpt>
      <trkpt lat="-21.084020" lon="-44.170476">
        <ele>1116.7708262492033</ele>
        <time>2019-06-22T13:59:35Z</time>
      </trkpt>
      <trkpt lat="-21.084094" lon="-44.170510">
        <ele>1119.7705782400817</ele>
        <time>2019-06-22T13:59:44Z</time>
      </trkpt>
      <trkpt lat="-21.084170" lon="-44.170536">
        <ele>1114.7703363037951</ele>
        <time>2019-06-22T13:59:51Z</time>
      </trkpt>
      <trkpt lat="-21.084232" lon="-44.170594">
        <ele>1114.7700892379232</ele>
        <time>2019-06-22T13:59:58Z</time>
      </trkpt>
      <trkpt lat="-21.084290" lon="-44.170666">
        <ele>1110.7698325878207</ele>
        <time>2019-06-22T14:00:07Z</time>
      </trkpt>
      <trkpt lat="-21.084348" lon="-44.170722">
        <ele>1111.7695993218176</ele>
        <time>2019-06-22T14:00:18Z</time>
      </trkpt>
      <trkpt lat="-21.084428" lon="-44.170752">
        <ele>1115.769340419696</ele>
        <time>2019-06-22T14:00:33Z</time>
      </trkpt>
      <trkpt lat="-21.084498" lon="-44.170794">
        <ele>1119.7690915631886</ele>
        <time>2019-06-22T14:00:42Z</time>
      </trkpt>
      <trkpt lat="-21.084562" lon="-44.170852">
        <ele>1124.7688369761638</ele>
        <time>2019-06-22T14:00:53Z</time>
      </trkpt>
      <trkpt lat="-21.084628" lon="-44.170916">
        <ele>1128.768573167511</ele>
        <time>2019-06-22T14:00:58Z</time>
      </trkpt>
      <trkpt lat="-21.084670" lon="-44.170992">
        <ele>1128.7683552211672</ele>
        <time>2019-06-22T14:01:06Z</time>
      </trkpt>
      <trkpt lat="-21.084716" lon="-44.171057">
        <ele>1126.7681389393356</ele>
        <time>2019-06-22T14:01:14Z</time>
      </trkpt>
      <trkpt lat="-21.084772" lon="-44.171119">
        <ele>1127.7679026733824</ele>
        <time>2019-06-22T14:01:21Z</time>
      </trkpt>
      <trkpt lat="-21.084828" lon="-44.171178">
        <ele>1128.767668996987</ele>
        <time>2019-06-22T14:01:28Z</time>
      </trkpt>
      <trkpt lat="-21.084898" lon="-44.171229">
        <ele>1132.7674074577951</ele>
        <time>2019-06-22T14:01:35Z</time>
      </trkpt>
      <trkpt lat="-21.084965" lon="-44.171264">
        <ele>1139.7671778279862</ele>
        <time>2019-06-22T14:01:43Z</time>
      </trkpt>
      <trkpt lat="-21.085040" lon="-44.171304">
        <ele>1136.7669167913348</ele>
        <time>2019-06-22T14:01:53Z</time>
      </trkpt>
      <trkpt lat="-21.085100" lon="-44.171371">
        <ele>1140.76666083792</ele>
        <time>2019-06-22T14:02:04Z</time>
      </trkpt>
      <trkpt lat="-21.085159" lon="-44.171402">
        <ele>1137.766457504087</ele>
        <time>2019-06-22T14:02:10Z</time>
      </trkpt>
      <trkpt lat="-21.085229" lon="-44.171450">
        <ele>1136.7662002147129</ele>
        <time>2019-06-22T14:02:16Z</time>
      </trkpt>
      <trkpt lat="-21.085287" lon="-44.171500">
        <ele>1132.7659724749644</ele>
        <time>2019-06-22T14:02:23Z</time>
      </trkpt>
      <trkpt lat="-21.085349" lon="-44.171558">
        <ele>1128.7657221828424</ele>
        <time>2019-06-22T14:02:30Z</time>
      </trkpt>
      <trkpt lat="-21.085405" lon="-44.171629">
        <ele>1132.7654713056545</ele>
        <time>2019-06-22T14:02:40Z</time>
      </trkpt>
      <trkpt lat="-21.085477" lon="-44.171665">
        <ele>1135.7652259997728</ele>
        <time>2019-06-22T14:02:48Z</time>
      </trkpt>
      <trkpt lat="-21.085549" lon="-44.171693">
        <ele>1133.7649885445617</ele>
        <time>2019-06-22T14:02:54Z</time>
      </trkpt>
      <trkpt lat="-21.085626" lon="-44.171731">
        <ele>1134.7647252342977</ele>
        <time>2019-06-22T14:03:00Z</time>
      </trkpt>
      <trkpt lat="-21.085689" lon="-44.171774">
        <ele>1137.7644922133943</ele>
        <time>2019-06-22T14:03:06Z</time>
      </trkpt>
      <trkpt lat="-21.085760" lon="-44.171831">
        <ele>1133.7642196869715</ele>
        <time>2019-06-22T14:03:15Z</time>
      </trkpt>
      <trkpt lat="-21.085820" lon="-44.171872">
        <ele>1138.763998431317</ele>
        <time>2019-06-22T14:03:21Z</time>
      </trkpt>
      <trkpt lat="-21.085886" lon="-44.171909">
        <ele>1135.763765402744</ele>
        <time>2019-06-22T14:03:28Z</time>
      </trkpt>
      <trkpt lat="-21.085938" lon="-44.171976">
        <ele>1135.763531624192</ele>
        <time>2019-06-22T14:03:36Z</time>
      </trkpt>
      <trkpt lat="-21.085996" lon="-44.172014">
        <ele>1140.7633200201908</ele>
        <time>2019-06-22T14:03:43Z</time>
      </trkpt>
      <trkpt lat="-21.086053" lon="-44.172075">
        <ele>1136.7630779167046</ele>
        <time>2019-06-22T14:03:51Z</time>
      </trkpt>
      <trkpt lat="-21.086108" lon="-44.172151">
        <ele>1140.7628230223074</ele>
        <time>2019-06-22T14:03:59Z</time>
      </trkpt>
      <trkpt lat="-21.086170" lon="-44.172176">
        <ele>1140.7626173681977</ele>
        <time>2019-06-22T14:04:06Z</time>
      </trkpt>
      <trkpt lat="-21.086246" lon="-44.172222">
        <ele>1138.7623453513118</ele>
        <time>2019-06-22T14:04:14Z</time>
      </trkpt>
      <trkpt lat="-21.086312" lon="-44.172263">
        <ele>1140.7621064495715</ele>
        <time>2019-06-22T14:04:20Z</time>
      </trkpt>
      <trkpt lat="-21.086388" lon="-44.172309">
        <ele>1138.7618340877782</ele>
        <time>2019-06-22T14:04:28Z</time>
      </trkpt>
      <trkpt lat="-21.086456" lon="-44.172360">
        <ele>1145.7615752406532</ele>
        <time>2019-06-22T14:04:36Z</time>
      </trkpt>
      <trkpt lat="-21.086506" lon="-44.172425">
        <ele>1139.761347383732</ele>
        <time>2019-06-22T14:04:43Z</time>
      </trkpt>
      <trkpt lat="-21.086568" lon="-44.172491">
        <ele>1140.7610849243008</ele>
        <time>2019-06-22T14:04:50Z</time>
      </trkpt>
      <trkpt lat="-21.086638" lon="-44.172542">
        <ele>1140.7608204869261</ele>
        <time>2019-06-22T14:04:57Z</time>
      </trkpt>
      <trkpt lat="-21.086698" lon="-44.172613">
        <ele>1144.7605567675116</ele>
        <time>2019-06-22T14:05:05Z</time>
      </trkpt>
      <trkpt lat="-21.086766" lon="-44.172672">
        <ele>1151.7602869225186</ele>
        <time>2019-06-22T14:05:17Z</time>
      </trkpt>
      <trkpt lat="-21.086845" lon="-44.172708">
        <ele>1149.7600193293658</ele>
        <time>2019-06-22T14:05:25Z</time>
      </trkpt>
      <trkpt lat="-21.086896" lon="-44.172742">
        <ele>1146.7598305753293</ele>
        <time>2019-06-22T14:05:30Z</time>
      </trkpt>
      <trkpt lat="-21.086954" lon="-44.172808">
        <ele>1147.7595774785625</ele>
        <time>2019-06-22T14:05:37Z</time>
      </trkpt>
      <trkpt lat="-21.087022" lon="-44.172868">
        <ele>1144.7593085577575</ele>
        <time>2019-06-22T14:05:45Z</time>
      </trkpt>
      <trkpt lat="-21.087101" lon="-44.172904">
        <ele>1147.7590384937062</ele>
        <time>2019-06-22T14:05:52Z</time>
      </trkpt>
      <trkpt lat="-21.087170" lon="-44.172960">
        <ele>1147.75877061248</ele>
        <time>2019-06-22T14:05:59Z</time>
      </trkpt>
      <trkpt lat="-21.087236" lon="-44.173008">
        <ele>1151.7585202766534</ele>
        <time>2019-06-22T14:06:07Z</time>
      </trkpt>
      <trkpt lat="-21.087286" lon="-44.173062">
        <ele>1153.758305347731</ele>
        <time>2019-06-22T14:06:14Z</time>
      </trkpt>
      <trkpt lat="-21.087356" lon="-44.173123">
        <ele>1154.7580279231481</ele>
        <time>2019-06-22T14:06:23Z</time>
      </trkpt>
      <trkpt lat="-21.087425" lon="-44.173163">
        <ele>1155.7577804321802</ele>
        <time>2019-06-22T14:06:29Z</time>
      </trkpt>
      <trkpt lat="-21.087488" lon="-44.173214">
        <ele>1158.75753448288</ele>
        <time>2019-06-22T14:06:35Z</time>
      </trkpt>
      <trkpt lat="-21.087531" lon="-44.173266">
        <ele>1153.7573422202624</ele>
        <time>2019-06-22T14:06:42Z</time>
      </trkpt>
      <trkpt lat="-21.087593" lon="-44.173324">
        <ele>1162.757087658953</ele>
        <time>2019-06-22T14:06:51Z</time>
      </trkpt>
      <trkpt lat="-21.087656" lon="-44.173380">
        <ele>1164.7568338502956</ele>
        <time>2019-06-22T14:06:58Z</time>
      </trkpt>
      <trkpt lat="-21.087737" lon="-44.173417">
        <ele>1160.7565576299546</ele>
        <time>2019-06-22T14:07:07Z</time>
      </trkpt>
      <trkpt lat="-21.087809" lon="-44.173443">
        <ele>1159.756323548337</ele>
        <time>2019-06-22T14:07:14Z</time>
      </trkpt>
      <trkpt lat="-21.087890" lon="-44.173476">
        <ele>1160.756050961765</ele>
        <time>2019-06-22T14:07:21Z</time>
      </trkpt>
      <trkpt lat="-21.087955" lon="-44.173517">
        <ele>1161.7558131331393</ele>
        <time>2019-06-22T14:07:56Z</time>
      </trkpt>
      <trkpt lat="-21.088020" lon="-44.173549">
        <ele>1158.7555860799412</ele>
        <time>2019-06-22T14:08:02Z</time>
      </trkpt>
      <trkpt lat="-21.088080" lon="-44.173621">
        <ele>1159.7553187087315</ele>
        <time>2019-06-22T14:08:09Z</time>
      </trkpt>
      <trkpt lat="-21.088148" lon="-44.173680">
        <ele>1159.755046302687</ele>
        <time>2019-06-22T14:08:16Z</time>
      </trkpt>
      <trkpt lat="-21.088220" lon="-44.173723">
        <ele>1158.7547848346023</ele>
        <time>2019-06-22T14:08:24Z</time>
      </trkpt>
      <trkpt lat="-21.088280" lon="-44.173777">
        <ele>1165.7545423553215</ele>
        <time>2019-06-22T14:08:33Z</time>
      </trkpt>
      <trkpt lat="-21.088335" lon="-44.173823">
        <ele>1171.754325114379</ele>
        <time>2019-06-22T14:08:38Z</time>
      </trkpt>
      <trkpt lat="-21.088400" lon="-44.173890">
        <ele>1170.754051521214</ele>
        <time>2019-06-22T14:08:48Z</time>
      </trkpt>
      <trkpt lat="-21.088463" lon="-44.173921">
        <ele>1167.7538309667727</ele>
        <time>2019-06-22T14:08:54Z</time>
      </trkpt>
      <trkpt lat="-21.088521" lon="-44.173991">
        <ele>1167.7535700046383</ele>
        <time>2019-06-22T14:09:00Z</time>
      </trkpt>
      <trkpt lat="-21.088600" lon="-44.174018">
        <ele>1172.7533110959703</ele>
        <time>2019-06-22T14:09:10Z</time>
      </trkpt>
      <trkpt lat="-21.088678" lon="-44.174031">
        <ele>1175.7530756177225</ele>
        <time>2019-06-22T14:09:18Z</time>
      </trkpt>
      <trkpt lat="-21.088756" lon="-44.174075">
        <ele>1182.7527948281584</ele>
        <time>2019-06-22T14:09:28Z</time>
      </trkpt>
      <trkpt lat="-21.088820" lon="-44.174125">
        <ele>1179.752548168066</ele>
        <time>2019-06-22T14:09:36Z</time>
      </trkpt>
      <trkpt lat="-21.088879" lon="-44.174176">
        <ele>1178.752311132369</ele>
        <time>2019-06-22T14:09:43Z</time>
      </trkpt>
      <trkpt lat="-21.088944" lon="-44.174232">
        <ele>1181.7520496074114</ele>
        <time>2019-06-22T14:09:52Z</time>
      </trkpt>
      <trkpt lat="-21.088975" lon="-44.174303">
        <ele>1178.7518622492</ele>
        <time>2019-06-22T14:09:58Z</time>
      </trkpt>
      <trkpt lat="-21.089027" lon="-44.174380">
        <ele>1180.7516069780672</ele>
        <time>2019-06-22T14:10:07Z</time>
      </trkpt>
      <trkpt lat="-21.089106" lon="-44.174416">
        <ele>1179.7513362220259</ele>
        <time>2019-06-22T14:10:16Z</time>
      </trkpt>
      <trkpt lat="-21.089188" lon="-44.174453">
        <ele>1185.7510526287724</ele>
        <time>2019-06-22T14:10:24Z</time>
      </trkpt>
      <trkpt lat="-21.089260" lon="-44.174498">
        <ele>1193.7507896246611</ele>
        <time>2019-06-22T14:10:36Z</time>
      </trkpt>
      <trkpt lat="-21.089321" lon="-44.174564">
        <ele>1198.7505252841163</ele>
        <time>2019-06-22T14:10:48Z</time>
      </trkpt>
      <trkpt lat="-21.089366" lon="-44.174627">
        <ele>1199.7503095109157</ele>
        <time>2019-06-22T14:10:56Z</time>
      </trkpt>
      <trkpt lat="-21.089406" lon="-44.174695">
        <ele>1196.750101041889</ele>
        <time>2019-06-22T14:11:02Z</time>
      </trkpt>
      <trkpt lat="-21.089471" lon="-44.174725">
        <ele>1199.74987515196</ele>
        <time>2019-06-22T14:11:09Z</time>
      </trkpt>
      <trkpt lat="-21.089545" lon="-44.174769">
        <ele>1198.749605108506</ele>
        <time>2019-06-22T14:11:16Z</time>
      </trkpt>
      <trkpt lat="-21.089622" lon="-44.174818">
        <ele>1202.7493203688662</ele>
        <time>2019-06-22T14:11:25Z</time>
      </trkpt>
      <trkpt lat="-21.089672" lon="-44.174883">
        <ele>1199.7490861225087</ele>
        <time>2019-06-22T14:11:32Z</time>
      </trkpt>
      <trkpt lat="-21.089738" lon="-44.174937">
        <ele>1203.7488248956015</ele>
        <time>2019-06-22T14:11:40Z</time>
      </trkpt>
      <trkpt lat="-21.089784" lon="-44.174998">
        <ele>1204.7486079530847</ele>
        <time>2019-06-22T14:11:47Z</time>
      </trkpt>
      <trkpt lat="-21.089842" lon="-44.175060">
        <ele>1204.74835615168</ele>
        <time>2019-06-22T14:11:55Z</time>
      </trkpt>
      <trkpt lat="-21.089892" lon="-44.175103">
        <ele>1205.748153546337</ele>
        <time>2019-06-22T14:12:02Z</time>
      </trkpt>
      <trkpt lat="-21.089943" lon="-44.175165">
        <ele>1203.7479235593523</ele>
        <time>2019-06-22T14:12:08Z</time>
      </trkpt>
      <trkpt lat="-21.090002" lon="-44.175237">
        <ele>1207.7476539383024</ele>
        <time>2019-06-22T14:12:17Z</time>
      </trkpt>
      <trkpt lat="-21.090072" lon="-44.175279">
        <ele>1210.7473964704916</ele>
        <time>2019-06-22T14:12:24Z</time>
      </trkpt>
      <trkpt lat="-21.090130" lon="-44.175326">
        <ele>1210.7471651924595</ele>
        <time>2019-06-22T14:12:30Z</time>
      </trkpt>
      <trkpt lat="-21.090192" lon="-44.175365">
        <ele>1210.74693567069</ele>
        <time>2019-06-22T14:12:37Z</time>
      </trkpt>
      <trkpt lat="-21.090251" lon="-44.175421">
        <ele>1210.7466901112848</ele>
        <time>2019-06-22T14:12:44Z</time>
      </trkpt>
      <trkpt lat="-21.090302" lon="-44.175486">
        <ele>1212.7464510721588</ele>
        <time>2019-06-22T14:12:51Z</time>
      </trkpt>
      <trkpt lat="-21.090353" lon="-44.175562">
        <ele>1213.7461995877495</ele>
        <time>2019-06-22T14:12:58Z</time>
      </trkpt>
      <trkpt lat="-21.090412" lon="-44.175627">
        <ele>1209.7459399571374</ele>
        <time>2019-06-22T14:13:05Z</time>
      </trkpt>
      <trkpt lat="-21.090466" lon="-44.175678">
        <ele>1210.7457129647642</ele>
        <time>2019-06-22T14:13:13Z</time>
      </trkpt>
      <trkpt lat="-21.090500" lon="-44.175736">
        <ele>1208.745535115533</ele>
        <time>2019-06-22T14:13:21Z</time>
      </trkpt>
      <trkpt lat="-21.090540" lon="-44.175806">
        <ele>1210.7453194074267</ele>
        <time>2019-06-22T14:13:28Z</time>
      </trkpt>
      <trkpt lat="-21.090616" lon="-44.175843">
        <ele>1214.7450521445935</ele>
        <time>2019-06-22T14:13:36Z</time>
      </trkpt>
      <trkpt lat="-21.090682" lon="-44.175903">
        <ele>1210.74478020899</ele>
        <time>2019-06-22T14:13:45Z</time>
      </trkpt>
      <trkpt lat="-21.090743" lon="-44.175968">
        <ele>1206.7445128922018</ele>
        <time>2019-06-22T14:13:56Z</time>
      </trkpt>
      <trkpt lat="-21.090802" lon="-44.176034">
        <ele>1208.7442514542074</ele>
        <time>2019-06-22T14:14:05Z</time>
      </trkpt>
      <trkpt lat="-21.090852" lon="-44.176106">
        <ele>1207.744008818668</ele>
        <time>2019-06-22T14:14:12Z</time>
      </trkpt>
      <trkpt lat="-21.090908" lon="-44.176121">
        <ele>1209.7438262287312</ele>
        <time>2019-06-22T14:14:18Z</time>
      </trkpt>
      <trkpt lat="-21.090979" lon="-44.176176">
        <ele>1212.7435467750688</ele>
        <time>2019-06-22T14:14:25Z</time>
      </trkpt>
      <trkpt lat="-21.091038" lon="-44.176246">
        <ele>1209.7432780837887</ele>
        <time>2019-06-22T14:14:43Z</time>
      </trkpt>
      <trkpt lat="-21.091077" lon="-44.176325">
        <ele>1215.743053294807</ele>
        <time>2019-06-22T14:14:52Z</time>
      </trkpt>
      <trkpt lat="-21.091127" lon="-44.176394">
        <ele>1214.7428113295548</ele>
        <time>2019-06-22T14:14:59Z</time>
      </trkpt>
      <trkpt lat="-21.091199" lon="-44.176445">
        <ele>1215.74253427912</ele>
        <time>2019-06-22T14:15:06Z</time>
      </trkpt>
      <trkpt lat="-21.091250" lon="-44.176489">
        <ele>1218.7423277639105</ele>
        <time>2019-06-22T14:15:11Z</time>
      </trkpt>
      <trkpt lat="-21.091318" lon="-44.176550">
        <ele>1217.7420436278321</ele>
        <time>2019-06-22T14:15:19Z</time>
      </trkpt>
      <trkpt lat="-21.091374" lon="-44.176600">
        <ele>1216.7418144536095</ele>
        <time>2019-06-22T14:15:23Z</time>
      </trkpt>
      <trkpt lat="-21.091433" lon="-44.176636">
        <ele>1217.7415955464896</ele>
        <time>2019-06-22T14:15:30Z</time>
      </trkpt>
      <trkpt lat="-21.091493" lon="-44.176705">
        <ele>1219.7413221008796</ele>
        <time>2019-06-22T14:15:38Z</time>
      </trkpt>
      <trkpt lat="-21.091556" lon="-44.176763">
        <ele>1213.7410602953728</ele>
        <time>2019-06-22T14:15:46Z</time>
      </trkpt>
      <trkpt lat="-21.091623" lon="-44.176819">
        <ele>1217.7407905756381</ele>
        <time>2019-06-22T14:16:18Z</time>
      </trkpt>
      <trkpt lat="-21.091678" lon="-44.176878">
        <ele>1218.7405452873804</ele>
        <time>2019-06-22T14:16:26Z</time>
      </trkpt>
      <trkpt lat="-21.091734" lon="-44.176936">
        <ele>1219.7403024192288</ele>
        <time>2019-06-22T14:16:31Z</time>
      </trkpt>
      <trkpt lat="-21.091777" lon="-44.176994">
        <ele>1218.7400973325111</ele>
        <time>2019-06-22T14:16:35Z</time>
      </trkpt>
      <trkpt lat="-21.091815" lon="-44.177063">
        <ele>1218.7398865100697</ele>
        <time>2019-06-22T14:16:41Z</time>
      </trkpt>
      <trkpt lat="-21.091853" lon="-44.177136">
        <ele>1214.7396722638848</ele>
        <time>2019-06-22T14:16:46Z</time>
      </trkpt>
      <trkpt lat="-21.091917" lon="-44.177199">
        <ele>1218.7393976781677</ele>
        <time>2019-06-22T14:16:50Z</time>
      </trkpt>
      <trkpt lat="-21.091991" lon="-44.177240">
        <ele>1217.7391292512839</ele>
        <time>2019-06-22T14:16:59Z</time>
      </trkpt>
      <trkpt lat="-21.092070" lon="-44.177270">
        <ele>1220.738860459536</ele>
        <time>2019-06-22T14:17:05Z</time>
      </trkpt>
      <trkpt lat="-21.092144" lon="-44.177311">
        <ele>1221.7385903871188</ele>
        <time>2019-06-22T14:17:12Z</time>
      </trkpt>
      <trkpt lat="-21.092216" lon="-44.177319">
        <ele>1223.7383730273536</ele>
        <time>2019-06-22T14:17:17Z</time>
      </trkpt>
      <trkpt lat="-21.092296" lon="-44.177332">
        <ele>1227.73812813194</ele>
        <time>2019-06-22T14:17:23Z</time>
      </trkpt>
      <trkpt lat="-21.092363" lon="-44.177349">
        <ele>1225.737912772921</ele>
        <time>2019-06-22T14:17:28Z</time>
      </trkpt>
      <trkpt lat="-21.092444" lon="-44.177388">
        <ele>1226.7376229847216</ele>
        <time>2019-06-22T14:17:35Z</time>
      </trkpt>
      <trkpt lat="-21.092513" lon="-44.177429">
        <ele>1223.7373665951582</ele>
        <time>2019-06-22T14:17:45Z</time>
      </trkpt>
      <trkpt lat="-21.092573" lon="-44.177501">
        <ele>1223.7370907544816</ele>
        <time>2019-06-22T14:17:52Z</time>
      </trkpt>
      <trkpt lat="-21.092653" lon="-44.177534">
        <ele>1226.7368139405503</ele>
        <time>2019-06-22T14:18:02Z</time>
      </trkpt>
      <trkpt lat="-21.092716" lon="-44.177584">
        <ele>1230.7365632220233</ele>
        <time>2019-06-22T14:18:07Z</time>
      </trkpt>
      <trkpt lat="-21.092781" lon="-44.177618">
        <ele>1231.7363257757447</ele>
        <time>2019-06-22T14:18:14Z</time>
      </trkpt>
      <trkpt lat="-21.092836" lon="-44.177687">
        <ele>1229.7360664118764</ele>
        <time>2019-06-22T14:18:23Z</time>
      </trkpt>
      <trkpt lat="-21.092875" lon="-44.177763">
        <ele>1228.7358450224845</ele>
        <time>2019-06-22T14:18:31Z</time>
      </trkpt>
      <trkpt lat="-21.092919" lon="-44.177834">
        <ele>1226.7356128989884</ele>
        <time>2019-06-22T14:18:39Z</time>
      </trkpt>
      <trkpt lat="-21.092995" lon="-44.177881">
        <ele>1227.7353265844686</ele>
        <time>2019-06-22T14:18:45Z</time>
      </trkpt>
      <trkpt lat="-21.093074" lon="-44.177920">
        <ele>1229.735043813376</ele>
        <time>2019-06-22T14:18:53Z</time>
      </trkpt>
      <trkpt lat="-21.093122" lon="-44.177989">
        <ele>1231.734803807552</ele>
        <time>2019-06-22T14:18:59Z</time>
      </trkpt>
      <trkpt lat="-21.093160" lon="-44.178064">
        <ele>1230.734585765659</ele>
        <time>2019-06-22T14:19:06Z</time>
      </trkpt>
      <trkpt lat="-21.093204" lon="-44.178141">
        <ele>1228.7343434373186</ele>
        <time>2019-06-22T14:19:11Z</time>
      </trkpt>
      <trkpt lat="-21.093255" lon="-44.178182">
        <ele>1229.734138052232</ele>
        <time>2019-06-22T14:19:17Z</time>
      </trkpt>
      <trkpt lat="-21.093318" lon="-44.178249">
        <ele>1230.733859833772</ele>
        <time>2019-06-22T14:19:23Z</time>
      </trkpt>
      <trkpt lat="-21.093370" lon="-44.178314">
        <ele>1231.7336136107783</ele>
        <time>2019-06-22T14:19:28Z</time>
      </trkpt>
      <trkpt lat="-21.093415" lon="-44.178392">
        <ele>1230.7333697847191</ele>
        <time>2019-06-22T14:19:36Z</time>
      </trkpt>
      <trkpt lat="-21.093480" lon="-44.178450">
        <ele>1232.7330954961456</ele>
        <time>2019-06-22T14:19:46Z</time>
      </trkpt>
      <trkpt lat="-21.093544" lon="-44.178505">
        <ele>1232.732831736769</ele>
        <time>2019-06-22T14:19:54Z</time>
      </trkpt>
      <trkpt lat="-21.093578" lon="-44.178586">
        <ele>1235.7326130264362</ele>
        <time>2019-06-22T14:20:03Z</time>
      </trkpt>
      <trkpt lat="-21.093611" lon="-44.178648">
        <ele>1237.7324244556416</ele>
        <time>2019-06-22T14:20:20Z</time>
      </trkpt>
      <trkpt lat="-21.093668" lon="-44.178722">
        <ele>1239.732150747702</ele>
        <time>2019-06-22T14:20:28Z</time>
      </trkpt>
      <trkpt lat="-21.093720" lon="-44.178784">
        <ele>1237.7319079223391</ele>
        <time>2019-06-22T14:20:33Z</time>
      </trkpt>
      <trkpt lat="-21.093771" lon="-44.178829">
        <ele>1241.731696535609</ele>
        <time>2019-06-22T14:20:40Z</time>
      </trkpt>
      <trkpt lat="-21.093825" lon="-44.178882">
        <ele>1241.7314626137832</ele>
        <time>2019-06-22T14:20:46Z</time>
      </trkpt>
      <trkpt lat="-21.093885" lon="-44.178942">
        <ele>1242.7312006072473</ele>
        <time>2019-06-22T14:20:52Z</time>
      </trkpt>
      <trkpt lat="-21.093950" lon="-44.179000">
        <ele>1243.7309266556827</ele>
        <time>2019-06-22T14:20:59Z</time>
      </trkpt>
      <trkpt lat="-21.093997" lon="-44.179081">
        <ele>1240.730671645737</ele>
        <time>2019-06-22T14:21:07Z</time>
      </trkpt>
      <trkpt lat="-21.094046" lon="-44.179150">
        <ele>1240.7304272407412</ele>
        <time>2019-06-22T14:21:16Z</time>
      </trkpt>
      <trkpt lat="-21.094102" lon="-44.179215">
        <ele>1239.730167179092</ele>
        <time>2019-06-22T14:21:22Z</time>
      </trkpt>
      <trkpt lat="-21.094153" lon="-44.179261">
        <ele>1241.729953499996</ele>
        <time>2019-06-22T14:21:27Z</time>
      </trkpt>
      <trkpt lat="-21.094221" lon="-44.179310">
        <ele>1240.7296833260273</ele>
        <time>2019-06-22T14:21:36Z</time>
      </trkpt>
      <trkpt lat="-21.094251" lon="-44.179373">
        <ele>1241.7295014688307</ele>
        <time>2019-06-22T14:21:42Z</time>
      </trkpt>
      <trkpt lat="-21.094286" lon="-44.179457">
        <ele>1244.7292746153744</ele>
        <time>2019-06-22T14:21:47Z</time>
      </trkpt>
      <trkpt lat="-21.094349" lon="-44.179512">
        <ele>1241.7290120098671</ele>
        <time>2019-06-22T14:21:57Z</time>
      </trkpt>
      <trkpt lat="-21.094405" lon="-44.179558">
        <ele>1241.7287794787942</ele>
        <time>2019-06-22T14:22:03Z</time>
      </trkpt>
      <trkpt lat="-21.094466" lon="-44.179623">
        <ele>1240.7285071939098</ele>
        <time>2019-06-22T14:22:10Z</time>
      </trkpt>
      <trkpt lat="-21.094538" lon="-44.179668">
        <ele>1247.7282312784046</ele>
        <time>2019-06-22T14:22:18Z</time>
      </trkpt>
      <trkpt lat="-21.094608" lon="-44.179700">
        <ele>1248.7279842437047</ele>
        <time>2019-06-22T14:22:24Z</time>
      </trkpt>
      <trkpt lat="-21.094695" lon="-44.179699">
        <ele>1243.727736207239</ele>
        <time>2019-06-22T14:25:35Z</time>
      </trkpt>
      <trkpt lat="-21.094746" lon="-44.179626">
        <ele>1243.7276990232986</ele>
        <time>2019-06-22T14:27:22Z</time>
      </trkpt>
      <trkpt lat="-21.094697" lon="-44.179706">
        <ele>1250.7277179276725</ele>
        <time>2019-06-22T14:31:49Z</time>
      </trkpt>
      <trkpt lat="-21.094729" lon="-44.179624">
        <ele>1232.7277495074688</ele>
        <time>2019-06-22T14:34:15Z</time>
      </trkpt>
      <trkpt lat="-21.094684" lon="-44.179545">
        <ele>1232.728001270361</ele>
        <time>2019-06-22T14:36:05Z</time>
      </trkpt>
      <trkpt lat="-21.094682" lon="-44.179638">
        <ele>1245.7278649489158</ele>
        <time>2019-06-22T14:36:41Z</time>
      </trkpt>
      <trkpt lat="-21.094690" lon="-44.179733">
        <ele>1240.727697770192</ele>
        <time>2019-06-22T14:42:25Z</time>
      </trkpt>
      <trkpt lat="-21.094744" lon="-44.179793">
        <ele>1242.7274516629773</ele>
        <time>2019-06-22T14:42:31Z</time>
      </trkpt>
      <trkpt lat="-21.094763" lon="-44.179886">
        <ele>1243.7272549374263</ele>
        <time>2019-06-22T14:42:40Z</time>
      </trkpt>
      <trkpt lat="-21.094822" lon="-44.179933">
        <ele>1244.7270157597213</ele>
        <time>2019-06-22T14:42:44Z</time>
      </trkpt>
      <trkpt lat="-21.094883" lon="-44.179995">
        <ele>1249.7267442313814</ele>
        <time>2019-06-22T14:42:53Z</time>
      </trkpt>
      <trkpt lat="-21.094952" lon="-44.180052">
        <ele>1247.7264598476288</ele>
        <time>2019-06-22T14:43:02Z</time>
      </trkpt>
      <trkpt lat="-21.095003" lon="-44.180114">
        <ele>1249.7262164499543</ele>
        <time>2019-06-22T14:43:08Z</time>
      </trkpt>
      <trkpt lat="-21.095054" lon="-44.180190">
        <ele>1250.7259544671033</ele>
        <time>2019-06-22T14:43:16Z</time>
      </trkpt>
      <trkpt lat="-21.095131" lon="-44.180243">
        <ele>1248.7256528667026</ele>
        <time>2019-06-22T14:43:20Z</time>
      </trkpt>
      <trkpt lat="-21.095202" lon="-44.180301">
        <ele>1248.725359137875</ele>
        <time>2019-06-22T14:43:28Z</time>
      </trkpt>
      <trkpt lat="-21.095258" lon="-44.180363">
        <ele>1249.7251031568665</ele>
        <time>2019-06-22T14:43:35Z</time>
      </trkpt>
      <trkpt lat="-21.095311" lon="-44.180426">
        <ele>1249.7248560037601</ele>
        <time>2019-06-22T14:43:39Z</time>
      </trkpt>
      <trkpt lat="-21.095337" lon="-44.180509">
        <ele>1249.7246527103937</ele>
        <time>2019-06-22T14:43:47Z</time>
      </trkpt>
      <trkpt lat="-21.095340" lon="-44.180580">
        <ele>1247.7245339899807</ele>
        <time>2019-06-22T14:43:52Z</time>
      </trkpt>
      <trkpt lat="-21.095346" lon="-44.180670">
        <ele>1252.724381378811</ele>
        <time>2019-06-22T14:44:00Z</time>
      </trkpt>
      <trkpt lat="-21.095394" lon="-44.180748">
        <ele>1251.7241237733028</ele>
        <time>2019-06-22T14:44:05Z</time>
      </trkpt>
      <trkpt lat="-21.095441" lon="-44.180792">
        <ele>1253.7239198969692</ele>
        <time>2019-06-22T14:44:11Z</time>
      </trkpt>
      <trkpt lat="-21.095487" lon="-44.180845">
        <ele>1255.723706182615</ele>
        <time>2019-06-22T14:44:15Z</time>
      </trkpt>
      <trkpt lat="-21.095535" lon="-44.180928">
        <ele>1253.7234401011228</ele>
        <time>2019-06-22T14:44:20Z</time>
      </trkpt>
      <trkpt lat="-21.095569" lon="-44.181002">
        <ele>1254.723227500646</ele>
        <time>2019-06-22T14:44:31Z</time>
      </trkpt>
      <trkpt lat="-21.095641" lon="-44.181049">
        <ele>1254.7229485448033</ele>
        <time>2019-06-22T14:44:36Z</time>
      </trkpt>
      <trkpt lat="-21.095720" lon="-44.181094">
        <ele>1250.722651223424</ele>
        <time>2019-06-22T14:44:43Z</time>
      </trkpt>
      <trkpt lat="-21.095739" lon="-44.181155">
        <ele>1251.7225025599457</ele>
        <time>2019-06-22T14:44:48Z</time>
      </trkpt>
      <trkpt lat="-21.095791" lon="-44.181228">
        <ele>1254.7222394083358</ele>
        <time>2019-06-22T14:44:52Z</time>
      </trkpt>
      <trkpt lat="-21.095843" lon="-44.181288">
        <ele>1253.721998204335</ele>
        <time>2019-06-22T14:44:57Z</time>
      </trkpt>
      <trkpt lat="-21.095873" lon="-44.181365">
        <ele>1245.721792167255</ele>
        <time>2019-06-22T14:45:23Z</time>
      </trkpt>
      <trkpt lat="-21.095937" lon="-44.181412">
        <ele>1251.72153413458</ele>
        <time>2019-06-22T14:45:39Z</time>
      </trkpt>
      <trkpt lat="-21.095973" lon="-44.181500">
        <ele>1246.721294271157</ele>
        <time>2019-06-22T14:45:48Z</time>
      </trkpt>
      <trkpt lat="-21.096007" lon="-44.181586">
        <ele>1244.7210637533503</ele>
        <time>2019-06-22T14:45:55Z</time>
      </trkpt>
      <trkpt lat="-21.096020" lon="-44.181677">
        <ele>1238.720886605888</ele>
        <time>2019-06-22T14:46:15Z</time>
      </trkpt>
      <trkpt lat="-21.096074" lon="-44.181745">
        <ele>1238.7206242364196</ele>
        <time>2019-06-22T14:46:21Z</time>
      </trkpt>
      <trkpt lat="-21.096132" lon="-44.181815">
        <ele>1239.7203500826713</ele>
        <time>2019-06-22T14:46:25Z</time>
      </trkpt>
      <trkpt lat="-21.096190" lon="-44.181898">
        <ele>1240.7200500594472</ele>
        <time>2019-06-22T14:46:29Z</time>
      </trkpt>
      <trkpt lat="-21.096240" lon="-44.181970">
        <ele>1243.7197949205151</ele>
        <time>2019-06-22T14:46:33Z</time>
      </trkpt>
      <trkpt lat="-21.096259" lon="-44.182042">
        <ele>1243.719629430743</ele>
        <time>2019-06-22T14:46:37Z</time>
      </trkpt>
      <trkpt lat="-21.096284" lon="-44.182090">
        <ele>1245.719480116044</ele>
        <time>2019-06-22T14:46:40Z</time>
      </trkpt>
      <trkpt lat="-21.096343" lon="-44.182166">
        <ele>1246.7191931091809</ele>
        <time>2019-06-22T14:46:45Z</time>
      </trkpt>
      <trkpt lat="-21.096396" lon="-44.182244">
        <ele>1243.718918397537</ele>
        <time>2019-06-22T14:47:01Z</time>
      </trkpt>
      <trkpt lat="-21.096447" lon="-44.182318">
        <ele>1242.718656163241</ele>
        <time>2019-06-22T14:47:09Z</time>
      </trkpt>
      <trkpt lat="-21.096466" lon="-44.182379">
        <ele>1242.7185078058976</ele>
        <time>2019-06-22T14:47:13Z</time>
      </trkpt>
      <trkpt lat="-21.096536" lon="-44.182476">
        <ele>1246.7181537354982</ele>
        <time>2019-06-22T14:47:18Z</time>
      </trkpt>
      <trkpt lat="-21.096577" lon="-44.182543">
        <ele>1243.717927220723</ele>
        <time>2019-06-22T14:47:22Z</time>
      </trkpt>
      <trkpt lat="-21.096631" lon="-44.182612">
        <ele>1242.717663870459</ele>
        <time>2019-06-22T14:47:36Z</time>
      </trkpt>
      <trkpt lat="-21.096697" lon="-44.182662">
        <ele>1242.7173935368576</ele>
        <time>2019-06-22T14:47:42Z</time>
      </trkpt>
      <trkpt lat="-21.096741" lon="-44.182709">
        <ele>1242.7171917635446</ele>
        <time>2019-06-22T14:47:46Z</time>
      </trkpt>
      <trkpt lat="-21.096810" lon="-44.182790">
        <ele>1243.716867098574</ele>
        <time>2019-06-22T14:47:51Z</time>
      </trkpt>
      <trkpt lat="-21.096881" lon="-44.182857">
        <ele>1246.716554698318</ele>
        <time>2019-06-22T14:47:55Z</time>
      </trkpt>
      <trkpt lat="-21.096949" lon="-44.182928">
        <ele>1244.7162457361844</ele>
        <time>2019-06-22T14:48:00Z</time>
      </trkpt>
      <trkpt lat="-21.097026" lon="-44.182974">
        <ele>1238.7159480795744</ele>
        <time>2019-06-22T14:48:13Z</time>
      </trkpt>
      <trkpt lat="-21.097080" lon="-44.183029">
        <ele>1237.715704559552</ele>
        <time>2019-06-22T14:48:21Z</time>
      </trkpt>
      <trkpt lat="-21.097112" lon="-44.183102">
        <ele>1233.715497577216</ele>
        <time>2019-06-22T14:48:27Z</time>
      </trkpt>
      <trkpt lat="-21.097155" lon="-44.183174">
        <ele>1232.7152610438752</ele>
        <time>2019-06-22T14:48:31Z</time>
      </trkpt>
      <trkpt lat="-21.097206" lon="-44.183229">
        <ele>1234.7150231854898</ele>
        <time>2019-06-22T14:48:34Z</time>
      </trkpt>
      <trkpt lat="-21.097278" lon="-44.183309">
        <ele>1235.7146883133387</ele>
        <time>2019-06-22T14:48:39Z</time>
      </trkpt>
      <trkpt lat="-21.097299" lon="-44.183397">
        <ele>1239.7144911074656</ele>
        <time>2019-06-22T14:48:43Z</time>
      </trkpt>
      <trkpt lat="-21.097330" lon="-44.183463">
        <ele>1238.714296325923</ele>
        <time>2019-06-22T14:48:46Z</time>
      </trkpt>
      <trkpt lat="-21.097397" lon="-44.183527">
        <ele>1237.7140016809296</ele>
        <time>2019-06-22T14:49:00Z</time>
      </trkpt>
      <trkpt lat="-21.097459" lon="-44.183586">
        <ele>1231.7137261708776</ele>
        <time>2019-06-22T14:49:08Z</time>
      </trkpt>
      <trkpt lat="-21.097524" lon="-44.183627">
        <ele>1232.7134719548385</ele>
        <time>2019-06-22T14:49:12Z</time>
      </trkpt>
      <trkpt lat="-21.097576" lon="-44.183682">
        <ele>1233.7132330532838</ele>
        <time>2019-06-22T14:49:16Z</time>
      </trkpt>
      <trkpt lat="-21.097614" lon="-44.183749">
        <ele>1234.7130160894592</ele>
        <time>2019-06-22T14:49:20Z</time>
      </trkpt>
      <trkpt lat="-21.097668" lon="-44.183825">
        <ele>1235.7127375456505</ele>
        <time>2019-06-22T14:49:30Z</time>
      </trkpt>
      <trkpt lat="-21.097722" lon="-44.183896">
        <ele>1235.712468039308</ele>
        <time>2019-06-22T14:49:46Z</time>
      </trkpt>
      <trkpt lat="-21.097701" lon="-44.183976">
        <ele>1236.712405736622</ele>
        <time>2019-06-22T14:49:58Z</time>
      </trkpt>
      <trkpt lat="-21.097742" lon="-44.184050">
        <ele>1233.712170122041</ele>
        <time>2019-06-22T14:50:11Z</time>
      </trkpt>
      <trkpt lat="-21.097798" lon="-44.184115">
        <ele>1239.711903071004</ele>
        <time>2019-06-22T14:50:25Z</time>
      </trkpt>
      <trkpt lat="-21.097847" lon="-44.184192">
        <ele>1239.7116382788756</ele>
        <time>2019-06-22T14:50:34Z</time>
      </trkpt>
      <trkpt lat="-21.097933" lon="-44.184216">
        <ele>1247.7113462207017</ele>
        <time>2019-06-22T14:50:48Z</time>
      </trkpt>
      <trkpt lat="-21.098006" lon="-44.184261">
        <ele>1249.711060059287</ele>
        <time>2019-06-22T14:51:06Z</time>
      </trkpt>
      <trkpt lat="-21.098068" lon="-44.184326">
        <ele>1253.7107744779878</ele>
        <time>2019-06-22T14:51:14Z</time>
      </trkpt>
      <trkpt lat="-21.098118" lon="-44.184376">
        <ele>1250.7105501731232</ele>
        <time>2019-06-22T14:51:22Z</time>
      </trkpt>
      <trkpt lat="-21.098169" lon="-44.184437">
        <ele>1246.7103043233699</ele>
        <time>2019-06-22T14:51:29Z</time>
      </trkpt>
      <trkpt lat="-21.098192" lon="-44.184495">
        <ele>1246.710144304846</ele>
        <time>2019-06-22T14:51:33Z</time>
      </trkpt>
      <trkpt lat="-21.098250" lon="-44.184545">
        <ele>1246.7098963030155</ele>
        <time>2019-06-22T14:51:39Z</time>
      </trkpt>
      <trkpt lat="-21.098297" lon="-44.184622">
        <ele>1248.709634198675</ele>
        <time>2019-06-22T14:51:45Z</time>
      </trkpt>
      <trkpt lat="-21.098357" lon="-44.184654">
        <ele>1244.7094068787162</ele>
        <time>2019-06-22T14:51:49Z</time>
      </trkpt>
      <trkpt lat="-21.098430" lon="-44.184681">
        <ele>1244.7091509261656</ele>
        <time>2019-06-22T14:51:55Z</time>
      </trkpt>
      <trkpt lat="-21.098471" lon="-44.184756">
        <ele>1245.708908615683</ele>
        <time>2019-06-22T14:52:13Z</time>
      </trkpt>
      <trkpt lat="-21.098507" lon="-44.184840">
        <ele>1245.7086708859115</ele>
        <time>2019-06-22T14:52:20Z</time>
      </trkpt>
      <trkpt lat="-21.098565" lon="-44.184910">
        <ele>1250.7083884883275</ele>
        <time>2019-06-22T14:52:29Z</time>
      </trkpt>
      <trkpt lat="-21.098600" lon="-44.184975">
        <ele>1250.7081820788385</ele>
        <time>2019-06-22T14:52:37Z</time>
      </trkpt>
      <trkpt lat="-21.098673" lon="-44.185011">
        <ele>1251.7079103759397</ele>
        <time>2019-06-22T14:52:44Z</time>
      </trkpt>
      <trkpt lat="-21.098698" lon="-44.185089">
        <ele>1251.707714696844</ele>
        <time>2019-06-22T14:52:53Z</time>
      </trkpt>
      <trkpt lat="-21.098728" lon="-44.185158">
        <ele>1250.7075147654682</ele>
        <time>2019-06-22T14:52:59Z</time>
      </trkpt>
      <trkpt lat="-21.098768" lon="-44.185230">
        <ele>1252.7072832340707</ele>
        <time>2019-06-22T14:53:05Z</time>
      </trkpt>
      <trkpt lat="-21.098826" lon="-44.185271">
        <ele>1249.7070470837145</ele>
        <time>2019-06-22T14:53:11Z</time>
      </trkpt>
      <trkpt lat="-21.098884" lon="-44.185336">
        <ele>1253.706770276928</ele>
        <time>2019-06-22T14:53:20Z</time>
      </trkpt>
      <trkpt lat="-21.098953" lon="-44.185376">
        <ele>1249.706501999044</ele>
        <time>2019-06-22T14:53:29Z</time>
      </trkpt>
      <trkpt lat="-21.099035" lon="-44.185417">
        <ele>1252.7061968251487</ele>
        <time>2019-06-22T14:53:35Z</time>
      </trkpt>
      <trkpt lat="-21.099097" lon="-44.185459">
        <ele>1252.7059448556515</ele>
        <time>2019-06-22T14:53:42Z</time>
      </trkpt>
      <trkpt lat="-21.099142" lon="-44.185518">
        <ele>1254.7057166043087</ele>
        <time>2019-06-22T14:53:48Z</time>
      </trkpt>
      <trkpt lat="-21.099165" lon="-44.185596">
        <ele>1255.7055252303637</ele>
        <time>2019-06-22T14:53:52Z</time>
      </trkpt>
      <trkpt lat="-21.099201" lon="-44.185661">
        <ele>1253.7053153368827</ele>
        <time>2019-06-22T14:54:02Z</time>
      </trkpt>
      <trkpt lat="-21.099247" lon="-44.185731">
        <ele>1250.7050665603965</ele>
        <time>2019-06-22T14:54:07Z</time>
      </trkpt>
      <trkpt lat="-21.099317" lon="-44.185789">
        <ele>1247.7047684967167</ele>
        <time>2019-06-22T14:54:17Z</time>
      </trkpt>
      <trkpt lat="-21.099376" lon="-44.185840">
        <ele>1247.7045103342073</ele>
        <time>2019-06-22T14:54:23Z</time>
      </trkpt>
      <trkpt lat="-21.099420" lon="-44.185914">
        <ele>1248.7042635945554</ele>
        <time>2019-06-22T14:54:28Z</time>
      </trkpt>
      <trkpt lat="-21.099489" lon="-44.185970">
        <ele>1247.7039686082778</ele>
        <time>2019-06-22T14:54:38Z</time>
      </trkpt>
      <trkpt lat="-21.099556" lon="-44.186034">
        <ele>1250.7036675797087</ele>
        <time>2019-06-22T14:54:50Z</time>
      </trkpt>
      <trkpt lat="-21.099614" lon="-44.186104">
        <ele>1249.703384051983</ele>
        <time>2019-06-22T14:55:08Z</time>
      </trkpt>
      <trkpt lat="-21.099689" lon="-44.186156">
        <ele>1253.7030759993668</ele>
        <time>2019-06-22T14:55:15Z</time>
      </trkpt>
      <trkpt lat="-21.099758" lon="-44.186201">
        <ele>1252.7027977210503</ele>
        <time>2019-06-22T14:55:22Z</time>
      </trkpt>
      <trkpt lat="-21.099804" lon="-44.186281">
        <ele>1247.7025332253306</ele>
        <time>2019-06-22T14:55:31Z</time>
      </trkpt>
      <trkpt lat="-21.099861" lon="-44.186346">
        <ele>1250.7022614084105</ele>
        <time>2019-06-22T14:55:55Z</time>
      </trkpt>
      <trkpt lat="-21.099911" lon="-44.186421">
        <ele>1247.701991863504</ele>
        <time>2019-06-22T14:56:23Z</time>
      </trkpt>
      <trkpt lat="-21.099944" lon="-44.186508">
        <ele>1249.70175361866</ele>
        <time>2019-06-22T14:56:34Z</time>
      </trkpt>
      <trkpt lat="-21.100024" lon="-44.186548">
        <ele>1250.7014511286532</ele>
        <time>2019-06-22T14:56:42Z</time>
      </trkpt>
      <trkpt lat="-21.100096" lon="-44.186605">
        <ele>1248.7011458334414</ele>
        <time>2019-06-22T14:56:55Z</time>
      </trkpt>
      <trkpt lat="-21.100137" lon="-44.186668">
        <ele>1242.7009227377634</ele>
        <time>2019-06-22T14:57:03Z</time>
      </trkpt>
      <trkpt lat="-21.100186" lon="-44.186726">
        <ele>1240.7006846781223</ele>
        <time>2019-06-22T14:57:10Z</time>
      </trkpt>
      <trkpt lat="-21.100246" lon="-44.186792">
        <ele>1248.7003986656023</ele>
        <time>2019-06-22T14:57:19Z</time>
      </trkpt>
      <trkpt lat="-21.100291" lon="-44.186859">
        <ele>1251.7001560000238</ele>
        <time>2019-06-22T14:57:27Z</time>
      </trkpt>
      <trkpt lat="-21.100335" lon="-44.186938">
        <ele>1246.6998978324925</ele>
        <time>2019-06-22T14:57:35Z</time>
      </trkpt>
      <trkpt lat="-21.100374" lon="-44.186998">
        <ele>1243.6996833063777</ele>
        <time>2019-06-22T14:57:41Z</time>
      </trkpt>
      <trkpt lat="-21.100435" lon="-44.187057">
        <ele>1245.6994082632402</ele>
        <time>2019-06-22T14:57:51Z</time>
      </trkpt>
      <trkpt lat="-21.100486" lon="-44.187132">
        <ele>1246.6991327854796</ele>
        <time>2019-06-22T14:58:00Z</time>
      </trkpt>
      <trkpt lat="-21.100490" lon="-44.187208">
        <ele>1246.6989977867593</ele>
        <time>2019-06-22T14:58:06Z</time>
      </trkpt>
      <trkpt lat="-21.100534" lon="-44.187287">
        <ele>1250.6987401373087</ele>
        <time>2019-06-22T14:58:17Z</time>
      </trkpt>
      <trkpt lat="-21.100598" lon="-44.187343">
        <ele>1247.6984584024271</ele>
        <time>2019-06-22T14:58:26Z</time>
      </trkpt>
      <trkpt lat="-21.100625" lon="-44.187413">
        <ele>1248.698263826277</ele>
        <time>2019-06-22T14:58:33Z</time>
      </trkpt>
      <trkpt lat="-21.100672" lon="-44.187487">
        <ele>1250.698006783991</ele>
        <time>2019-06-22T14:58:46Z</time>
      </trkpt>
      <trkpt lat="-21.100728" lon="-44.187548">
        <ele>1250.6977372349168</ele>
        <time>2019-06-22T14:58:55Z</time>
      </trkpt>
      <trkpt lat="-21.100807" lon="-44.187592">
        <ele>1250.6974312123905</ele>
        <time>2019-06-22T14:59:05Z</time>
      </trkpt>
      <trkpt lat="-21.100867" lon="-44.187631">
        <ele>1247.6971877667204</ele>
        <time>2019-06-22T14:59:13Z</time>
      </trkpt>
      <trkpt lat="-21.100936" lon="-44.187675">
        <ele>1242.6969073933049</ele>
        <time>2019-06-22T14:59:23Z</time>
      </trkpt>
      <trkpt lat="-21.100984" lon="-44.187754">
        <ele>1244.6966378786888</ele>
        <time>2019-06-22T14:59:36Z</time>
      </trkpt>
      <trkpt lat="-21.101010" lon="-44.187834">
        <ele>1243.696432513308</ele>
        <time>2019-06-22T14:59:44Z</time>
      </trkpt>
      <trkpt lat="-21.101039" lon="-44.187906">
        <ele>1244.696226511669</ele>
        <time>2019-06-22T14:59:50Z</time>
      </trkpt>
      <trkpt lat="-21.101074" lon="-44.187982">
        <ele>1240.6960003672677</ele>
        <time>2019-06-22T14:59:54Z</time>
      </trkpt>
      <trkpt lat="-21.101126" lon="-44.188059">
        <ele>1242.6957180854297</ele>
        <time>2019-06-22T15:00:03Z</time>
      </trkpt>
      <trkpt lat="-21.101187" lon="-44.188129">
        <ele>1243.6954206084492</ele>
        <time>2019-06-22T15:00:11Z</time>
      </trkpt>
      <trkpt lat="-21.101222" lon="-44.188209">
        <ele>1242.6951851125868</ele>
        <time>2019-06-22T15:01:33Z</time>
      </trkpt>
      <trkpt lat="-21.101299" lon="-44.188242">
        <ele>1240.6949000770849</ele>
        <time>2019-06-22T15:01:39Z</time>
      </trkpt>
      <trkpt lat="-21.101378" lon="-44.188261">
        <ele>1239.6946306946265</ele>
        <time>2019-06-22T15:01:46Z</time>
      </trkpt>
      <trkpt lat="-21.101445" lon="-44.188285">
        <ele>1244.6943894600945</ele>
        <time>2019-06-22T15:01:57Z</time>
      </trkpt>
      <trkpt lat="-21.101515" lon="-44.188343">
        <ele>1243.6940845602849</ele>
        <time>2019-06-22T15:02:08Z</time>
      </trkpt>
      <trkpt lat="-21.101496" lon="-44.188435">
        <ele>1240.6939919266733</ele>
        <time>2019-06-22T15:02:20Z</time>
      </trkpt>
      <trkpt lat="-21.101578" lon="-44.188458">
        <ele>1234.6937081078177</ele>
        <time>2019-06-22T15:02:37Z</time>
      </trkpt>
      <trkpt lat="-21.101641" lon="-44.188521">
        <ele>1233.6934172431263</ele>
        <time>2019-06-22T15:03:04Z</time>
      </trkpt>
      <trkpt lat="-21.101722" lon="-44.188536">
        <ele>1225.6931497137766</ele>
        <time>2019-06-22T15:03:25Z</time>
      </trkpt>
      <trkpt lat="-21.101795" lon="-44.188587">
        <ele>1223.6928442796209</ele>
        <time>2019-06-22T15:04:01Z</time>
      </trkpt>
      <trkpt lat="-21.101879" lon="-44.188597">
        <ele>1216.6925750070566</ele>
        <time>2019-06-22T15:04:26Z</time>
      </trkpt>
      <trkpt lat="-21.101958" lon="-44.188638">
        <ele>1220.692268039632</ele>
        <time>2019-06-22T15:04:41Z</time>
      </trkpt>
      <trkpt lat="-21.102027" lon="-44.188696">
        <ele>1220.691967982225</ele>
        <time>2019-06-22T15:04:57Z</time>
      </trkpt>
      <trkpt lat="-21.102084" lon="-44.188762">
        <ele>1219.6916887446175</ele>
        <time>2019-06-22T15:05:08Z</time>
      </trkpt>
      <trkpt lat="-21.102154" lon="-44.188820">
        <ele>1216.6913799280778</ele>
        <time>2019-06-22T15:05:14Z</time>
      </trkpt>
      <trkpt lat="-21.102207" lon="-44.188877">
        <ele>1213.691126823455</ele>
        <time>2019-06-22T15:05:23Z</time>
      </trkpt>
      <trkpt lat="-21.102250" lon="-44.188952">
        <ele>1216.6908751824</ele>
        <time>2019-06-22T15:05:27Z</time>
      </trkpt>
      <trkpt lat="-21.102314" lon="-44.189016">
        <ele>1218.690576549063</ele>
        <time>2019-06-22T15:05:33Z</time>
      </trkpt>
      <trkpt lat="-21.102362" lon="-44.189073">
        <ele>1215.69033558548</ele>
        <time>2019-06-22T15:05:45Z</time>
      </trkpt>
      <trkpt lat="-21.102420" lon="-44.189126">
        <ele>1215.6900752271247</ele>
        <time>2019-06-22T15:05:51Z</time>
      </trkpt>
      <trkpt lat="-21.102482" lon="-44.189181">
        <ele>1215.6897988801381</ele>
        <time>2019-06-22T15:05:56Z</time>
      </trkpt>
      <trkpt lat="-21.102540" lon="-44.189222">
        <ele>1215.6895529760143</ele>
        <time>2019-06-22T15:06:00Z</time>
      </trkpt>
      <trkpt lat="-21.102612" lon="-44.189259">
        <ele>1213.6892782586576</ele>
        <time>2019-06-22T15:06:04Z</time>
      </trkpt>
      <trkpt lat="-21.102589" lon="-44.189329">
        <ele>1213.6892310250053</ele>
        <time>2019-06-22T15:06:13Z</time>
      </trkpt>
      <trkpt lat="-21.102609" lon="-44.189422">
        <ele>1219.6890172396832</ele>
        <time>2019-06-22T15:06:36Z</time>
      </trkpt>
      <trkpt lat="-21.102636" lon="-44.189511">
        <ele>1209.6887903799338</ele>
        <time>2019-06-22T15:06:49Z</time>
      </trkpt>
      <trkpt lat="-21.102667" lon="-44.189600">
        <ele>1204.68854980608</ele>
        <time>2019-06-22T15:07:14Z</time>
      </trkpt>
      <trkpt lat="-21.102740" lon="-44.189620">
        <ele>1204.68829657616</ele>
        <time>2019-06-22T15:07:21Z</time>
      </trkpt>
      <trkpt lat="-21.102810" lon="-44.189652">
        <ele>1205.6880294136445</ele>
        <time>2019-06-22T15:07:26Z</time>
      </trkpt>
      <trkpt lat="-21.102887" lon="-44.189696">
        <ele>1204.6877234067929</ele>
        <time>2019-06-22T15:07:38Z</time>
      </trkpt>
      <trkpt lat="-21.102908" lon="-44.189779">
        <ele>1201.6875213858416</ele>
        <time>2019-06-22T15:07:47Z</time>
      </trkpt>
      <trkpt lat="-21.102942" lon="-44.189864">
        <ele>1200.6872797654937</ele>
        <time>2019-06-22T15:07:55Z</time>
      </trkpt>
      <trkpt lat="-21.102976" lon="-44.189945">
        <ele>1199.6870433885076</ele>
        <time>2019-06-22T15:08:15Z</time>
      </trkpt>
      <trkpt lat="-21.103018" lon="-44.190024">
        <ele>1195.6867867724134</ele>
        <time>2019-06-22T15:08:24Z</time>
      </trkpt>
      <trkpt lat="-21.103027" lon="-44.190098">
        <ele>1195.6866373116634</ele>
        <time>2019-06-22T15:08:28Z</time>
      </trkpt>
      <trkpt lat="-21.103038" lon="-44.190191">
        <ele>1200.6864497607328</ele>
        <time>2019-06-22T15:08:32Z</time>
      </trkpt>
      <trkpt lat="-21.103068" lon="-44.190271">
        <ele>1202.6862277597945</ele>
        <time>2019-06-22T15:08:38Z</time>
      </trkpt>
      <trkpt lat="-21.103104" lon="-44.190339">
        <ele>1198.6860061773948</ele>
        <time>2019-06-22T15:08:47Z</time>
      </trkpt>
      <trkpt lat="-21.103158" lon="-44.190405">
        <ele>1197.6857325998042</ele>
        <time>2019-06-22T15:08:55Z</time>
      </trkpt>
      <trkpt lat="-21.103197" lon="-44.190482">
        <ele>1195.6854845409987</ele>
        <time>2019-06-22T15:09:01Z</time>
      </trkpt>
      <trkpt lat="-21.103251" lon="-44.190551">
        <ele>1192.6852063943024</ele>
        <time>2019-06-22T15:09:06Z</time>
      </trkpt>
      <trkpt lat="-21.103296" lon="-44.190658">
        <ele>1191.6848919986176</ele>
        <time>2019-06-22T15:09:11Z</time>
      </trkpt>
      <trkpt lat="-21.103320" lon="-44.190724">
        <ele>1192.684709781737</ele>
        <time>2019-06-22T15:09:15Z</time>
      </trkpt>
      <trkpt lat="-21.103362" lon="-44.190801">
        <ele>1191.6844554431711</ele>
        <time>2019-06-22T15:09:22Z</time>
      </trkpt>
      <trkpt lat="-21.103410" lon="-44.190853">
        <ele>1189.6842200716687</ele>
        <time>2019-06-22T15:09:27Z</time>
      </trkpt>
      <trkpt lat="-21.103476" lon="-44.190941">
        <ele>1192.6838768839937</ele>
        <time>2019-06-22T15:09:32Z</time>
      </trkpt>
      <trkpt lat="-21.103520" lon="-44.191023">
        <ele>1191.6836038677295</ele>
        <time>2019-06-22T15:09:36Z</time>
      </trkpt>
      <trkpt lat="-21.103550" lon="-44.191113">
        <ele>1191.683365064622</ele>
        <time>2019-06-22T15:09:47Z</time>
      </trkpt>
      <trkpt lat="-21.103598" lon="-44.191181">
        <ele>1192.683103574523</ele>
        <time>2019-06-22T15:10:01Z</time>
      </trkpt>
      <trkpt lat="-21.103642" lon="-44.191262">
        <ele>1195.6828358867551</ele>
        <time>2019-06-22T15:10:11Z</time>
      </trkpt>
      <trkpt lat="-21.103665" lon="-44.191355">
        <ele>1198.6826113892723</ele>
        <time>2019-06-22T15:10:19Z</time>
      </trkpt>
      <trkpt lat="-21.103686" lon="-44.191441">
        <ele>1201.6824047031155</ele>
        <time>2019-06-22T15:10:27Z</time>
      </trkpt>
      <trkpt lat="-21.103737" lon="-44.191500">
        <ele>1192.6821492192</ele>
        <time>2019-06-22T15:10:35Z</time>
      </trkpt>
      <trkpt lat="-21.103792" lon="-44.191570">
        <ele>1194.6818650137166</ele>
        <time>2019-06-22T15:10:46Z</time>
      </trkpt>
      <trkpt lat="-21.103838" lon="-44.191638">
        <ele>1191.681611145019</ele>
        <time>2019-06-22T15:10:53Z</time>
      </trkpt>
      <trkpt lat="-21.103860" lon="-44.191725">
        <ele>1186.6814009557415</ele>
        <time>2019-06-22T15:10:59Z</time>
      </trkpt>
      <trkpt lat="-21.103928" lon="-44.191778">
        <ele>1187.6811026431008</ele>
        <time>2019-06-22T15:11:06Z</time>
      </trkpt>
      <trkpt lat="-21.103991" lon="-44.191799">
        <ele>1187.680874223549</ele>
        <time>2019-06-22T15:11:10Z</time>
      </trkpt>
      <trkpt lat="-21.104074" lon="-44.191809">
        <ele>1185.6806016872297</ele>
        <time>2019-06-22T15:11:15Z</time>
      </trkpt>
      <trkpt lat="-21.104145" lon="-44.191866">
        <ele>1180.680291741348</ele>
        <time>2019-06-22T15:11:23Z</time>
      </trkpt>
      <trkpt lat="-21.104163" lon="-44.191918">
        <ele>1177.680149987432</ele>
        <time>2019-06-22T15:11:26Z</time>
      </trkpt>
      <trkpt lat="-21.104224" lon="-44.191985">
        <ele>1181.6798496405302</ele>
        <time>2019-06-22T15:11:30Z</time>
      </trkpt>
      <trkpt lat="-21.104252" lon="-44.192045">
        <ele>1182.679663769044</ele>
        <time>2019-06-22T15:11:33Z</time>
      </trkpt>
      <trkpt lat="-21.104287" lon="-44.192131">
        <ele>1186.6794122247165</ele>
        <time>2019-06-22T15:11:38Z</time>
      </trkpt>
      <trkpt lat="-21.104330" lon="-44.192199">
        <ele>1188.679166308125</ele>
        <time>2019-06-22T15:11:42Z</time>
      </trkpt>
      <trkpt lat="-21.104387" lon="-44.192264">
        <ele>1189.678882600709</ele>
        <time>2019-06-22T15:11:48Z</time>
      </trkpt>
      <trkpt lat="-21.104454" lon="-44.192325">
        <ele>1186.6785727797271</ele>
        <time>2019-06-22T15:12:02Z</time>
      </trkpt>
      <trkpt lat="-21.104524" lon="-44.192384">
        <ele>1185.6782599892952</ele>
        <time>2019-06-22T15:12:08Z</time>
      </trkpt>
      <trkpt lat="-21.104559" lon="-44.192448">
        <ele>1189.678044322665</ele>
        <time>2019-06-22T15:12:13Z</time>
      </trkpt>
      <trkpt lat="-21.104621" lon="-44.192518">
        <ele>1189.6777360976714</ele>
        <time>2019-06-22T15:12:17Z</time>
      </trkpt>
      <trkpt lat="-21.104691" lon="-44.192568">
        <ele>1188.6774377024922</ele>
        <time>2019-06-22T15:12:23Z</time>
      </trkpt>
      <trkpt lat="-21.104758" lon="-44.192620">
        <ele>1186.677143608256</ele>
        <time>2019-06-22T15:12:33Z</time>
      </trkpt>
      <trkpt lat="-21.104809" lon="-44.192664">
        <ele>1182.6769124769644</ele>
        <time>2019-06-22T15:12:38Z</time>
      </trkpt>
      <trkpt lat="-21.104845" lon="-44.192713">
        <ele>1182.676720759248</ele>
        <time>2019-06-22T15:12:41Z</time>
      </trkpt>
      <trkpt lat="-21.104913" lon="-44.192778">
        <ele>1182.6764022323105</ele>
        <time>2019-06-22T15:12:45Z</time>
      </trkpt>
      <trkpt lat="-21.104974" lon="-44.192819">
        <ele>1180.676143843642</ele>
        <time>2019-06-22T15:12:49Z</time>
      </trkpt>
      <trkpt lat="-21.105008" lon="-44.192880">
        <ele>1181.6759363215626</ele>
        <time>2019-06-22T15:12:56Z</time>
      </trkpt>
      <trkpt lat="-21.105052" lon="-44.192933">
        <ele>1181.6757128526858</ele>
        <time>2019-06-22T15:13:01Z</time>
      </trkpt>
      <trkpt lat="-21.105074" lon="-44.193015">
        <ele>1177.6755070011827</ele>
        <time>2019-06-22T15:13:06Z</time>
      </trkpt>
      <trkpt lat="-21.105119" lon="-44.193091">
        <ele>1177.6752392791109</ele>
        <time>2019-06-22T15:13:12Z</time>
      </trkpt>
      <trkpt lat="-21.105178" lon="-44.193161">
        <ele>1179.6749381062164</ele>
        <time>2019-06-22T15:13:17Z</time>
      </trkpt>
      <trkpt lat="-21.105225" lon="-44.193225">
        <ele>1177.6746865308003</ele>
        <time>2019-06-22T15:13:21Z</time>
      </trkpt>
      <trkpt lat="-21.105257" lon="-44.193305">
        <ele>1183.6744516335643</ele>
        <time>2019-06-22T15:13:33Z</time>
      </trkpt>
      <trkpt lat="-21.105312" lon="-44.193345">
        <ele>1185.6742139567045</ele>
        <time>2019-06-22T15:13:38Z</time>
      </trkpt>
      <trkpt lat="-21.105394" lon="-44.193375">
        <ele>1185.673910204431</ele>
        <time>2019-06-22T15:13:44Z</time>
      </trkpt>
      <trkpt lat="-21.105454" lon="-44.193408">
        <ele>1186.6736701504672</ele>
        <time>2019-06-22T15:13:51Z</time>
      </trkpt>
      <trkpt lat="-21.105505" lon="-44.193468">
        <ele>1184.6734103136191</ele>
        <time>2019-06-22T15:13:55Z</time>
      </trkpt>
      <trkpt lat="-21.105559" lon="-44.193519">
        <ele>1187.673157217906</ele>
        <time>2019-06-22T15:13:58Z</time>
      </trkpt>
      <trkpt lat="-21.105609" lon="-44.193597">
        <ele>1189.6728704618577</ele>
        <time>2019-06-22T15:14:02Z</time>
      </trkpt>
      <trkpt lat="-21.105651" lon="-44.193664">
        <ele>1186.6726259798836</ele>
        <time>2019-06-22T15:14:08Z</time>
      </trkpt>
      <trkpt lat="-21.105682" lon="-44.193728">
        <ele>1188.6724212529293</ele>
        <time>2019-06-22T15:14:16Z</time>
      </trkpt>
      <trkpt lat="-21.105729" lon="-44.193795">
        <ele>1185.672164031643</ele>
        <time>2019-06-22T15:14:21Z</time>
      </trkpt>
      <trkpt lat="-21.105789" lon="-44.193852">
        <ele>1188.6718824112027</ele>
        <time>2019-06-22T15:14:25Z</time>
      </trkpt>
      <trkpt lat="-21.105853" lon="-44.193946">
        <ele>1187.6715238575257</ele>
        <time>2019-06-22T15:14:30Z</time>
      </trkpt>
      <trkpt lat="-21.105900" lon="-44.194024">
        <ele>1189.6712465247165</ele>
        <time>2019-06-22T15:14:39Z</time>
      </trkpt>
      <trkpt lat="-21.105935" lon="-44.194103">
        <ele>1184.6710044213792</ele>
        <time>2019-06-22T15:14:50Z</time>
      </trkpt>
      <trkpt lat="-21.105963" lon="-44.194186">
        <ele>1183.6707734116144</ele>
        <time>2019-06-22T15:14:55Z</time>
      </trkpt>
      <trkpt lat="-21.106004" lon="-44.194267">
        <ele>1179.6705126282593</ele>
        <time>2019-06-22T15:15:02Z</time>
      </trkpt>
      <trkpt lat="-21.106036" lon="-44.194339">
        <ele>1175.670289879906</ele>
        <time>2019-06-22T15:15:06Z</time>
      </trkpt>
      <trkpt lat="-21.106080" lon="-44.194405">
        <ele>1177.670041525792</ele>
        <time>2019-06-22T15:15:10Z</time>
      </trkpt>
      <trkpt lat="-21.106138" lon="-44.194475">
        <ele>1177.6697411405394</ele>
        <time>2019-06-22T15:15:15Z</time>
      </trkpt>
      <trkpt lat="-21.106192" lon="-44.194549">
        <ele>1179.6694476941218</ele>
        <time>2019-06-22T15:15:19Z</time>
      </trkpt>
      <trkpt lat="-21.106245" lon="-44.194624">
        <ele>1176.6691563840814</ele>
        <time>2019-06-22T15:15:28Z</time>
      </trkpt>
      <trkpt lat="-21.106304" lon="-44.194685">
        <ele>1176.668866216263</ele>
        <time>2019-06-22T15:15:37Z</time>
      </trkpt>
      <trkpt lat="-21.106337" lon="-44.194753">
        <ele>1181.668647981801</ele>
        <time>2019-06-22T15:15:42Z</time>
      </trkpt>
      <trkpt lat="-21.106371" lon="-44.194817">
        <ele>1179.668433934288</ele>
        <time>2019-06-22T15:15:48Z</time>
      </trkpt>
      <trkpt lat="-21.106431" lon="-44.194871">
        <ele>1178.6681539894169</ele>
        <time>2019-06-22T15:15:53Z</time>
      </trkpt>
      <trkpt lat="-21.106468" lon="-44.194950">
        <ele>1180.66790376672</ele>
        <time>2019-06-22T15:16:05Z</time>
      </trkpt>
      <trkpt lat="-21.106511" lon="-44.195014">
        <ele>1178.6676621335585</ele>
        <time>2019-06-22T15:16:13Z</time>
      </trkpt>
      <trkpt lat="-21.106563" lon="-44.195072">
        <ele>1171.6673999135796</ele>
        <time>2019-06-22T15:16:19Z</time>
      </trkpt>
      <trkpt lat="-21.106645" lon="-44.195112">
        <ele>1169.6670780821396</ele>
        <time>2019-06-22T15:16:29Z</time>
      </trkpt>
      <trkpt lat="-21.106709" lon="-44.195142">
        <ele>1174.66682462348</ele>
        <time>2019-06-22T15:16:34Z</time>
      </trkpt>
      <trkpt lat="-21.106738" lon="-44.195230">
        <ele>1174.6665841318177</ele>
        <time>2019-06-22T15:16:43Z</time>
      </trkpt>
      <trkpt lat="-21.106737" lon="-44.195302">
        <ele>1170.6664651774502</ele>
        <time>2019-06-22T15:16:49Z</time>
      </trkpt>
      <trkpt lat="-21.106764" lon="-44.195380">
        <ele>1167.6662459154102</ele>
        <time>2019-06-22T15:16:59Z</time>
      </trkpt>
      <trkpt lat="-21.106817" lon="-44.195452">
        <ele>1166.6659576049199</ele>
        <time>2019-06-22T15:17:10Z</time>
      </trkpt>
      <trkpt lat="-21.106865" lon="-44.195531">
        <ele>1166.6656740716428</ele>
        <time>2019-06-22T15:17:15Z</time>
      </trkpt>
      <trkpt lat="-21.106914" lon="-44.195598">
        <ele>1166.6654050830598</ele>
        <time>2019-06-22T15:17:23Z</time>
      </trkpt>
      <trkpt lat="-21.106963" lon="-44.195666">
        <ele>1166.6651362976188</ele>
        <time>2019-06-22T15:17:28Z</time>
      </trkpt>
      <trkpt lat="-21.106972" lon="-44.195752">
        <ele>1162.6649605860991</ele>
        <time>2019-06-22T15:17:36Z</time>
      </trkpt>
      <trkpt lat="-21.106974" lon="-44.195837">
        <ele>1158.664808524192</ele>
        <time>2019-06-22T15:17:41Z</time>
      </trkpt>
      <trkpt lat="-21.106968" lon="-44.195927">
        <ele>1159.6646722078406</ele>
        <time>2019-06-22T15:17:56Z</time>
      </trkpt>
      <trkpt lat="-21.106982" lon="-44.195998">
        <ele>1159.6645085273628</ele>
        <time>2019-06-22T15:18:01Z</time>
      </trkpt>
      <trkpt lat="-21.106969" lon="-44.196090">
        <ele>1156.6643895548045</ele>
        <time>2019-06-22T15:18:08Z</time>
      </trkpt>
      <trkpt lat="-21.106941" lon="-44.196179">
        <ele>1155.664326259984</ele>
        <time>2019-06-22T15:18:16Z</time>
      </trkpt>
      <trkpt lat="-21.106896" lon="-44.196262">
        <ele>1150.6643252368956</ele>
        <time>2019-06-22T15:18:25Z</time>
      </trkpt>
      <trkpt lat="-21.106862" lon="-44.196344">
        <ele>1151.6642932000457</ele>
        <time>2019-06-22T15:18:44Z</time>
      </trkpt>
      <trkpt lat="-21.106876" lon="-44.196437">
        <ele>1153.6640908442048</ele>
        <time>2019-06-22T15:18:55Z</time>
      </trkpt>
      <trkpt lat="-21.106870" lon="-44.196529">
        <ele>1153.6639497310807</ele>
        <time>2019-06-22T15:19:02Z</time>
      </trkpt>
      <trkpt lat="-21.106863" lon="-44.196613">
        <ele>1154.6638290067535</ele>
        <time>2019-06-22T15:19:08Z</time>
      </trkpt>
      <trkpt lat="-21.106816" lon="-44.196691">
        <ele>1151.6638444352213</ele>
        <time>2019-06-22T15:19:15Z</time>
      </trkpt>
      <trkpt lat="-21.106812" lon="-44.196780">
        <ele>1153.6637026382</ele>
        <time>2019-06-22T15:19:25Z</time>
      </trkpt>
      <trkpt lat="-21.106827" lon="-44.196863">
        <ele>1152.6635149480144</ele>
        <time>2019-06-22T15:19:33Z</time>
      </trkpt>
      <trkpt lat="-21.106796" lon="-44.196953">
        <ele>1147.6634612359617</ele>
        <time>2019-06-22T15:19:40Z</time>
      </trkpt>
      <trkpt lat="-21.106723" lon="-44.196975">
        <ele>1145.6636525679237</ele>
        <time>2019-06-22T15:19:49Z</time>
      </trkpt>
      <trkpt lat="-21.106634" lon="-44.196962">
        <ele>1149.6639557521175</ele>
        <time>2019-06-22T15:20:08Z</time>
      </trkpt>
      <trkpt lat="-21.106554" lon="-44.196922">
        <ele>1147.664275179264</ele>
        <time>2019-06-22T15:20:38Z</time>
      </trkpt>
      <trkpt lat="-21.106485" lon="-44.196869">
        <ele>1147.664582131808</ele>
        <time>2019-06-22T15:20:48Z</time>
      </trkpt>
      <trkpt lat="-21.106410" lon="-44.196844">
        <ele>1141.6648605303283</ele>
        <time>2019-06-22T15:21:08Z</time>
      </trkpt>
      <trkpt lat="-21.106332" lon="-44.196805">
        <ele>1133.6651735813543</ele>
        <time>2019-06-22T15:21:24Z</time>
      </trkpt>
      <trkpt lat="-21.106304" lon="-44.196715">
        <ele>1122.6654164521312</ele>
        <time>2019-06-22T15:21:54Z</time>
      </trkpt>
      <trkpt lat="-21.106234" lon="-44.196705">
        <ele>1122.6656499428896</ele>
        <time>2019-06-22T15:22:09Z</time>
      </trkpt>
      <trkpt lat="-21.106159" lon="-44.196725">
        <ele>1116.6658531072762</ele>
        <time>2019-06-22T15:22:17Z</time>
      </trkpt>
      <trkpt lat="-21.106080" lon="-44.196761">
        <ele>1132.6660419251903</ele>
        <time>2019-06-22T15:22:47Z</time>
      </trkpt>
      <trkpt lat="-21.106008" lon="-44.196784">
        <ele>1136.6662299469692</ele>
        <time>2019-06-22T15:23:04Z</time>
      </trkpt>
      <trkpt lat="-21.105919" lon="-44.196791">
        <ele>1127.666497359741</ele>
        <time>2019-06-22T15:23:26Z</time>
      </trkpt>
      <trkpt lat="-21.105853" lon="-44.196851">
        <ele>1120.6666056348552</ele>
        <time>2019-06-22T15:24:32Z</time>
      </trkpt>
      <trkpt lat="-21.105803" lon="-44.196919">
        <ele>1121.6666462104738</ele>
        <time>2019-06-22T15:24:41Z</time>
      </trkpt>
      <trkpt lat="-21.105821" lon="-44.197013">
        <ele>1111.6664315049268</ele>
        <time>2019-06-22T15:25:02Z</time>
      </trkpt>
      <trkpt lat="-21.105745" lon="-44.197062">
        <ele>1108.666587637666</ele>
        <time>2019-06-22T15:25:27Z</time>
      </trkpt>
      <trkpt lat="-21.105684" lon="-44.197128">
        <ele>1093.6666679065727</ele>
        <time>2019-06-22T15:26:28Z</time>
      </trkpt>
      <trkpt lat="-21.105693" lon="-44.197222">
        <ele>1095.666480028032</ele>
        <time>2019-06-22T15:26:43Z</time>
      </trkpt>
      <trkpt lat="-21.105678" lon="-44.197306">
        <ele>1087.666386446624</ele>
        <time>2019-06-22T15:27:16Z</time>
      </trkpt>
      <trkpt lat="-21.105643" lon="-44.197393">
        <ele>1083.666349252189</ele>
        <time>2019-06-22T15:27:30Z</time>
      </trkpt>
      <trkpt lat="-21.105634" lon="-44.197480">
        <ele>1080.6662306567878</ele>
        <time>2019-06-22T15:27:42Z</time>
      </trkpt>
      <trkpt lat="-21.105618" lon="-44.197569">
        <ele>1075.6661315097929</ele>
        <time>2019-06-22T15:27:57Z</time>
      </trkpt>
      <trkpt lat="-21.105551" lon="-44.197621">
        <ele>1075.666254133932</ele>
        <time>2019-06-22T15:28:07Z</time>
      </trkpt>
      <trkpt lat="-21.105536" lon="-44.197699">
        <ele>1073.666170023122</ele>
        <time>2019-06-22T15:28:16Z</time>
      </trkpt>
      <trkpt lat="-21.105485" lon="-44.197802">
        <ele>1070.6661586459295</ele>
        <time>2019-06-22T15:28:21Z</time>
      </trkpt>
      <trkpt lat="-21.105422" lon="-44.197886">
        <ele>1067.666215562403</ele>
        <time>2019-06-22T15:28:25Z</time>
      </trkpt>
      <trkpt lat="-21.105416" lon="-44.197979">
        <ele>1068.666077869107</ele>
        <time>2019-06-22T15:28:32Z</time>
      </trkpt>
      <trkpt lat="-21.105391" lon="-44.198028">
        <ele>1069.6660742450513</ele>
        <time>2019-06-22T15:28:42Z</time>
      </trkpt>
      <trkpt lat="-21.105389" lon="-44.198116">
        <ele>1066.6659312231627</ele>
        <time>2019-06-22T15:28:48Z</time>
      </trkpt>
      <trkpt lat="-21.105395" lon="-44.198194">
        <ele>1068.6657832884089</ele>
        <time>2019-06-22T15:28:53Z</time>
      </trkpt>
      <trkpt lat="-21.105428" lon="-44.198277">
        <ele>1061.6655368592308</ele>
        <time>2019-06-22T15:29:00Z</time>
      </trkpt>
      <trkpt lat="-21.105491" lon="-44.198339">
        <ele>1066.6652331525147</ele>
        <time>2019-06-22T15:29:10Z</time>
      </trkpt>
      <trkpt lat="-21.105518" lon="-44.198427">
        <ele>1063.6649972934038</ele>
        <time>2019-06-22T15:29:17Z</time>
      </trkpt>
      <trkpt lat="-21.105496" lon="-44.198513">
        <ele>1063.664923038522</ele>
        <time>2019-06-22T15:29:23Z</time>
      </trkpt>
      <trkpt lat="-21.105485" lon="-44.198598">
        <ele>1063.6648127601247</ele>
        <time>2019-06-22T15:29:35Z</time>
      </trkpt>
      <trkpt lat="-21.105473" lon="-44.198689">
        <ele>1063.6646976595719</ele>
        <time>2019-06-22T15:29:40Z</time>
      </trkpt>
      <trkpt lat="-21.105460" lon="-44.198770">
        <ele>1063.664601018956</ele>
        <time>2019-06-22T15:29:44Z</time>
      </trkpt>
      <trkpt lat="-21.105420" lon="-44.198848">
        <ele>1059.6645996993818</ele>
        <time>2019-06-22T15:29:56Z</time>
      </trkpt>
      <trkpt lat="-21.105400" lon="-44.198939">
        <ele>1058.6645103749702</ele>
        <time>2019-06-22T15:30:06Z</time>
      </trkpt>
      <trkpt lat="-21.105376" lon="-44.199014">
        <ele>1060.6644614782913</ele>
        <time>2019-06-22T15:30:10Z</time>
      </trkpt>
      <trkpt lat="-21.105357" lon="-44.199106">
        <ele>1055.6643636708193</ele>
        <time>2019-06-22T15:30:14Z</time>
      </trkpt>
      <trkpt lat="-21.105371" lon="-44.199180">
        <ele>1055.6641965607703</ele>
        <time>2019-06-22T15:30:17Z</time>
      </trkpt>
      <trkpt lat="-21.105394" lon="-44.199303">
        <ele>1057.663915998057</ele>
        <time>2019-06-22T15:30:22Z</time>
      </trkpt>
      <trkpt lat="-21.105438" lon="-44.199382">
        <ele>1059.6636408022432</ele>
        <time>2019-06-22T15:30:33Z</time>
      </trkpt>
      <trkpt lat="-21.105437" lon="-44.199477">
        <ele>1055.663483541183</ele>
        <time>2019-06-22T15:30:42Z</time>
      </trkpt>
      <trkpt lat="-21.105498" lon="-44.199548">
        <ele>1047.6631701872027</ele>
        <time>2019-06-22T15:30:50Z</time>
      </trkpt>
      <trkpt lat="-21.105538" lon="-44.199616">
        <ele>1045.6629258856524</ele>
        <time>2019-06-22T15:30:57Z</time>
      </trkpt>
      <trkpt lat="-21.105583" lon="-44.199682">
        <ele>1042.662670948947</ele>
        <time>2019-06-22T15:31:03Z</time>
      </trkpt>
      <trkpt lat="-21.105626" lon="-44.199761">
        <ele>1049.6624005632082</ele>
        <time>2019-06-22T15:31:12Z</time>
      </trkpt>
      <trkpt lat="-21.105702" lon="-44.199790">
        <ele>1046.662109604336</ele>
        <time>2019-06-22T15:31:21Z</time>
      </trkpt>
      <trkpt lat="-21.105761" lon="-44.199857">
        <ele>1041.6618067998324</ele>
        <time>2019-06-22T15:31:29Z</time>
      </trkpt>
      <trkpt lat="-21.105807" lon="-44.199934">
        <ele>1035.6615288430062</ele>
        <time>2019-06-22T15:31:40Z</time>
      </trkpt>
      <trkpt lat="-21.105836" lon="-44.199988">
        <ele>1031.661342673916</ele>
        <time>2019-06-22T15:31:46Z</time>
      </trkpt>
      <trkpt lat="-21.105861" lon="-44.200068">
        <ele>1037.661128776344</ele>
        <time>2019-06-22T15:31:53Z</time>
      </trkpt>
      <trkpt lat="-21.105843" lon="-44.200155">
        <ele>1033.6610392873145</ele>
        <time>2019-06-22T15:32:01Z</time>
      </trkpt>
      <trkpt lat="-21.105826" lon="-44.200245">
        <ele>1034.6609400214752</ele>
        <time>2019-06-22T15:32:14Z</time>
      </trkpt>
      <trkpt lat="-21.105798" lon="-44.200334">
        <ele>1033.6608800538847</ele>
        <time>2019-06-22T15:32:24Z</time>
      </trkpt>
      <trkpt lat="-21.105856" lon="-44.200407">
        <ele>1027.6605712963583</ele>
        <time>2019-06-22T15:32:45Z</time>
      </trkpt>
      <trkpt lat="-21.105941" lon="-44.200416">
        <ele>1027.6602837711753</ele>
        <time>2019-06-22T15:33:01Z</time>
      </trkpt>
      <trkpt lat="-21.105990" lon="-44.200491">
        <ele>1025.6599997961662</ele>
        <time>2019-06-22T15:33:19Z</time>
      </trkpt>
      <trkpt lat="-21.105990" lon="-44.200580">
        <ele>1036.6598483945604</ele>
        <time>2019-06-22T15:33:49Z</time>
      </trkpt>
      <trkpt lat="-21.106068" lon="-44.200556">
        <ele>1034.6596401211575</ele>
        <time>2019-06-22T15:34:21Z</time>
      </trkpt>
      <trkpt lat="-21.106150" lon="-44.200592">
        <ele>1032.6593145097356</ele>
        <time>2019-06-22T15:34:27Z</time>
      </trkpt>
      <trkpt lat="-21.106223" lon="-44.200610">
        <ele>1029.6590512873363</ele>
        <time>2019-06-22T15:34:34Z</time>
      </trkpt>
      <trkpt lat="-21.106310" lon="-44.200604">
        <ele>1027.6587817531547</ele>
        <time>2019-06-22T15:34:42Z</time>
      </trkpt>
      <trkpt lat="-21.106399" lon="-44.200607">
        <ele>1030.6584893812083</ele>
        <time>2019-06-22T15:34:51Z</time>
      </trkpt>
      <trkpt lat="-21.106488" lon="-44.200606">
        <ele>1032.658206423287</ele>
        <time>2019-06-22T15:35:00Z</time>
      </trkpt>
      <trkpt lat="-21.106567" lon="-44.200619">
        <ele>1032.6579291574121</ele>
        <time>2019-06-22T15:35:15Z</time>
      </trkpt>
      <trkpt lat="-21.106643" lon="-44.200617">
        <ele>1036.6576899818326</ele>
        <time>2019-06-22T15:35:21Z</time>
      </trkpt>
      <trkpt lat="-21.106710" lon="-44.200622">
        <ele>1038.657465701085</ele>
        <time>2019-06-22T15:35:29Z</time>
      </trkpt>
      <trkpt lat="-21.106783" lon="-44.200630">
        <ele>1038.6572191405398</ele>
        <time>2019-06-22T15:35:33Z</time>
      </trkpt>
      <trkpt lat="-21.106851" lon="-44.200565">
        <ele>1035.6571107380378</ele>
        <time>2019-06-22T15:35:38Z</time>
      </trkpt>
      <trkpt lat="-21.106919" lon="-44.200527">
        <ele>1036.6569568675334</ele>
        <time>2019-06-22T15:35:49Z</time>
      </trkpt>
      <trkpt lat="-21.106997" lon="-44.200494">
        <ele>1032.6567632973338</ele>
        <time>2019-06-22T15:35:55Z</time>
      </trkpt>
      <trkpt lat="-21.107085" lon="-44.200489">
        <ele>1031.6564917927603</ele>
        <time>2019-06-22T15:36:04Z</time>
      </trkpt>
      <trkpt lat="-21.107170" lon="-44.200467">
        <ele>1032.6562566802202</ele>
        <time>2019-06-22T15:36:11Z</time>
      </trkpt>
      <trkpt lat="-21.107257" lon="-44.200452">
        <ele>1031.656002342216</ele>
        <time>2019-06-22T15:36:17Z</time>
      </trkpt>
      <trkpt lat="-21.107339" lon="-44.200443">
        <ele>1028.6557532245222</ele>
        <time>2019-06-22T15:36:28Z</time>
      </trkpt>
      <trkpt lat="-21.107433" lon="-44.200417">
        <ele>1026.6554972863569</ele>
        <time>2019-06-22T15:36:33Z</time>
      </trkpt>
      <trkpt lat="-21.107499" lon="-44.200370">
        <ele>1028.655365945928</ele>
        <time>2019-06-22T15:36:43Z</time>
      </trkpt>
      <trkpt lat="-21.107582" lon="-44.200395">
        <ele>1025.655057384759</ele>
        <time>2019-06-22T15:36:51Z</time>
      </trkpt>
      <trkpt lat="-21.107656" lon="-44.200356">
        <ele>1030.654885964645</ele>
        <time>2019-06-22T15:36:59Z</time>
      </trkpt>
      <trkpt lat="-21.107664" lon="-44.200268">
        <ele>1028.65501279594</ele>
        <time>2019-06-22T15:37:07Z</time>
      </trkpt>
      <trkpt lat="-21.107699" lon="-44.200209">
        <ele>1026.6550036466106</ele>
        <time>2019-06-22T15:37:15Z</time>
      </trkpt>
      <trkpt lat="-21.107736" lon="-44.200131">
        <ele>1023.6550177290528</ele>
        <time>2019-06-22T15:37:21Z</time>
      </trkpt>
      <trkpt lat="-21.107823" lon="-44.200115">
        <ele>1024.6547685232304</ele>
        <time>2019-06-22T15:37:32Z</time>
      </trkpt>
      <trkpt lat="-21.107876" lon="-44.200043">
        <ele>1012.6547215708362</ele>
        <time>2019-06-22T15:37:49Z</time>
      </trkpt>
      <trkpt lat="-21.107941" lon="-44.199981">
        <ele>1012.6546225485324</ele>
        <time>2019-06-22T15:38:12Z</time>
      </trkpt>
      <trkpt lat="-21.108011" lon="-44.199943">
        <ele>1015.6544629861232</ele>
        <time>2019-06-22T15:38:18Z</time>
      </trkpt>
      <trkpt lat="-21.108093" lon="-44.199911">
        <ele>1018.6542571631355</ele>
        <time>2019-06-22T15:38:39Z</time>
      </trkpt>
      <trkpt lat="-21.108174" lon="-44.199899">
        <ele>1022.6540160638336</ele>
        <time>2019-06-22T15:38:46Z</time>
      </trkpt>
      <trkpt lat="-21.108253" lon="-44.199891">
        <ele>1018.6537795662263</ele>
        <time>2019-06-22T15:38:55Z</time>
      </trkpt>
      <trkpt lat="-21.108343" lon="-44.199889">
        <ele>1014.6534964431539</ele>
        <time>2019-06-22T15:39:02Z</time>
      </trkpt>
      <trkpt lat="-21.108417" lon="-44.199898">
        <ele>1014.653241403566</ele>
        <time>2019-06-22T15:39:08Z</time>
      </trkpt>
      <trkpt lat="-21.108513" lon="-44.199884">
        <ele>1018.6529598914695</ele>
        <time>2019-06-22T15:39:13Z</time>
      </trkpt>
      <trkpt lat="-21.108574" lon="-44.199834">
        <ele>1013.652849973872</ele>
        <time>2019-06-22T15:39:18Z</time>
      </trkpt>
      <trkpt lat="-21.108645" lon="-44.199788">
        <ele>1018.6527027236989</ele>
        <time>2019-06-22T15:39:27Z</time>
      </trkpt>
      <trkpt lat="-21.108732" lon="-44.199794">
        <ele>1013.6524182749056</ele>
        <time>2019-06-22T15:39:40Z</time>
      </trkpt>
      <trkpt lat="-21.108804" lon="-44.199781">
        <ele>1006.6522079840034</ele>
        <time>2019-06-22T15:39:50Z</time>
      </trkpt>
      <trkpt lat="-21.108887" lon="-44.199746">
        <ele>1009.6520037971744</ele>
        <time>2019-06-22T15:39:57Z</time>
      </trkpt>
      <trkpt lat="-21.108970" lon="-44.199732">
        <ele>1007.6517634668453</ele>
        <time>2019-06-22T15:40:11Z</time>
      </trkpt>
      <trkpt lat="-21.109037" lon="-44.199688">
        <ele>1002.6516246347007</ele>
        <time>2019-06-22T15:40:22Z</time>
      </trkpt>
      <trkpt lat="-21.109112" lon="-44.199636">
        <ele>1007.6514757608759</ele>
        <time>2019-06-22T15:40:33Z</time>
      </trkpt>
      <trkpt lat="-21.109177" lon="-44.199580">
        <ele>1003.6513677934896</ele>
        <time>2019-06-22T15:40:43Z</time>
      </trkpt>
      <trkpt lat="-21.109248" lon="-44.199546">
        <ele>1002.6512002967456</ele>
        <time>2019-06-22T15:40:50Z</time>
      </trkpt>
      <trkpt lat="-21.109324" lon="-44.199529">
        <ele>999.6509872099922</ele>
        <time>2019-06-22T15:40:59Z</time>
      </trkpt>
      <trkpt lat="-21.109396" lon="-44.199488">
        <ele>1000.6508280762656</ele>
        <time>2019-06-22T15:41:06Z</time>
      </trkpt>
      <trkpt lat="-21.109473" lon="-44.199469">
        <ele>999.6506153188359</ele>
        <time>2019-06-22T15:41:14Z</time>
      </trkpt>
      <trkpt lat="-21.109546" lon="-44.199436">
        <ele>1002.6504431767625</ele>
        <time>2019-06-22T15:41:25Z</time>
      </trkpt>
      <trkpt lat="-21.109616" lon="-44.199419">
        <ele>1002.6502494173875</ele>
        <time>2019-06-22T15:41:33Z</time>
      </trkpt>
      <trkpt lat="-21.109689" lon="-44.199414">
        <ele>999.6500242821888</ele>
        <time>2019-06-22T15:41:38Z</time>
      </trkpt>
      <trkpt lat="-21.109775" lon="-44.199437">
        <ele>998.6497096992188</ele>
        <time>2019-06-22T15:41:44Z</time>
      </trkpt>
      <trkpt lat="-21.109831" lon="-44.199388">
        <ele>997.6496175736727</ele>
        <time>2019-06-22T15:41:50Z</time>
      </trkpt>
      <trkpt lat="-21.109902" lon="-44.199390">
        <ele>997.6493846157364</ele>
        <time>2019-06-22T15:41:55Z</time>
      </trkpt>
      <trkpt lat="-21.109993" lon="-44.199387">
        <ele>991.6491009582435</ele>
        <time>2019-06-22T15:42:00Z</time>
      </trkpt>
      <trkpt lat="-21.110076" lon="-44.199362">
        <ele>989.6488790370344</ele>
        <time>2019-06-22T15:42:04Z</time>
      </trkpt>
      <trkpt lat="-21.110157" lon="-44.199370">
        <ele>1001.64860663957</ele>
        <time>2019-06-22T15:42:12Z</time>
      </trkpt>
      <trkpt lat="-21.110209" lon="-44.199311">
        <ele>999.6485448346534</ele>
        <time>2019-06-22T15:42:20Z</time>
      </trkpt>
      <trkpt lat="-21.110241" lon="-44.199230">
        <ele>1002.6485875386521</ele>
        <time>2019-06-22T15:42:25Z</time>
      </trkpt>
      <trkpt lat="-21.110267" lon="-44.199142">
        <ele>1001.6486583894944</ele>
        <time>2019-06-22T15:42:33Z</time>
      </trkpt>
      <trkpt lat="-21.110273" lon="-44.199049">
        <ele>1003.6488047012374</ele>
        <time>2019-06-22T15:42:39Z</time>
      </trkpt>
      <trkpt lat="-21.110280" lon="-44.198963">
        <ele>1004.6489344024416</ele>
        <time>2019-06-22T15:42:46Z</time>
      </trkpt>
      <trkpt lat="-21.110250" lon="-44.198886">
        <ele>1007.6491643523316</ele>
        <time>2019-06-22T15:43:02Z</time>
      </trkpt>
      <trkpt lat="-21.110230" lon="-44.198796">
        <ele>1000.6493870109412</ele>
        <time>2019-06-22T15:43:10Z</time>
      </trkpt>
      <trkpt lat="-21.110203" lon="-44.198715">
        <ele>1005.649617445456</ele>
        <time>2019-06-22T15:43:21Z</time>
      </trkpt>
      <trkpt lat="-21.110215" lon="-44.198629">
        <ele>1008.6497294650148</ele>
        <time>2019-06-22T15:43:31Z</time>
      </trkpt>
      <trkpt lat="-21.110208" lon="-44.198537">
        <ele>1008.6499152781739</ele>
        <time>2019-06-22T15:43:40Z</time>
      </trkpt>
      <trkpt lat="-21.110206" lon="-44.198462">
        <ele>1009.6500533492074</ele>
        <time>2019-06-22T15:43:46Z</time>
      </trkpt>
      <trkpt lat="-21.110199" lon="-44.198388">
        <ele>1008.6502067927219</ele>
        <time>2019-06-22T15:43:52Z</time>
      </trkpt>
      <trkpt lat="-21.110161" lon="-44.198311">
        <ele>1007.6504616850426</ele>
        <time>2019-06-22T15:43:56Z</time>
      </trkpt>
      <trkpt lat="-21.110222" lon="-44.198250">
        <ele>1010.6503747235558</ele>
        <time>2019-06-22T15:44:17Z</time>
      </trkpt>
      <trkpt lat="-21.110287" lon="-44.198206">
        <ele>1012.650248160344</ele>
        <time>2019-06-22T15:44:21Z</time>
      </trkpt>
      <trkpt lat="-21.110353" lon="-44.198138">
        <ele>1015.6501570855136</ele>
        <time>2019-06-22T15:44:25Z</time>
      </trkpt>
      <trkpt lat="-21.110399" lon="-44.198055">
        <ele>1014.6501581831039</ele>
        <time>2019-06-22T15:44:30Z</time>
      </trkpt>
      <trkpt lat="-21.110385" lon="-44.197974">
        <ele>1017.6503477567552</ele>
        <time>2019-06-22T15:44:40Z</time>
      </trkpt>
      <trkpt lat="-21.110352" lon="-44.197886">
        <ele>1016.6506073089719</ele>
        <time>2019-06-22T15:44:49Z</time>
      </trkpt>
      <trkpt lat="-21.110345" lon="-44.197800">
        <ele>1016.6507806736561</ele>
        <time>2019-06-22T15:44:57Z</time>
      </trkpt>
      <trkpt lat="-21.110338" lon="-44.197713">
        <ele>1019.6509559615789</ele>
        <time>2019-06-22T15:45:05Z</time>
      </trkpt>
      <trkpt lat="-21.110418" lon="-44.197686">
        <ele>1014.6507515390042</ele>
        <time>2019-06-22T15:45:20Z</time>
      </trkpt>
      <trkpt lat="-21.110420" lon="-44.197601">
        <ele>1020.6508944356461</ele>
        <time>2019-06-22T15:45:26Z</time>
      </trkpt>
      <trkpt lat="-21.110429" lon="-44.197535">
        <ele>1021.650983291242</ele>
        <time>2019-06-22T15:45:30Z</time>
      </trkpt>
      <trkpt lat="-21.110460" lon="-44.197446">
        <ele>1018.6510407129628</ele>
        <time>2019-06-22T15:45:36Z</time>
      </trkpt>
      <trkpt lat="-21.110518" lon="-44.197381">
        <ele>1019.6509739377782</ele>
        <time>2019-06-22T15:45:56Z</time>
      </trkpt>
      <trkpt lat="-21.110527" lon="-44.197292">
        <ele>1016.6511016048748</ele>
        <time>2019-06-22T15:46:06Z</time>
      </trkpt>
      <trkpt lat="-21.110548" lon="-44.197202">
        <ele>1016.651197167356</ele>
        <time>2019-06-22T15:46:15Z</time>
      </trkpt>
      <trkpt lat="-21.110550" lon="-44.197114">
        <ele>1013.651342295484</ele>
        <time>2019-06-22T15:46:26Z</time>
      </trkpt>
      <trkpt lat="-21.110591" lon="-44.197046">
        <ele>1011.6513358502605</ele>
        <time>2019-06-22T15:46:32Z</time>
      </trkpt>
      <trkpt lat="-21.110634" lon="-44.196965">
        <ele>1008.6513431726527</ele>
        <time>2019-06-22T15:46:48Z</time>
      </trkpt>
      <trkpt lat="-21.110702" lon="-44.196906">
        <ele>1006.6512357213007</ele>
        <time>2019-06-22T15:47:05Z</time>
      </trkpt>
      <trkpt lat="-21.110711" lon="-44.196825">
        <ele>1006.6513480133965</ele>
        <time>2019-06-22T15:47:18Z</time>
      </trkpt>
      <trkpt lat="-21.110756" lon="-44.196764">
        <ele>1004.6513156174784</ele>
        <time>2019-06-22T15:47:35Z</time>
      </trkpt>
      <trkpt lat="-21.110768" lon="-44.196670">
        <ele>999.6514443360549</ele>
        <time>2019-06-22T15:47:49Z</time>
      </trkpt>
      <trkpt lat="-21.110799" lon="-44.196587">
        <ele>1000.6514928654171</ele>
        <time>2019-06-22T15:47:59Z</time>
      </trkpt>
      <trkpt lat="-21.110807" lon="-44.196493">
        <ele>1003.6516368547133</ele>
        <time>2019-06-22T15:48:10Z</time>
      </trkpt>
      <trkpt lat="-21.110801" lon="-44.196397">
        <ele>998.6518227814962</ele>
        <time>2019-06-22T15:48:22Z</time>
      </trkpt>
      <trkpt lat="-21.110779" lon="-44.196305">
        <ele>997.6520571790948</ele>
        <time>2019-06-22T15:48:32Z</time>
      </trkpt>
      <trkpt lat="-21.110792" lon="-44.196224">
        <ele>998.6521596601219</ele>
        <time>2019-06-22T15:48:41Z</time>
      </trkpt>
      <trkpt lat="-21.110775" lon="-44.196146">
        <ele>995.6523495742656</ele>
        <time>2019-06-22T15:48:47Z</time>
      </trkpt>
      <trkpt lat="-21.110791" lon="-44.196052">
        <ele>993.6524657730401</ele>
        <time>2019-06-22T15:49:03Z</time>
      </trkpt>
      <trkpt lat="-21.110760" lon="-44.195964">
        <ele>994.6527195789153</ele>
        <time>2019-06-22T15:49:12Z</time>
      </trkpt>
      <trkpt lat="-21.110715" lon="-44.195884">
        <ele>992.6530015982189</ele>
        <time>2019-06-22T15:49:18Z</time>
      </trkpt>
      <trkpt lat="-21.110703" lon="-44.195809">
        <ele>997.6531736594131</ele>
        <time>2019-06-22T15:49:24Z</time>
      </trkpt>
      <trkpt lat="-21.110697" lon="-44.195732">
        <ele>993.6533283325145</ele>
        <time>2019-06-22T15:49:28Z</time>
      </trkpt>
      <trkpt lat="-21.110659" lon="-44.195627">
        <ele>994.6536329447451</ele>
        <time>2019-06-22T15:49:33Z</time>
      </trkpt>
      <trkpt lat="-21.110597" lon="-44.195568">
        <ele>994.6539327853296</ele>
        <time>2019-06-22T15:49:42Z</time>
      </trkpt>
      <trkpt lat="-21.110593" lon="-44.195477">
        <ele>990.6541045020358</ele>
        <time>2019-06-22T15:49:51Z</time>
      </trkpt>
      <trkpt lat="-21.110615" lon="-44.195388">
        <ele>993.6541927206429</ele>
        <time>2019-06-22T15:50:02Z</time>
      </trkpt>
      <trkpt lat="-21.110659" lon="-44.195339">
        <ele>986.6541431744208</ele>
        <time>2019-06-22T15:50:14Z</time>
      </trkpt>
      <trkpt lat="-21.110714" lon="-44.195298">
        <ele>987.6540458208904</ele>
        <time>2019-06-22T15:50:18Z</time>
      </trkpt>
      <trkpt lat="-21.110772" lon="-44.195264">
        <ele>987.6539240328265</ele>
        <time>2019-06-22T15:50:22Z</time>
      </trkpt>
      <trkpt lat="-21.110847" lon="-44.195222">
        <ele>988.6537627870347</ele>
        <time>2019-06-22T15:50:28Z</time>
      </trkpt>
      <trkpt lat="-21.110910" lon="-44.195156">
        <ele>985.6536841955667</ele>
        <time>2019-06-22T15:50:34Z</time>
      </trkpt>
      <trkpt lat="-21.110961" lon="-44.195084">
        <ele>986.6536523708784</ele>
        <time>2019-06-22T15:50:40Z</time>
      </trkpt>
      <trkpt lat="-21.110978" lon="-44.194998">
        <ele>983.6537530841549</ele>
        <time>2019-06-22T15:50:56Z</time>
      </trkpt>
      <trkpt lat="-21.110970" lon="-44.194915">
        <ele>978.6539259442073</ele>
        <time>2019-06-22T15:51:01Z</time>
      </trkpt>
      <trkpt lat="-21.110964" lon="-44.194850">
        <ele>978.6540589020358</ele>
        <time>2019-06-22T15:51:04Z</time>
      </trkpt>
      <trkpt lat="-21.110963" lon="-44.194762">
        <ele>978.6542199437415</ele>
        <time>2019-06-22T15:51:08Z</time>
      </trkpt>
      <trkpt lat="-21.110988" lon="-44.194696">
        <ele>979.654259242007</ele>
        <time>2019-06-22T15:51:12Z</time>
      </trkpt>
      <trkpt lat="-21.111000" lon="-44.194601">
        <ele>981.6543905360064</ele>
        <time>2019-06-22T15:51:19Z</time>
      </trkpt>
      <trkpt lat="-21.110964" lon="-44.194527">
        <ele>979.6546324944791</ele>
        <time>2019-06-22T15:51:27Z</time>
      </trkpt>
      <trkpt lat="-21.110926" lon="-44.194454">
        <ele>980.6548807292701</ele>
        <time>2019-06-22T15:51:34Z</time>
      </trkpt>
      <trkpt lat="-21.110914" lon="-44.194375">
        <ele>975.6550566605373</ele>
        <time>2019-06-22T15:51:38Z</time>
      </trkpt>
      <trkpt lat="-21.110877" lon="-44.194301">
        <ele>974.6553021661085</ele>
        <time>2019-06-22T15:51:43Z</time>
      </trkpt>
      <trkpt lat="-21.110824" lon="-44.194256">
        <ele>971.6555469045105</ele>
        <time>2019-06-22T15:51:47Z</time>
      </trkpt>
      <trkpt lat="-21.110771" lon="-44.194190">
        <ele>971.6558317132045</ele>
        <time>2019-06-22T15:51:52Z</time>
      </trkpt>
      <trkpt lat="-21.110752" lon="-44.194102">
        <ele>966.6560451342538</ele>
        <time>2019-06-22T15:51:59Z</time>
      </trkpt>
      <trkpt lat="-21.110695" lon="-44.194052">
        <ele>966.6563108426133</ele>
        <time>2019-06-22T15:52:05Z</time>
      </trkpt>
      <trkpt lat="-21.110629" lon="-44.193996">
        <ele>966.6566159058304</ele>
        <time>2019-06-22T15:52:13Z</time>
      </trkpt>
      <trkpt lat="-21.110560" lon="-44.193958">
        <ele>966.6568972541936</ele>
        <time>2019-06-22T15:52:18Z</time>
      </trkpt>
      <trkpt lat="-21.110482" lon="-44.193912">
        <ele>968.6572192069651</ele>
        <time>2019-06-22T15:52:24Z</time>
      </trkpt>
      <trkpt lat="-21.110408" lon="-44.193862">
        <ele>974.6575388524848</ele>
        <time>2019-06-22T15:52:29Z</time>
      </trkpt>
      <trkpt lat="-21.110342" lon="-44.193797">
        <ele>971.6578572664196</ele>
        <time>2019-06-22T15:52:35Z</time>
      </trkpt>
      <trkpt lat="-21.110296" lon="-44.193731">
        <ele>974.658117036366</ele>
        <time>2019-06-22T15:52:42Z</time>
      </trkpt>
      <trkpt lat="-21.110283" lon="-44.193642">
        <ele>968.6583123395425</ele>
        <time>2019-06-22T15:52:49Z</time>
      </trkpt>
      <trkpt lat="-21.110315" lon="-44.193570">
        <ele>976.658341117289</ele>
        <time>2019-06-22T15:52:56Z</time>
      </trkpt>
      <trkpt lat="-21.110344" lon="-44.193479">
        <ele>977.658411212366</ele>
        <time>2019-06-22T15:53:04Z</time>
      </trkpt>
      <trkpt lat="-21.110351" lon="-44.193386">
        <ele>978.6585531699914</ele>
        <time>2019-06-22T15:53:10Z</time>
      </trkpt>
      <trkpt lat="-21.110365" lon="-44.193312">
        <ele>977.6586413643</ele>
        <time>2019-06-22T15:53:14Z</time>
      </trkpt>
      <trkpt lat="-21.110376" lon="-44.193240">
        <ele>973.6587356425098</ele>
        <time>2019-06-22T15:53:19Z</time>
      </trkpt>
      <trkpt lat="-21.110355" lon="-44.193150">
        <ele>973.65896014416</ele>
        <time>2019-06-22T15:53:25Z</time>
      </trkpt>
      <trkpt lat="-21.110311" lon="-44.193069">
        <ele>974.6592374515766</ele>
        <time>2019-06-22T15:53:32Z</time>
      </trkpt>
      <trkpt lat="-21.110261" lon="-44.192994">
        <ele>970.6595252786813</ele>
        <time>2019-06-22T15:53:41Z</time>
      </trkpt>
      <trkpt lat="-21.110222" lon="-44.192915">
        <ele>971.6597839691639</ele>
        <time>2019-06-22T15:53:49Z</time>
      </trkpt>
      <trkpt lat="-21.110211" lon="-44.192828">
        <ele>977.6599726582464</ele>
        <time>2019-06-22T15:53:56Z</time>
      </trkpt>
      <trkpt lat="-21.110163" lon="-44.192753">
        <ele>976.6602524168151</ele>
        <time>2019-06-22T15:54:03Z</time>
      </trkpt>
      <trkpt lat="-21.110115" lon="-44.192678">
        <ele>979.6605312235417</ele>
        <time>2019-06-22T15:54:09Z</time>
      </trkpt>
      <trkpt lat="-21.110105" lon="-44.192585">
        <ele>978.660727561872</ele>
        <time>2019-06-22T15:54:16Z</time>
      </trkpt>
      <trkpt lat="-21.110108" lon="-44.192500">
        <ele>974.660867623655</ele>
        <time>2019-06-22T15:54:22Z</time>
      </trkpt>
      <trkpt lat="-21.110092" lon="-44.192427">
        <ele>973.6610462384328</ele>
        <time>2019-06-22T15:54:27Z</time>
      </trkpt>
      <trkpt lat="-21.110060" lon="-44.192355">
        <ele>973.661271462504</ele>
        <time>2019-06-22T15:54:31Z</time>
      </trkpt>
      <trkpt lat="-21.110039" lon="-44.192275">
        <ele>972.661477032289</ele>
        <time>2019-06-22T15:54:37Z</time>
      </trkpt>
      <trkpt lat="-21.110069" lon="-44.192186">
        <ele>969.6615402458228</ele>
        <time>2019-06-22T15:54:47Z</time>
      </trkpt>
      <trkpt lat="-21.110048" lon="-44.192107">
        <ele>970.6617450639376</ele>
        <time>2019-06-22T15:54:54Z</time>
      </trkpt>
      <trkpt lat="-21.110055" lon="-44.192018">
        <ele>968.6618800448131</ele>
        <time>2019-06-22T15:55:02Z</time>
      </trkpt>
      <trkpt lat="-21.110036" lon="-44.191950">
        <ele>968.6620575678626</ele>
        <time>2019-06-22T15:55:10Z</time>
      </trkpt>
      <trkpt lat="-21.110040" lon="-44.191867">
        <ele>962.6621913302612</ele>
        <time>2019-06-22T15:55:19Z</time>
      </trkpt>
      <trkpt lat="-21.110046" lon="-44.191773">
        <ele>960.6623388579823</ele>
        <time>2019-06-22T15:55:25Z</time>
      </trkpt>
      <trkpt lat="-21.110040" lon="-44.191686">
        <ele>960.6625100518221</ele>
        <time>2019-06-22T15:55:33Z</time>
      </trkpt>
      <trkpt lat="-21.110056" lon="-44.191596">
        <ele>956.6626177459628</ele>
        <time>2019-06-22T15:55:42Z</time>
      </trkpt>
      <trkpt lat="-21.110044" lon="-44.191511">
        <ele>957.6628069573014</ele>
        <time>2019-06-22T15:55:47Z</time>
      </trkpt>
      <trkpt lat="-21.110027" lon="-44.191426">
        <ele>963.6630077658165</ele>
        <time>2019-06-22T15:55:52Z</time>
      </trkpt>
      <trkpt lat="-21.110080" lon="-44.191353">
        <ele>962.6629727396295</ele>
        <time>2019-06-22T15:55:59Z</time>
      </trkpt>
      <trkpt lat="-21.110143" lon="-44.191284">
        <ele>958.6629007493021</ele>
        <time>2019-06-22T15:56:04Z</time>
      </trkpt>
      <trkpt lat="-21.110225" lon="-44.191250">
        <ele>957.6627134294374</ele>
        <time>2019-06-22T15:56:11Z</time>
      </trkpt>
      <trkpt lat="-21.110312" lon="-44.191243">
        <ele>957.6624580704228</ele>
        <time>2019-06-22T15:56:18Z</time>
      </trkpt>
      <trkpt lat="-21.110396" lon="-44.191228">
        <ele>956.66222951238</ele>
        <time>2019-06-22T15:56:24Z</time>
      </trkpt>
      <trkpt lat="-21.110469" lon="-44.191179">
        <ele>962.6620914471931</ele>
        <time>2019-06-22T15:56:31Z</time>
      </trkpt>
      <trkpt lat="-21.110526" lon="-44.191122">
        <ele>963.6620160567045</ele>
        <time>2019-06-22T15:56:39Z</time>
      </trkpt>
      <trkpt lat="-21.110589" lon="-44.191065">
        <ele>963.6619248746786</ele>
        <time>2019-06-22T15:56:46Z</time>
      </trkpt>
      <trkpt lat="-21.110608" lon="-44.190979">
        <ele>966.662019325098</ele>
        <time>2019-06-22T15:56:52Z</time>
      </trkpt>
      <trkpt lat="-21.110639" lon="-44.190898">
        <ele>964.6620680356774</ele>
        <time>2019-06-22T15:56:57Z</time>
      </trkpt>
      <trkpt lat="-21.110646" lon="-44.190835">
        <ele>965.6621575753728</ele>
        <time>2019-06-22T15:57:01Z</time>
      </trkpt>
      <trkpt lat="-21.110643" lon="-44.190798">
        <ele>963.6622323643669</ele>
        <time>2019-06-22T15:57:03Z</time>
      </trkpt>
      <trkpt lat="-21.110646" lon="-44.190696">
        <ele>959.6624035239967</ele>
        <time>2019-06-22T15:57:09Z</time>
      </trkpt>
      <trkpt lat="-21.110645" lon="-44.190610">
        <ele>958.6625601408715</ele>
        <time>2019-06-22T15:57:13Z</time>
      </trkpt>
      <trkpt lat="-21.110633" lon="-44.190533">
        <ele>957.6627326344691</ele>
        <time>2019-06-22T15:57:18Z</time>
      </trkpt>
      <trkpt lat="-21.110662" lon="-44.190462">
        <ele>956.66276762868</ele>
        <time>2019-06-22T15:57:25Z</time>
      </trkpt>
      <trkpt lat="-21.110692" lon="-44.190386">
        <ele>957.6628123036783</ele>
        <time>2019-06-22T15:57:31Z</time>
      </trkpt>
      <trkpt lat="-21.110739" lon="-44.190316">
        <ele>953.6627947340328</ele>
        <time>2019-06-22T15:57:37Z</time>
      </trkpt>
      <trkpt lat="-21.110767" lon="-44.190247">
        <ele>950.6628296556304</ele>
        <time>2019-06-22T15:57:44Z</time>
      </trkpt>
      <trkpt lat="-21.110810" lon="-44.190172">
        <ele>946.6628313068007</ele>
        <time>2019-06-22T15:57:49Z</time>
      </trkpt>
      <trkpt lat="-21.110848" lon="-44.190103">
        <ele>951.662841632744</ele>
        <time>2019-06-22T15:57:54Z</time>
      </trkpt>
      <trkpt lat="-21.110915" lon="-44.190063">
        <ele>949.6627052796212</ele>
        <time>2019-06-22T15:58:00Z</time>
      </trkpt>
      <trkpt lat="-21.110972" lon="-44.189993">
        <ele>950.6626579550966</ele>
        <time>2019-06-22T15:58:07Z</time>
      </trkpt>
      <trkpt lat="-21.111031" lon="-44.189933">
        <ele>948.6625844299328</ele>
        <time>2019-06-22T15:58:13Z</time>
      </trkpt>
      <trkpt lat="-21.111101" lon="-44.189895">
        <ele>946.662440825008</ele>
        <time>2019-06-22T15:58:19Z</time>
      </trkpt>
      <trkpt lat="-21.111174" lon="-44.189858">
        <ele>940.6622854280361</ele>
        <time>2019-06-22T15:58:27Z</time>
      </trkpt>
      <trkpt lat="-21.111262" lon="-44.189843">
        <ele>942.66204202546</ele>
        <time>2019-06-22T15:58:34Z</time>
      </trkpt>
      <trkpt lat="-21.111319" lon="-44.189830">
        <ele>944.6618914040524</ele>
        <time>2019-06-22T15:58:38Z</time>
      </trkpt>
      <trkpt lat="-21.111392" lon="-44.189785">
        <ele>943.6617520101978</ele>
        <time>2019-06-22T15:58:43Z</time>
      </trkpt>
      <trkpt lat="-21.111468" lon="-44.189748">
        <ele>941.6615860055808</ele>
        <time>2019-06-22T15:59:09Z</time>
      </trkpt>
      <trkpt lat="-21.111483" lon="-44.189666">
        <ele>940.661687016594</ele>
        <time>2019-06-22T15:59:17Z</time>
      </trkpt>
      <trkpt lat="-21.111500" lon="-44.189582">
        <ele>937.661788120652</ele>
        <time>2019-06-22T15:59:23Z</time>
      </trkpt>
      <trkpt lat="-21.111526" lon="-44.189492">
        <ele>934.6618685313307</ele>
        <time>2019-06-22T15:59:30Z</time>
      </trkpt>
      <trkpt lat="-21.111569" lon="-44.189415">
        <ele>932.6618746503938</ele>
        <time>2019-06-22T15:59:35Z</time>
      </trkpt>
      <trkpt lat="-21.111632" lon="-44.189348">
        <ele>933.6618039252029</ele>
        <time>2019-06-22T15:59:44Z</time>
      </trkpt>
      <trkpt lat="-21.111681" lon="-44.189297">
        <ele>935.6617469655209</ele>
        <time>2019-06-22T15:59:49Z</time>
      </trkpt>
      <trkpt lat="-21.111746" lon="-44.189274">
        <ele>939.6615905189248</ele>
        <time>2019-06-22T15:59:55Z</time>
      </trkpt>
      <trkpt lat="-21.111811" lon="-44.189225">
        <ele>942.6614813879886</ele>
        <time>2019-06-22T16:00:01Z</time>
      </trkpt>
      <trkpt lat="-21.111839" lon="-44.189170">
        <ele>940.6614933960183</ele>
        <time>2019-06-22T16:00:04Z</time>
      </trkpt>
      <trkpt lat="-21.111866" lon="-44.189097">
        <ele>939.6615415502328</ele>
        <time>2019-06-22T16:00:08Z</time>
      </trkpt>
      <trkpt lat="-21.111859" lon="-44.189008">
        <ele>932.6617232143469</ele>
        <time>2019-06-22T16:00:14Z</time>
      </trkpt>
      <trkpt lat="-21.111847" lon="-44.188942">
        <ele>933.6618779291504</ele>
        <time>2019-06-22T16:00:18Z</time>
      </trkpt>
      <trkpt lat="-21.111848" lon="-44.188856">
        <ele>931.6620291110917</ele>
        <time>2019-06-22T16:00:24Z</time>
      </trkpt>
      <trkpt lat="-21.111866" lon="-44.188778">
        <ele>932.6621154030331</ele>
        <time>2019-06-22T16:00:30Z</time>
      </trkpt>
      <trkpt lat="-21.111884" lon="-44.188694">
        <ele>930.6622103890496</ele>
        <time>2019-06-22T16:00:37Z</time>
      </trkpt>
      <trkpt lat="-21.111889" lon="-44.188603">
        <ele>936.6623574213529</ele>
        <time>2019-06-22T16:00:48Z</time>
      </trkpt>
      <trkpt lat="-21.111908" lon="-44.188512">
        <ele>939.6624635049918</ele>
        <time>2019-06-22T16:01:06Z</time>
      </trkpt>
      <trkpt lat="-21.111894" lon="-44.188434">
        <ele>937.6626469395771</ele>
        <time>2019-06-22T16:01:18Z</time>
      </trkpt>
      <trkpt lat="-21.111921" lon="-44.188349">
        <ele>930.6627163637776</ele>
        <time>2019-06-22T16:01:32Z</time>
      </trkpt>
      <trkpt lat="-21.111973" lon="-44.188271">
        <ele>930.662698675295</ele>
        <time>2019-06-22T16:01:41Z</time>
      </trkpt>
      <trkpt lat="-21.112026" lon="-44.188236">
        <ele>931.6626037426618</ele>
        <time>2019-06-22T16:02:22Z</time>
      </trkpt>
      <trkpt lat="-21.112094" lon="-44.188217">
        <ele>924.6624323587791</ele>
        <time>2019-06-22T16:02:27Z</time>
      </trkpt>
      <trkpt lat="-21.112155" lon="-44.188162">
        <ele>923.662346695344</ele>
        <time>2019-06-22T16:02:35Z</time>
      </trkpt>
      <trkpt lat="-21.112210" lon="-44.188089">
        <ele>926.6623127176451</ele>
        <time>2019-06-22T16:02:44Z</time>
      </trkpt>
      <trkpt lat="-21.112255" lon="-44.188020">
        <ele>927.662300858792</ele>
        <time>2019-06-22T16:02:50Z</time>
      </trkpt>
      <trkpt lat="-21.112318" lon="-44.187996">
        <ele>926.6621556639802</ele>
        <time>2019-06-22T16:02:59Z</time>
      </trkpt>
      <trkpt lat="-21.112396" lon="-44.187951">
        <ele>931.6620017347408</ele>
        <time>2019-06-22T16:03:09Z</time>
      </trkpt>
      <trkpt lat="-21.112455" lon="-44.187900">
        <ele>932.6619157070726</ele>
        <time>2019-06-22T16:03:17Z</time>
      </trkpt>
      <trkpt lat="-21.112549" lon="-44.187797">
        <ele>935.6618190685775</ele>
        <time>2019-06-22T16:03:32Z</time>
      </trkpt>
      <trkpt lat="-21.112623" lon="-44.187752">
        <ele>940.6616767838577</ele>
        <time>2019-06-22T16:03:43Z</time>
      </trkpt>
      <trkpt lat="-21.112686" lon="-44.187684">
        <ele>944.6616119944845</ele>
        <time>2019-06-22T16:03:50Z</time>
      </trkpt>
      <trkpt lat="-21.112726" lon="-44.187608">
        <ele>944.6616281692536</ele>
        <time>2019-06-22T16:03:57Z</time>
      </trkpt>
      <trkpt lat="-21.112761" lon="-44.187522">
        <ele>941.661677306148</ele>
        <time>2019-06-22T16:04:07Z</time>
      </trkpt>
      <trkpt lat="-21.112816" lon="-44.187446">
        <ele>940.6616496507444</ele>
        <time>2019-06-22T16:04:15Z</time>
      </trkpt>
      <trkpt lat="-21.112857" lon="-44.187367">
        <ele>941.6616690404802</ele>
        <time>2019-06-22T16:04:21Z</time>
      </trkpt>
      <trkpt lat="-21.112880" lon="-44.187305">
        <ele>942.6617125428414</ele>
        <time>2019-06-22T16:04:26Z</time>
      </trkpt>
      <trkpt lat="-21.112912" lon="-44.187216">
        <ele>943.6617754508525</ele>
        <time>2019-06-22T16:04:40Z</time>
      </trkpt>
      <trkpt lat="-21.112920" lon="-44.187150">
        <ele>942.6618745718848</ele>
        <time>2019-06-22T16:04:46Z</time>
      </trkpt>
      <trkpt lat="-21.112930" lon="-44.187078">
        <ele>937.6619724467754</ele>
        <time>2019-06-22T16:04:51Z</time>
      </trkpt>
      <trkpt lat="-21.112934" lon="-44.187009">
        <ele>936.6620860508011</ele>
        <time>2019-06-22T16:04:55Z</time>
      </trkpt>
      <trkpt lat="-21.112959" lon="-44.186913">
        <ele>936.662183910928</ele>
        <time>2019-06-22T16:04:59Z</time>
      </trkpt>
      <trkpt lat="-21.112993" lon="-44.186828">
        <ele>939.6622363804495</ele>
        <time>2019-06-22T16:05:09Z</time>
      </trkpt>
      <trkpt lat="-21.112999" lon="-44.186742">
        <ele>940.6623740494464</ele>
        <time>2019-06-22T16:05:15Z</time>
      </trkpt>
      <trkpt lat="-21.112988" lon="-44.186662">
        <ele>943.66254884456</ele>
        <time>2019-06-22T16:05:23Z</time>
      </trkpt>
      <trkpt lat="-21.113014" lon="-44.186580">
        <ele>943.6626219823139</ele>
        <time>2019-06-22T16:05:29Z</time>
      </trkpt>
      <trkpt lat="-21.113042" lon="-44.186527">
        <ele>944.6626342628822</ele>
        <time>2019-06-22T16:05:32Z</time>
      </trkpt>
      <trkpt lat="-21.113089" lon="-44.186450">
        <ele>943.6626325871296</ele>
        <time>2019-06-22T16:05:37Z</time>
      </trkpt>
      <trkpt lat="-21.113144" lon="-44.186411">
        <ele>944.6625391762229</ele>
        <time>2019-06-22T16:05:46Z</time>
      </trkpt>
      <trkpt lat="-21.113185" lon="-44.186360">
        <ele>946.6625086638893</ele>
        <time>2019-06-22T16:05:50Z</time>
      </trkpt>
      <trkpt lat="-21.113250" lon="-44.186284">
        <ele>949.6624541049637</ele>
        <time>2019-06-22T16:05:55Z</time>
      </trkpt>
      <trkpt lat="-21.113303" lon="-44.186216">
        <ele>948.6624176737465</ele>
        <time>2019-06-22T16:06:01Z</time>
      </trkpt>
      <trkpt lat="-21.113337" lon="-44.186144">
        <ele>946.6624488013995</ele>
        <time>2019-06-22T16:06:07Z</time>
      </trkpt>
      <trkpt lat="-21.113402" lon="-44.186083">
        <ele>946.6623662410752</ele>
        <time>2019-06-22T16:06:12Z</time>
      </trkpt>
      <trkpt lat="-21.113470" lon="-44.186022">
        <ele>948.6622711241728</ele>
        <time>2019-06-22T16:06:18Z</time>
      </trkpt>
      <trkpt lat="-21.113498" lon="-44.185948">
        <ele>949.6623265963041</ele>
        <time>2019-06-22T16:06:25Z</time>
      </trkpt>
      <trkpt lat="-21.113533" lon="-44.185899">
        <ele>949.6623105828147</ele>
        <time>2019-06-22T16:06:29Z</time>
      </trkpt>
      <trkpt lat="-21.113586" lon="-44.185826">
        <ele>950.6622846341775</ele>
        <time>2019-06-22T16:06:38Z</time>
      </trkpt>
      <trkpt lat="-21.113605" lon="-44.185769">
        <ele>948.662332064846</ele>
        <time>2019-06-22T16:06:42Z</time>
      </trkpt>
      <trkpt lat="-21.113646" lon="-44.185687">
        <ele>950.6623573216339</ele>
        <time>2019-06-22T16:06:48Z</time>
      </trkpt>
      <trkpt lat="-21.113673" lon="-44.185627">
        <ele>944.6623884434737</ele>
        <time>2019-06-22T16:06:54Z</time>
      </trkpt>
      <trkpt lat="-21.113688" lon="-44.185526">
        <ele>938.6625255344256</ele>
        <time>2019-06-22T16:06:59Z</time>
      </trkpt>
      <trkpt lat="-21.113728" lon="-44.185444">
        <ele>937.6625566700874</ele>
        <time>2019-06-22T16:07:09Z</time>
      </trkpt>
      <trkpt lat="-21.113744" lon="-44.185349">
        <ele>939.6626819529645</ele>
        <time>2019-06-22T16:07:16Z</time>
      </trkpt>
      <trkpt lat="-21.113753" lon="-44.185277">
        <ele>935.6627875595904</ele>
        <time>2019-06-22T16:07:21Z</time>
      </trkpt>
      <trkpt lat="-21.113770" lon="-44.185187">
        <ele>934.6629003323956</ele>
        <time>2019-06-22T16:07:25Z</time>
      </trkpt>
      <trkpt lat="-21.113791" lon="-44.185109">
        <ele>934.6629795499971</ele>
        <time>2019-06-22T16:07:31Z</time>
      </trkpt>
      <trkpt lat="-21.113806" lon="-44.185017">
        <ele>945.6631037405209</ele>
        <time>2019-06-22T16:07:39Z</time>
      </trkpt>
      <trkpt lat="-21.113816" lon="-44.184926">
        <ele>944.6632371903104</ele>
        <time>2019-06-22T16:07:48Z</time>
      </trkpt>
      <trkpt lat="-21.113809" lon="-44.184845">
        <ele>946.6634089714217</ele>
        <time>2019-06-22T16:07:52Z</time>
      </trkpt>
      <trkpt lat="-21.113804" lon="-44.184754">
        <ele>948.6635901853984</ele>
        <time>2019-06-22T16:08:00Z</time>
      </trkpt>
      <trkpt lat="-21.113784" lon="-44.184681">
        <ele>949.6637783854125</ele>
        <time>2019-06-22T16:08:06Z</time>
      </trkpt>
      <trkpt lat="-21.113755" lon="-44.184617">
        <ele>951.6639812224699</ele>
        <time>2019-06-22T16:08:11Z</time>
      </trkpt>
      <trkpt lat="-21.113718" lon="-44.184552">
        <ele>955.6642078283592</ele>
        <time>2019-06-22T16:08:17Z</time>
      </trkpt>
      <trkpt lat="-21.113683" lon="-44.184470">
        <ele>956.664463305929</ele>
        <time>2019-06-22T16:08:23Z</time>
      </trkpt>
      <trkpt lat="-21.113639" lon="-44.184373">
        <ele>954.6647679278061</ele>
        <time>2019-06-22T16:08:27Z</time>
      </trkpt>
      <trkpt lat="-21.113568" lon="-44.184328">
        <ele>956.6650592132864</ele>
        <time>2019-06-22T16:08:36Z</time>
      </trkpt>
      <trkpt lat="-21.113540" lon="-44.184267">
        <ele>957.6652544895928</ele>
        <time>2019-06-22T16:08:40Z</time>
      </trkpt>
      <trkpt lat="-21.113492" lon="-44.184202">
        <ele>956.6655124064495</ele>
        <time>2019-06-22T16:08:44Z</time>
      </trkpt>
      <trkpt lat="-21.113436" lon="-44.184149">
        <ele>956.6657723298856</ele>
        <time>2019-06-22T16:08:52Z</time>
      </trkpt>
      <trkpt lat="-21.113378" lon="-44.184114">
        <ele>958.6660085029837</ele>
        <time>2019-06-22T16:08:58Z</time>
      </trkpt>
      <trkpt lat="-21.113318" lon="-44.184063">
        <ele>959.6662777647648</ele>
        <time>2019-06-22T16:09:03Z</time>
      </trkpt>
      <trkpt lat="-21.113254" lon="-44.183997">
        <ele>958.6665865433775</ele>
        <time>2019-06-22T16:09:09Z</time>
      </trkpt>
      <trkpt lat="-21.113189" lon="-44.183932">
        <ele>958.6668944846165</ele>
        <time>2019-06-22T16:09:16Z</time>
      </trkpt>
      <trkpt lat="-21.113136" lon="-44.183885">
        <ele>954.6671353563862</ele>
        <time>2019-06-22T16:09:27Z</time>
      </trkpt>
      <trkpt lat="-21.113103" lon="-44.183814">
        <ele>954.6673610909456</ele>
        <time>2019-06-22T16:09:34Z</time>
      </trkpt>
      <trkpt lat="-21.113043" lon="-44.183752">
        <ele>956.667649962624</ele>
        <time>2019-06-22T16:09:38Z</time>
      </trkpt>
      <trkpt lat="-21.112973" lon="-44.183708">
        <ele>957.6679335122712</ele>
        <time>2019-06-22T16:09:42Z</time>
      </trkpt>
      <trkpt lat="-21.112923" lon="-44.183657">
        <ele>959.6681738673936</ele>
        <time>2019-06-22T16:09:48Z</time>
      </trkpt>
      <trkpt lat="-21.112882" lon="-44.183594">
        <ele>954.6684092153056</ele>
        <time>2019-06-22T16:09:53Z</time>
      </trkpt>
      <trkpt lat="-21.112837" lon="-44.183526">
        <ele>954.6686639671167</ele>
        <time>2019-06-22T16:10:00Z</time>
      </trkpt>
      <trkpt lat="-21.112792" lon="-44.183447">
        <ele>953.6689387639702</ele>
        <time>2019-06-22T16:10:06Z</time>
      </trkpt>
      <trkpt lat="-21.112740" lon="-44.183379">
        <ele>956.6692153394157</ele>
        <time>2019-06-22T16:10:13Z</time>
      </trkpt>
      <trkpt lat="-21.112724" lon="-44.183305">
        <ele>953.6693927942982</ele>
        <time>2019-06-22T16:10:17Z</time>
      </trkpt>
      <trkpt lat="-21.112706" lon="-44.183219">
        <ele>953.6696026546128</ele>
        <time>2019-06-22T16:10:22Z</time>
      </trkpt>
      <trkpt lat="-21.112698" lon="-44.183148">
        <ele>952.6697516740364</ele>
        <time>2019-06-22T16:10:29Z</time>
      </trkpt>
      <trkpt lat="-21.112685" lon="-44.183067">
        <ele>951.6699366878844</ele>
        <time>2019-06-22T16:10:34Z</time>
      </trkpt>
      <trkpt lat="-21.112671" lon="-44.182980">
        <ele>952.6701345561964</ele>
        <time>2019-06-22T16:10:39Z</time>
      </trkpt>
      <trkpt lat="-21.112634" lon="-44.182872">
        <ele>952.67043888434</ele>
        <time>2019-06-22T16:10:44Z</time>
      </trkpt>
      <trkpt lat="-21.112632" lon="-44.182778">
        <ele>950.6706144501984</ele>
        <time>2019-06-22T16:10:56Z</time>
      </trkpt>
      <trkpt lat="-21.112629" lon="-44.182704">
        <ele>951.670755835118</ele>
        <time>2019-06-22T16:11:01Z</time>
      </trkpt>
      <trkpt lat="-21.112615" lon="-44.182624">
        <ele>949.6709422571552</ele>
        <time>2019-06-22T16:11:06Z</time>
      </trkpt>
      <trkpt lat="-21.112610" lon="-44.182532">
        <ele>949.6711227405357</ele>
        <time>2019-06-22T16:11:11Z</time>
      </trkpt>
      <trkpt lat="-21.112631" lon="-44.182445">
        <ele>949.6712161231583</ele>
        <time>2019-06-22T16:11:20Z</time>
      </trkpt>
      <trkpt lat="-21.112678" lon="-44.182368">
        <ele>953.6712181732138</ele>
        <time>2019-06-22T16:11:33Z</time>
      </trkpt>
      <trkpt lat="-21.112736" lon="-44.182309">
        <ele>952.6711548178272</ele>
        <time>2019-06-22T16:11:39Z</time>
      </trkpt>
      <trkpt lat="-21.112816" lon="-44.182271">
        <ele>950.6709898046731</ele>
        <time>2019-06-22T16:11:54Z</time>
      </trkpt>
      <trkpt lat="-21.112876" lon="-44.182252">
        <ele>948.6708499437719</ele>
        <time>2019-06-22T16:16:56Z</time>
      </trkpt>
      <trkpt lat="-21.112876" lon="-44.182252">
        <ele>948.6708499437719</ele>
        <time>2019-06-22T16:16:56Z</time>
      </trkpt>
    </trkseg>
  </trk>
</gpx>
